[[{"header":{"parameterUnit":"m.s-1","parameterCategory":1,"la1":30.6,"la2":29.2853,"lo1":-89.7004,"lo2":-87.6739,"dx":0.0162,"dy":0.0183,"nx":112,"ny":82,"refTime":"2022-12-21T06:00:00:Z","depth":0,"parameterNumber":2,"parameterNumberName":"U-component_of_WINDS"},"data":[0.0,0.0,0.0,0.0,0.0,0.0,0.0,0.0,0.0,0.0,0.0,0.0,0.0,0.0,0.0,0.0,0.0,0.0,0.0,0.0,0.0,0.0,0.0,0.0,0.0,0.0,0.0,0.0,0.0,0.0,0.0,0.0,0.0,0.0,0.0,0.0,0.0,0.0,0.0,0.0,0.0,0.0,0.0,0.0,0.0,0.0,0.0,0.0,0.0,0.0,0.0,0.0,0.0,0.0,0.0,0.0,0.0,0.0,0.0,0.0,0.0,0.0,0.0,0.0,0.0,0.0,0.0,0.0,0.0,0.0,0.0,0.0,0.0,0.0,0.0,0.0,0.0,0.0,0.0,0.0,0.0,0.0,0.0,0.0,0.0,0.0,0.0,0.0,0.0,0.0,3.9801,4.258,4.4844,4.6172,4.6175,4.3846,4.1293,3.8734,0.0,0.0,0.0,0.0,0.0,0.0,0.0,0.0,0.0,0.0,0.0,0.0,0.0,0.0,0.0,0.0,0.0,0.0,0.0,0.0,0.0,0.0,0.0,0.0,0.0,0.0,0.0,0.0,0.0,0.0,0.0,0.0,0.0,0.0,0.0,0.0,0.0,0.0,0.0,0.0,0.0,0.0,0.0,0.0,0.0,0.0,0.0,0.0,0.0,0.0,0.0,0.0,0.0,0.0,0.0,0.0,0.0,0.0,0.0,0.0,0.0,0.0,0.0,0.0,0.0,0.0,0.0,0.0,0.0,0.0,0.0,0.0,0.0,0.0,0.0,0.0,0.0,0.0,0.0,0.0,0.0,0.0,0.0,0.0,0.0,0.0,0.0,0.0,0.0,0.0,0.0,0.0,0.0,0.0,0.0,0.0,0.0,0.0,0.0,0.0,0.0,0.0,0.0,0.0,4.1958,4.593,4.7294,4.7623,4.6928,4.5127,4.2956,4.039,0.0,0.0,0.0,0.0,0.0,0.0,0.0,0.0,0.0,0.0,0.0,0.0,0.0,0.0,0.0,0.0,0.0,0.0,0.0,0.0,0.0,0.0,0.0,0.0,0.0,0.0,0.0,0.0,0.0,0.0,0.0,0.0,0.0,0.0,0.0,0.0,0.0,0.0,0.0,0.0,0.0,0.0,0.0,0.0,0.0,0.0,0.0,0.0,0.0,0.0,0.0,0.0,0.0,0.0,0.0,0.0,0.0,0.0,0.0,0.0,0.0,0.0,0.0,0.0,0.0,0.0,0.0,0.0,0.0,0.0,0.0,0.0,0.0,0.0,0.0,0.0,0.0,0.0,0.0,0.0,0.0,0.0,0.0,0.0,0.0,0.0,0.0,0.0,0.0,0.0,0.0,0.0,0.0,0.0,0.0,0.0,0.0,0.0,0.0,0.0,0.0,0.0,0.0,4.2322,4.4767,4.8058,4.8346,4.8296,4.8333,4.6352,4.3838,4.0798,3.7163,0.0,0.0,0.0,0.0,0.0,0.0,0.0,0.0,0.0,0.0,0.0,0.0,0.0,0.0,0.0,0.0,0.0,0.0,0.0,0.0,0.0,0.0,0.0,0.0,0.0,0.0,0.0,0.0,0.0,0.0,0.0,0.0,0.0,0.0,0.0,0.0,0.0,0.0,0.0,0.0,0.0,0.0,0.0,0.0,0.0,0.0,0.0,0.0,0.0,0.0,0.0,0.0,0.0,0.0,0.0,0.0,0.0,0.0,0.0,0.0,0.0,0.0,0.0,0.0,0.0,0.0,0.0,0.0,0.0,0.0,0.0,0.0,0.0,0.0,0.0,0.0,0.0,0.0,0.0,0.0,0.0,0.0,0.0,0.0,0.0,0.0,0.0,0.0,0.0,0.0,0.0,0.0,0.0,0.0,0.0,0.0,0.0,0.0,0.0,0.0,0.0,0.0,4.4748,4.739,4.9287,4.9273,4.9227,4.946,4.7339,4.4515,4.1105,3.8306,0.0,0.0,0.0,0.0,0.0,0.0,0.0,0.0,0.0,0.0,0.0,0.0,0.0,0.0,0.0,0.0,0.0,0.0,0.0,0.0,0.0,0.0,0.0,0.0,0.0,0.0,0.0,0.0,0.0,0.0,0.0,0.0,0.0,0.0,0.0,0.0,0.0,0.0,0.0,0.0,0.0,0.0,0.0,0.0,0.0,0.0,0.0,0.0,0.0,0.0,0.0,0.0,0.0,0.0,0.0,0.0,0.0,0.0,0.0,0.0,0.0,0.0,0.0,0.0,0.0,0.0,0.0,0.0,0.0,0.0,0.0,0.0,0.0,0.0,0.0,0.0,0.0,0.0,0.0,0.0,0.0,0.0,0.0,0.0,0.0,0.0,0.0,0.0,0.0,0.0,0.0,0.0,0.0,0.0,0.0,0.0,0.0,0.0,0.0,0.0,0.0,0.0,4.6241,4.932,4.9471,5.0773,5.1053,4.952,4.7824,4.5358,4.1932,3.8548,0.0,0.0,0.0,0.0,0.0,0.0,0.0,0.0,0.0,0.0,0.0,0.0,0.0,0.0,0.0,0.0,0.0,0.0,0.0,0.0,0.0,0.0,0.0,0.0,0.0,0.0,0.0,0.0,0.0,0.0,0.0,0.0,0.0,0.0,0.0,0.0,0.0,0.0,0.0,0.0,0.0,0.0,0.0,0.0,0.0,0.0,0.0,0.0,0.0,0.0,0.0,0.0,0.0,0.0,0.0,0.0,0.0,0.0,0.0,0.0,0.0,0.0,0.0,0.0,0.0,0.0,0.0,0.0,0.0,0.0,0.0,0.0,0.0,0.0,0.0,0.0,0.0,0.0,0.0,0.0,0.0,0.0,0.0,0.0,0.0,0.0,0.0,0.0,0.0,0.0,0.0,0.0,0.0,0.0,0.0,0.0,0.0,0.0,0.0,0.0,0.0,0.0,4.7016,5.0108,0.0,5.2364,5.2468,5.1816,4.9739,4.6777,4.2852,0.0,0.0,0.0,0.0,0.0,0.0,0.0,0.0,0.0,0.0,0.0,0.0,0.0,0.0,0.0,0.0,0.0,0.0,0.0,0.0,0.0,0.0,0.0,0.0,0.0,0.0,0.0,0.0,0.0,0.0,0.0,0.0,0.0,0.0,0.0,0.0,0.0,0.0,0.0,0.0,0.0,0.0,0.0,0.0,0.0,0.0,0.0,0.0,0.0,0.0,0.0,0.0,0.0,0.0,0.0,0.0,0.0,0.0,0.0,0.0,0.0,0.0,0.0,0.0,0.0,0.0,0.0,0.0,0.0,0.0,0.0,0.0,0.0,0.0,0.0,0.0,0.0,0.0,0.0,0.0,0.0,0.0,0.0,0.0,0.0,0.0,0.0,0.0,0.0,0.0,0.0,0.0,0.0,0.0,0.0,0.0,0.0,0.0,0.0,0.0,0.0,0.0,4.4457,4.7794,5.0739,0.0,5.3431,5.3508,5.3237,5.0856,4.7818,4.4126,0.0,0.0,0.0,0.0,0.0,0.0,0.0,0.0,0.0,0.0,0.0,0.0,0.0,0.0,0.0,0.0,0.0,0.0,0.0,0.0,0.0,0.0,0.0,0.0,0.0,0.0,0.0,0.0,0.0,0.0,0.0,0.0,0.0,0.0,0.0,0.0,0.0,0.0,0.0,0.0,0.0,0.0,0.0,0.0,0.0,0.0,0.0,0.0,0.0,0.0,0.0,0.0,0.0,0.0,0.0,0.0,0.0,0.0,0.0,0.0,0.0,0.0,0.0,0.0,0.0,0.0,0.0,0.0,0.0,0.0,0.0,0.0,0.0,0.0,0.0,0.0,0.0,0.0,0.0,0.0,0.0,0.0,0.0,0.0,0.0,0.0,0.0,0.0,0.0,0.0,0.0,0.0,0.0,0.0,0.0,0.0,0.0,0.0,0.0,0.0,0.0,0.0,4.5299,4.8654,5.136,5.3046,5.401,5.4203,5.3315,5.0894,4.8359,0.0,0.0,0.0,0.0,0.0,0.0,0.0,0.0,0.0,0.0,0.0,0.0,0.0,0.0,0.0,0.0,0.0,0.0,0.0,0.0,0.0,0.0,0.0,0.0,0.0,0.0,0.0,0.0,0.0,0.0,0.0,0.0,0.0,0.0,0.0,0.0,0.0,0.0,0.0,0.0,0.0,0.0,0.0,0.0,0.0,0.0,0.0,0.0,0.0,0.0,0.0,0.0,0.0,0.0,0.0,0.0,0.0,0.0,0.0,0.0,0.0,0.0,0.0,0.0,0.0,0.0,0.0,0.0,0.0,0.0,0.0,0.0,0.0,0.0,0.0,0.0,0.0,0.0,0.0,0.0,0.0,0.0,0.0,0.0,0.0,0.0,0.0,0.0,0.0,0.0,0.0,0.0,0.0,0.0,0.0,0.0,0.0,0.0,0.0,0.0,0.0,0.0,0.0,4.6957,4.9842,5.2663,5.5553,5.6666,5.6816,5.5966,5.3545,5.0739,4.7548,0.0,0.0,0.0,0.0,0.0,0.0,0.0,0.0,0.0,0.0,0.0,0.0,0.0,0.0,0.0,0.0,0.0,0.0,0.0,0.0,0.0,0.0,0.0,0.0,0.0,0.0,0.0,0.0,0.0,0.0,0.0,0.0,0.0,0.0,0.0,0.0,0.0,0.0,0.0,0.0,0.0,0.0,0.0,0.0,0.0,0.0,0.0,0.0,0.0,0.0,0.0,0.0,0.0,0.0,0.0,0.0,0.0,0.0,0.0,0.0,0.0,0.0,0.0,0.0,0.0,0.0,0.0,0.0,0.0,0.0,0.0,0.0,0.0,0.0,0.0,0.0,0.0,0.0,0.0,0.0,0.0,0.0,0.0,0.0,0.0,0.0,0.0,0.0,0.0,0.0,0.0,0.0,0.0,0.0,0.0,0.0,0.0,0.0,0.0,0.0,0.0,0.0,4.8165,5.0869,5.3585,5.6673,5.7782,5.8084,5.7543,5.5161,5.2546,4.9774,0.0,0.0,0.0,0.0,0.0,0.0,0.0,0.0,0.0,0.0,0.0,0.0,0.0,0.0,0.0,0.0,0.0,0.0,0.0,0.0,0.0,0.0,0.0,0.0,0.0,0.0,0.0,0.0,0.0,0.0,0.0,0.0,0.0,0.0,0.0,0.0,0.0,0.0,0.0,0.0,0.0,0.0,0.0,0.0,0.0,0.0,0.0,0.0,0.0,0.0,0.0,0.0,0.0,0.0,0.0,0.0,0.0,0.0,0.0,0.0,0.0,0.0,0.0,0.0,0.0,0.0,0.0,0.0,0.0,0.0,0.0,0.0,0.0,0.0,0.0,0.0,0.0,0.0,0.0,0.0,0.0,0.0,0.0,0.0,0.0,0.0,0.0,0.0,0.0,0.0,0.0,0.0,0.0,0.0,0.0,0.0,0.0,0.0,0.0,0.0,0.0,0.0,4.9318,5.1893,5.4395,5.6941,5.8013,5.8508,5.8432,5.6203,5.4086,5.2273,0.0,0.0,0.0,0.0,0.0,0.0,0.0,0.0,0.0,0.0,0.0,0.0,0.0,0.0,0.0,0.0,0.0,0.0,0.0,0.0,0.0,0.0,0.0,0.0,0.0,0.0,0.0,0.0,0.0,0.0,0.0,0.0,0.0,0.0,0.0,0.0,0.0,0.0,0.0,0.0,0.0,0.0,0.0,0.0,0.0,0.0,0.0,0.0,0.0,0.0,0.0,0.0,0.0,0.0,0.0,0.0,0.0,0.0,0.0,0.0,3.5395,0.0,0.0,0.0,0.0,0.0,0.0,0.0,0.0,0.0,0.0,0.0,0.0,0.0,0.0,0.0,0.0,0.0,0.0,0.0,0.0,0.0,0.0,0.0,0.0,0.0,0.0,0.0,0.0,0.0,0.0,0.0,0.0,0.0,0.0,0.0,0.0,0.0,0.0,0.0,0.0,0.0,5.1854,5.401,5.6128,5.8705,5.9744,5.9975,5.9316,5.8162,5.6471,5.4087,5.1206,0.0,0.0,0.0,0.0,0.0,0.0,0.0,0.0,0.0,0.0,0.0,0.0,0.0,0.0,0.0,0.0,0.0,0.0,0.0,0.0,0.0,0.0,0.0,0.0,0.0,0.0,0.0,0.0,0.0,0.0,0.0,0.0,0.0,0.0,0.0,0.0,0.0,0.0,0.0,0.0,0.0,0.0,0.0,0.0,0.0,0.0,0.0,0.0,0.0,0.0,0.0,0.0,0.0,0.0,0.0,0.0,0.0,0.0,0.0,0.0,3.6396,0.0,0.0,0.0,0.0,0.0,0.0,0.0,0.0,0.0,0.0,0.0,0.0,0.0,0.0,0.0,0.0,0.0,0.0,0.0,0.0,0.0,0.0,0.0,0.0,0.0,0.0,0.0,0.0,0.0,0.0,0.0,0.0,0.0,0.0,0.0,0.0,0.0,0.0,0.0,0.0,5.3394,5.5279,5.7317,5.9858,6.0899,6.1247,6.0784,5.9975,5.8588,5.6471,5.3936,0.0,0.0,0.0,0.0,0.0,0.0,0.0,0.0,0.0,0.0,0.0,0.0,0.0,0.0,0.0,0.0,0.0,0.0,0.0,0.0,0.0,0.0,0.0,0.0,0.0,0.0,0.0,0.0,0.0,0.0,0.0,0.0,0.0,0.0,0.0,0.0,0.0,0.0,0.0,0.0,0.0,0.0,0.0,0.0,0.0,0.0,0.0,0.0,0.0,0.0,0.0,0.0,0.0,4.3777,4.4625,4.5435,4.6168,4.6477,4.6285,4.2784,4.0859,4.0089,0.0,0.0,0.0,0.0,0.0,0.0,0.0,0.0,0.0,0.0,0.0,0.0,0.0,0.0,0.0,0.0,0.0,0.0,0.0,0.0,0.0,0.0,0.0,0.0,0.0,4.6477,4.5745,0.0,0.0,0.0,0.0,0.0,0.0,0.0,0.0,0.0,0.0,0.0,0.0,5.482,5.6624,5.8547,6.0784,6.1786,6.2326,6.2326,6.1516,6.0361,5.8816,5.6472,5.4013,0.0,0.0,0.0,0.0,0.0,0.0,0.0,0.0,0.0,0.0,0.0,0.0,0.0,0.0,0.0,0.0,0.0,0.0,0.0,0.0,0.0,0.0,0.0,0.0,0.0,0.0,0.0,0.0,0.0,0.0,0.0,0.0,2.9355,3.1005,0.0,0.0,0.0,0.0,0.0,0.0,0.0,0.0,0.0,0.0,0.0,0.0,0.0,4.2161,4.2276,4.4698,4.6352,4.7275,4.8163,4.9013,4.9862,4.9978,5.0017,5.0017,4.944,0.0,4.3587,4.2777,0.0,0.0,0.0,0.0,0.0,0.0,0.0,0.0,0.0,0.0,0.0,0.0,0.0,0.0,0.0,0.0,0.0,0.0,0.0,0.0,0.0,0.0,4.6362,4.9324,5.0017,4.9907,0.0,4.7032,4.5823,4.8786,0.0,0.0,0.0,0.0,0.0,0.0,0.0,0.0,5.747,5.9242,6.0707,6.1826,6.2666,6.3123,6.3123,6.2401,6.1518,6.0515,5.8781,5.6663,5.409,5.1323,0.0,0.0,0.0,0.0,0.0,0.0,0.0,0.0,0.0,0.0,0.0,0.0,0.0,0.0,0.0,0.0,0.0,0.0,0.0,0.0,0.0,0.0,0.0,0.0,0.0,0.0,0.0,0.0,0.0,3.0507,3.2045,3.4234,3.4503,3.5044,0.0,0.0,0.0,0.0,0.0,0.0,0.0,0.0,0.0,4.4198,4.5161,4.6236,4.7358,4.8929,4.9888,5.0233,5.1397,5.2132,5.252,5.3022,5.3127,5.2976,5.3146,5.1775,4.9251,4.7428,4.5933,4.4742,0.0,0.0,0.0,0.0,0.0,4.1377,4.2846,4.3362,0.0,0.0,0.0,0.0,0.0,0.0,0.0,0.0,0.0,0.0,0.0,0.0,0.0,5.3169,5.3515,5.4054,5.5978,5.5208,5.4016,0.0,5.2516,5.1708,5.1784,0.0,0.0,0.0,0.0,5.6823,5.9398,6.0359,6.1478,6.3321,6.3818,6.4048,6.4048,6.3705,6.2938,6.1595,6.0361,5.8779,5.6702,5.4205,5.1476,0.0,0.0,0.0,0.0,0.0,0.0,0.0,0.0,0.0,0.0,0.0,0.0,0.0,0.0,0.0,0.0,0.0,0.0,0.0,0.0,0.0,0.0,0.0,0.0,0.0,0.0,0.0,0.0,3.3698,3.516,3.7695,3.8002,3.8697,0.0,0.0,0.0,0.0,0.0,0.0,4.4315,4.4588,4.6004,4.8869,4.9047,4.9891,5.1492,5.2437,5.2934,5.3097,5.4084,5.4631,5.4782,5.5439,5.5576,5.5348,5.5605,5.5186,5.4182,5.1595,4.9555,4.7853,4.6711,4.4437,4.19,4.2785,4.4707,4.69,4.69,4.69,4.69,4.69,0.0,4.69,4.69,0.0,0.0,0.0,0.0,4.8785,5.1324,0.0,5.7015,5.7015,5.7015,5.7708,6.0247,6.1129,6.0436,0.0,5.4899,5.3823,5.4361,0.0,0.0,0.0,0.0,5.8825,6.1129,6.1821,6.2823,6.4743,6.5319,6.5586,6.5586,6.5165,6.44,6.3135,6.2053,6.0704,5.901,5.6897,5.4475,5.1746,0.0,0.0,0.0,0.0,0.0,0.0,0.0,0.0,0.0,0.0,0.0,0.0,0.0,0.0,0.0,0.0,0.0,0.0,0.0,0.0,0.0,0.0,0.0,0.0,0.0,0.0,0.0,0.0,0.0,4.1234,4.1541,0.0,0.0,0.0,0.0,4.5284,4.6818,4.7776,4.7852,4.9387,5.0585,5.1211,5.2332,5.3186,5.3733,5.4927,5.5777,5.6282,5.6345,5.66,5.7047,5.7085,5.7077,5.7062,5.7079,5.7075,5.6858,5.4594,5.2175,4.9741,4.8456,4.6895,4.5746,4.8978,5.0286,5.0439,5.0439,5.0439,5.0439,5.0439,5.0439,5.0439,5.0439,5.0439,0.0,0.0,5.2746,5.5245,5.5399,5.7977,6.0555,6.0555,6.0555,6.0593,6.0747,6.2049,6.2198,0.0,5.7627,5.6823,5.5784,0.0,5.7364,5.905,6.0051,6.1244,6.2969,6.4626,6.5708,6.5824,6.7242,6.8201,6.8201,6.6744,6.5785,6.5708,6.4125,6.2431,6.0745,5.9744,5.7703,5.4358,5.1746,0.0,0.0,0.0,0.0,0.0,0.0,0.0,0.0,0.0,0.0,0.0,0.0,0.0,0.0,0.0,0.0,0.0,0.0,0.0,0.0,0.0,0.0,0.0,0.0,0.0,0.0,0.0,0.0,4.3754,4.5084,0.0,4.7472,4.809,4.8454,4.8564,4.9574,5.0452,5.104,5.1767,5.2945,5.4637,5.4688,5.5105,5.6012,5.7021,5.7601,5.7791,5.8072,5.8614,5.9306,5.9306,5.9618,6.0081,6.0097,6.0101,6.0035,5.9474,5.7695,5.5147,5.3139,5.2243,5.2246,5.3477,5.5324,5.7207,5.7207,5.7207,5.7207,5.7207,5.7207,5.7207,5.7207,5.7207,5.7207,5.7207,5.8054,5.8976,5.8976,5.9899,6.0784,6.0784,6.0784,6.1399,6.3592,6.4552,6.4934,6.4816,6.1973,5.9631,5.9787,6.0096,6.0865,6.2512,6.3051,6.3858,6.5514,6.6285,6.6901,6.7433,6.8047,6.8391,6.8391,6.7854,6.7281,6.6708,6.5591,6.4434,6.3281,6.1359,5.9511,5.7741,5.5206,5.2513,0.0,0.0,0.0,0.0,0.0,0.0,0.0,0.0,0.0,0.0,0.0,0.0,0.0,0.0,0.0,0.0,0.0,0.0,0.0,0.0,0.0,0.0,0.0,0.0,0.0,4.2605,4.473,4.6151,4.7796,4.92,5.0221,5.0985,5.1467,5.1685,5.2491,5.3183,5.3773,5.4208,5.5221,5.6963,5.6965,5.7362,5.8293,5.9257,5.9677,5.959,5.9882,6.0293,6.0758,6.0758,6.103,6.1532,6.1544,6.1546,6.1557,6.1784,6.1052,5.9616,5.7962,5.7352,5.7438,5.7438,5.886,6.0784,6.0784,6.0784,6.0784,6.0784,6.0784,6.0784,6.0784,6.0784,6.0784,6.0784,6.0784,6.0784,6.0784,6.167,6.2517,6.2517,6.2517,6.3132,6.5402,6.59,6.6399,6.8085,6.4973,6.2361,6.3211,6.3364,6.3863,6.5245,6.5437,6.5937,6.7361,6.7786,6.8207,6.8779,6.9085,6.9241,6.9241,6.9008,6.8587,6.8015,6.7207,6.6359,6.5476,6.3554,6.1975,6.0817,5.7706,5.5012,5.2774,0.0,0.0,0.0,0.0,0.0,0.0,0.0,0.0,0.0,0.0,0.0,0.0,0.0,0.0,0.0,0.0,0.0,0.0,0.0,0.0,0.0,0.0,0.0,4.3638,4.5254,4.7014,4.8422,4.9613,5.0851,5.2208,5.2642,5.337,5.4655,5.5558,5.6062,5.6062,5.6847,5.7526,5.8057,5.9176,5.9981,6.0501,6.1611,6.2018,6.1682,6.1682,6.1551,6.1259,6.1259,6.1301,6.1355,6.1375,6.1378,6.1355,6.136,6.1932,6.2752,6.2592,6.1891,6.0976,6.0976,6.0976,6.0976,6.0976,6.0976,6.0976,6.0976,6.0976,6.0976,6.0976,6.0976,6.0976,6.0976,6.0976,6.0976,6.0976,6.3401,6.59,6.59,6.5979,6.6054,6.6054,6.6054,6.6551,6.8239,6.651,6.5051,6.5824,6.6016,6.6285,6.7095,6.7249,0.0,6.8431,6.9318,6.9819,6.9819,7.0512,7.0975,7.0975,7.0281,6.9819,6.9781,6.897,6.8088,6.721,6.6364,6.5128,6.3352,5.9245,5.6325,5.4666,0.0,0.0,0.0,0.0,0.0,0.0,0.0,0.0,0.0,0.0,0.0,0.0,0.0,0.0,0.0,0.0,0.0,0.0,0.0,0.0,0.0,4.4566,4.6062,4.5398,4.7349,4.9375,5.0733,5.2427,5.3865,5.4866,5.5578,5.6028,5.6142,5.6951,5.7451,5.7437,5.8543,5.9367,5.9788,6.0431,6.0878,6.0993,6.1332,6.1444,6.1326,6.1326,6.1893,6.2925,6.2925,6.3748,6.5087,6.4864,6.4906,6.5116,6.5134,6.4869,6.4443,6.3542,6.3752,6.4517,6.4517,6.4517,6.4517,6.4517,6.4517,6.4517,6.4517,6.4517,6.4517,6.4517,6.4517,6.4517,6.4517,6.4517,6.4517,6.4517,6.5208,6.59,6.59,6.7747,6.9515,6.9515,6.9515,7.0052,7.1776,7.051,6.8858,6.7894,6.8242,6.8936,6.9746,7.0402,0.0,7.2007,7.2316,7.247,7.247,7.2663,7.278,7.278,7.2586,7.2203,7.1556,7.0706,6.9858,6.9013,6.7555,6.5976,6.4279,6.1284,5.9208,0.0,0.0,0.0,0.0,0.0,0.0,0.0,0.0,0.0,0.0,0.0,0.0,0.0,0.0,0.0,0.0,0.0,0.0,0.0,0.0,0.0,0.0,4.747,4.9079,4.8966,5.0223,5.1621,5.2983,5.4579,5.5821,5.6566,5.7179,5.7683,5.8017,5.8513,5.8969,5.9328,6.0058,6.0555,6.0773,6.139,6.185,6.2185,6.2553,6.2888,6.3262,6.3262,6.3745,6.4633,6.4633,6.5268,0.0,6.6167,6.6207,6.639,6.6374,6.6054,0.0,0.0,0.0,0.0,0.0,6.6933,6.6852,6.6139,6.59,6.59,6.59,6.59,6.59,6.59,6.59,6.59,6.59,6.6901,6.7976,6.7976,6.7976,6.7976,6.7976,6.9477,7.0898,7.0898,7.2014,7.3128,7.3432,0.0,0.0,7.0701,7.097,7.1433,7.1933,7.2435,7.2935,7.3432,7.3507,7.3507,7.3507,7.3507,7.3507,7.3507,7.3507,0.0,0.0,0.0,7.1435,7.0244,6.89,0.0,0.0,0.0,0.0,0.0,0.0,0.0,0.0,5.4317,5.3164,0.0,0.0,0.0,0.0,0.0,0.0,0.0,0.0,0.0,0.0,0.0,0.0,0.0,0.0,0.0,0.0,5.0715,5.2442,5.3259,5.3444,5.3933,5.5123,5.6176,5.7066,5.7725,5.8043,5.8734,5.9942,6.0062,6.0399,6.1144,0.0,0.0,0.0,0.0,6.3148,6.3888,6.4593,6.5339,6.6085,6.6085,6.6156,6.6231,6.6231,6.6271,6.6379,6.6379,6.6379,6.6382,6.6361,6.6387,6.6525,6.7324,6.795,6.8357,6.8464,6.8499,0.0,0.0,0.0,0.0,6.6478,6.6478,6.6478,6.6478,6.6478,6.6478,6.6478,6.8592,7.0898,7.0898,7.1206,7.1475,7.1475,7.1321,7.1245,7.1439,7.386,7.5551,7.4086,7.3776,7.3776,7.3776,7.3661,7.3586,7.3623,7.3738,0.0,7.3776,7.3776,7.3776,7.3776,0.0,0.0,7.3776,7.3776,7.3738,7.3624,7.3546,7.2816,7.1245,7.0398,6.9244,6.771,6.6708,6.5859,6.5165,6.4202,6.3775,6.3775,5.8934,5.6706,0.0,0.0,0.0,0.0,0.0,0.0,0.0,0.0,0.0,0.0,0.0,0.0,0.0,0.0,0.0,5.0674,5.2811,5.4665,5.5524,5.6231,5.6722,5.6991,5.7201,5.7885,5.9292,5.9501,5.9926,6.089,6.0959,6.103,6.1182,6.2442,6.3145,6.3145,6.4596,6.5453,6.5602,6.5785,6.5933,6.6085,0.0,0.0,6.7085,6.7085,6.7419,6.8048,6.8048,6.8048,6.8051,6.8026,6.8233,6.8404,6.7285,6.7275,6.7993,6.8779,6.9064,6.9144,6.9738,6.9937,6.9937,6.9937,6.9937,6.9937,6.9937,6.9937,0.0,6.9937,7.0398,7.0898,7.0898,7.2937,7.5014,7.5014,7.3974,7.3357,7.4707,7.5515,7.5899,7.5592,7.5515,7.5515,7.5515,7.4743,7.4205,7.4434,7.5051,7.5515,7.5515,7.5515,7.5515,7.5515,7.5515,7.5515,7.5515,7.5515,7.5203,7.4509,7.3853,7.3353,7.3007,7.217,7.1557,7.1211,6.905,6.8164,6.8702,6.713,6.6744,6.7353,6.4319,6.2897,0.0,0.0,0.0,0.0,0.0,0.0,0.0,0.0,0.0,0.0,0.0,4.6706,4.8905,0.0,5.1746,5.3009,5.4904,5.6387,5.6838,5.7947,5.869,5.869,5.869,5.9173,6.0436,6.0547,6.0884,6.1739,6.2185,6.259,6.2962,6.4188,6.4856,6.4856,6.5673,6.6308,6.6714,6.6714,6.7085,6.7899,6.7899,6.8308,6.9085,6.9085,6.9311,6.9716,6.9716,6.9698,6.9688,6.97,6.9808,6.9907,6.9091,6.8857,6.9132,6.9782,7.0065,7.0144,7.0701,7.1261,7.1813,7.2115,7.1627,7.0898,7.0898,7.0898,7.0898,7.0898,7.2129,7.3437,7.3437,7.4707,7.6015,7.6015,7.5359,7.4972,7.5822,7.6015,7.6169,7.6746,7.6861,7.694,7.7211,7.7017,7.6705,7.6282,7.6784,7.7249,7.7249,7.7249,7.7249,7.7249,7.7249,7.7249,7.7249,7.7249,7.7057,7.6632,7.5436,7.4742,7.4742,7.3514,7.286,7.286,7.1168,7.0514,7.0938,6.9632,6.9246,6.9625,6.8783,6.7936,0.0,0.0,0.0,0.0,0.0,0.0,0.0,4.5615,4.6903,4.8422,4.8706,4.9416,5.1949,5.2896,5.3789,5.5236,5.687,5.7984,5.7984,5.9247,6.021,6.0359,6.0248,6.0473,6.1367,6.1553,6.1996,6.2813,6.363,6.4371,6.5039,6.5859,6.6342,6.6342,6.6639,6.7122,6.7754,6.7936,6.8642,6.9936,6.9936,7.0273,7.0902,7.0914,7.0883,7.0883,7.0902,7.0899,7.0909,7.0893,7.0902,7.0902,7.0986,7.0822,7.0583,7.0984,7.1191,7.1278,7.1356,7.1935,7.2738,7.3444,7.2853,7.19,7.19,7.19,7.19,7.19,7.3899,7.6015,7.6015,7.6015,7.6015,7.6015,7.613,7.6245,7.6245,7.6363,7.6746,7.7671,7.7938,7.8169,7.8598,7.9248,7.9285,7.8055,7.8211,7.8484,7.8484,7.8484,7.8484,7.8484,7.8484,7.8484,7.8484,7.8484,7.8484,7.8484,7.7249,7.6478,7.6478,7.5205,7.4471,7.4471,7.3476,7.3018,7.3173,7.2131,7.1745,7.1898,7.2787,7.2093,4.2244,4.3402,4.459,4.4592,4.5887,4.7223,0.0,4.8466,4.9867,5.0839,5.159,5.2575,5.432,5.5302,5.6169,5.7058,5.8579,5.9616,5.9616,6.0436,6.133,6.2036,6.1479,6.1367,6.2185,6.2925,6.3668,6.4482,6.5339,6.5862,6.5936,6.6714,6.7159,6.7159,6.8565,6.9345,6.9419,7.0122,7.0604,7.0753,7.0753,7.0827,7.0905,7.0918,7.0906,7.0909,7.0884,7.0889,7.0914,7.0885,7.0894,7.0934,7.1347,7.1508,7.1495,7.1907,7.2289,7.2645,7.3042,7.2953,7.2779,7.3852,7.4758,7.5438,7.5438,7.5438,7.5438,7.5438,7.5707,7.6015,7.6015,7.6015,7.6015,7.6015,7.6594,7.7134,7.7134,7.7713,7.8253,7.8407,7.8827,7.9246,7.9285,8.0208,8.0325,7.8675,7.8444,7.8484,7.8484,7.8484,7.8484,7.8484,7.8484,7.8484,7.8484,7.8484,7.8484,7.8484,7.833,7.8213,7.8213,7.8059,7.7944,7.7944,7.6365,7.5978,7.6713,7.509,7.4666,7.5438,7.6326,7.5018,4.5389,4.6377,4.734,4.7886,4.8936,4.9968,5.0448,5.1449,5.2489,5.3306,5.375,5.4493,5.6164,5.7132,5.795,5.8764,5.9881,6.0661,6.0661,6.1367,6.2185,6.2999,6.3222,6.3445,6.3779,6.4559,6.5191,6.5525,6.6342,6.6788,6.6788,6.8011,6.8713,6.8713,6.979,7.0385,7.0385,7.0719,7.1168,7.1667,7.1667,7.1886,7.2335,7.2358,7.2333,7.2337,7.2341,7.2625,7.3048,7.3054,7.3343,7.3766,7.3972,7.4033,7.3886,7.266,7.245,7.2839,7.3035,7.3428,7.3902,7.4372,7.5192,7.6015,7.6015,7.6015,7.6015,7.6015,7.6015,7.6169,7.6824,7.6861,7.6863,7.7326,7.7711,7.7982,7.7982,7.8253,7.8636,7.9171,7.9475,7.9783,8.0285,8.0785,8.0864,8.0135,8.0019,8.0019,8.0019,8.0019,8.0019,8.0019,8.0019,8.0019,8.0019,8.0019,8.0019,8.0019,7.9554,7.9248,7.9248,7.8752,7.8484,7.8484,7.7828,7.7636,7.7982,7.7288,7.7094,7.7444,7.7828,7.7213,4.8378,4.9274,5.0155,5.0856,5.1705,5.2566,5.3121,5.4084,5.4976,5.557,5.5867,5.6461,5.791,5.8653,5.9282,6.0136,6.0956,6.1627,6.1813,6.2553,6.337,6.4188,6.5002,6.5485,6.5485,6.6042,6.6416,6.6416,6.7379,6.7973,6.7973,6.927,7.0013,7.0013,7.0837,7.1248,7.1248,7.1468,7.1923,7.2534,7.2757,7.3166,7.372,7.3951,7.4045,7.4045,7.4045,7.4406,7.493,7.4925,7.5257,7.5811,7.5811,7.5791,7.5602,7.3966,7.3646,7.4066,7.4308,7.4997,7.576,7.5738,7.6169,7.667,7.667,7.667,7.667,7.667,7.667,7.6863,7.7709,7.7788,7.779,7.8367,7.8675,7.8865,7.8865,7.9059,7.9404,8.0052,8.0165,8.0358,8.0977,8.1093,8.1093,8.1093,8.1093,8.1093,8.1093,8.1093,8.1093,8.1093,8.1093,8.1093,8.1093,8.1093,8.1093,8.1093,8.0514,8.0165,8.0165,7.9556,7.9213,7.9213,7.8981,7.8865,7.8865,7.8636,7.8484,7.8523,7.875,7.8865,5.0962,5.2182,5.345,5.3407,5.4163,5.4899,5.4938,5.6204,5.739,5.743,5.8024,5.8836,5.9653,5.9839,6.0136,6.1036,6.185,6.2628,6.3405,6.4219,6.5039,6.5936,6.6714,6.7231,6.7231,6.7234,6.7268,6.7268,6.8713,6.9642,6.9642,7.0419,7.0864,7.0864,7.1707,7.2162,7.2162,7.2939,7.3348,7.3385,7.4166,7.4537,7.4578,7.5358,7.5724,7.5724,7.5724,7.5736,7.5744,7.5741,7.5766,7.5784,7.5784,7.5818,7.5861,7.6247,7.6666,7.7182,7.8048,7.8358,7.8367,7.8369,7.8407,7.8405,7.8405,7.8405,7.8405,7.8405,7.8405,7.8446,7.8482,7.8482,7.8484,7.8484,7.9133,7.9742,7.9742,8.0437,8.1016,8.1054,8.1054,8.1054,8.1093,8.1093,8.1093,8.1093,8.1093,8.1093,8.1093,8.1093,8.1093,8.1093,8.1093,8.1093,8.1093,8.1093,8.1093,8.1093,8.1093,8.1054,8.1054,8.1054,8.1018,8.1018,8.0204,7.9742,7.9742,7.8902,7.8484,7.8523,7.9361,7.9742,5.3315,5.4304,5.5266,5.5867,5.6358,5.6796,5.7313,5.7873,5.8319,5.8319,5.8504,5.895,5.9765,6.0359,6.1033,6.185,6.311,6.4073,6.4371,6.5113,6.5971,6.6788,6.7159,6.7713,6.8788,6.8902,6.8902,6.8902,6.9902,7.0493,7.0493,7.1289,7.1744,7.1744,7.2471,7.2867,7.2867,7.3579,7.3923,7.3929,7.4856,7.5305,7.5429,7.5665,7.5783,7.5794,7.5794,7.6134,7.6646,7.6646,7.6995,7.7479,7.7479,7.7452,7.7504,7.7979,7.8458,7.8772,7.8272,7.8299,7.8484,7.8484,7.8484,7.8484,7.8484,7.8484,7.8484,7.8484,7.8484,7.8636,7.9209,7.936,7.9515,8.0094,8.0439,8.0667,8.0667,8.0898,8.1093,8.1093,8.1093,8.1093,8.1093,8.1093,8.1093,8.1093,8.1093,8.1093,8.1093,8.1093,8.1093,8.1093,8.1093,8.1093,8.1093,8.1093,8.1093,8.1093,8.1093,8.1093,8.1093,8.1093,8.1093,8.1093,8.0821,8.0667,8.0667,8.0364,8.021,8.021,8.0516,8.0667,5.5349,5.6103,5.6865,5.7457,5.7738,5.7999,5.8519,5.8661,5.869,5.869,5.869,5.895,5.9765,6.0622,6.1479,6.2256,6.3739,6.4928,6.5225,6.6008,6.6936,6.8014,6.8159,6.8679,7.0013,7.0428,7.0468,7.0162,7.0911,7.136,7.136,7.2156,7.262,7.2565,7.3245,7.3616,7.3559,7.4331,7.4884,7.5223,7.5841,7.6314,7.6686,7.6686,7.6709,7.6683,7.6683,7.7011,7.7545,7.7545,7.7833,7.8287,7.8287,7.8287,7.8359,7.8834,7.9173,7.9394,7.8942,7.9078,7.9442,7.9442,7.9442,7.9442,7.9442,7.9442,7.9442,7.9442,7.9442,7.9558,8.0129,8.0242,8.0398,8.0977,8.1093,8.1093,8.1093,8.1093,8.1093,8.1093,8.1093,8.1093,8.1093,8.1093,8.1093,8.1093,8.0951,8.0914,8.1077,8.1093,8.1093,8.1093,8.1093,8.1093,8.1093,8.1093,8.1093,8.1093,8.1093,8.1093,8.1093,8.1093,8.1093,8.1093,8.1093,8.1093,8.1093,8.1093,8.1093,8.1093,8.1093,8.1093,5.6993,5.7621,5.8181,5.8227,5.8362,5.8484,5.8529,5.8614,5.869,5.869,5.869,5.895,5.9765,6.0622,6.1479,6.2256,6.3779,6.5151,6.5974,6.6862,6.7973,6.953,6.9753,7.0088,7.0905,7.1704,7.1856,7.109,7.1778,7.2274,7.2274,7.2973,7.3344,7.3273,7.3997,7.4329,7.4257,7.5146,7.6138,7.7127,7.713,7.754,7.8259,7.8269,7.8269,7.8269,7.8262,7.8259,7.8259,7.8273,7.8276,7.828,7.8287,7.8287,7.8356,7.8805,7.8994,7.9158,8.0048,8.0653,8.1069,8.1087,8.1093,8.1093,8.1093,8.1093,8.1093,8.1093,8.1093,8.1093,8.1093,8.1093,8.1093,8.1093,8.1093,8.1093,8.1093,8.1093,8.1093,8.1093,8.1093,8.1093,8.1093,8.1079,8.1067,8.1067,8.0646,8.054,8.0985,8.1051,8.1039,8.1039,8.1057,8.1067,8.1067,8.1083,8.1093,8.1093,8.1093,8.1093,8.1093,8.1093,8.1093,8.1093,8.1093,8.1093,8.1093,8.1093,8.1093,8.1093,8.1093,8.1093,5.7556,5.7964,5.8204,5.833,5.8419,5.8545,5.863,5.8669,5.869,5.869,5.869,5.895,5.9765,6.0622,6.1479,6.2256,6.4299,6.5862,6.6085,6.7828,6.9233,6.9642,7.0233,7.0948,7.1781,7.2085,7.2348,7.2747,7.2977,7.3088,7.3088,7.3207,7.3495,7.4088,7.4057,7.4287,7.488,7.5594,7.6478,7.7465,7.7473,7.7645,7.7927,7.7917,7.794,7.7933,7.7945,7.7924,7.7938,7.8041,7.8075,7.8085,7.8241,7.8287,7.8307,7.8414,7.8916,7.9562,7.9797,8.02,8.0624,8.0973,8.1093,8.1093,8.1093,8.1093,8.1093,8.1093,8.1093,8.1093,8.1093,8.1093,8.1093,8.1093,8.1093,8.1093,8.1093,8.1093,8.1093,8.1093,8.1093,8.1093,8.1093,8.0801,8.0576,8.0576,8.0195,8.0035,8.0526,8.0278,8.0045,8.0045,8.0363,8.0576,8.0576,8.0908,8.1093,8.1093,8.1093,8.1093,8.1093,8.1093,8.1093,8.1093,8.1093,8.1093,8.1093,8.1093,8.1093,8.1093,8.1093,8.1093,5.8321,5.8302,5.8241,5.8733,5.8665,5.8481,5.859,5.8654,5.869,5.869,5.869,5.8836,5.9282,6.0064,6.0884,6.1739,6.3928,6.5671,6.6048,6.8196,6.9828,7.0199,7.0948,7.1815,7.2645,7.272,7.3051,7.3868,7.3608,7.3545,7.3807,7.3764,7.4027,7.4709,7.4944,7.5484,7.6291,7.6589,7.7067,7.7698,7.7682,7.7717,7.781,7.7802,7.7793,7.7786,0.0,7.7824,7.7897,7.7961,7.8053,7.8127,7.8255,7.8287,7.8287,7.8287,7.862,7.9128,7.956,7.9871,8.0217,8.0891,8.1093,8.1093,8.1093,8.1093,8.1093,8.1093,8.1093,8.1093,8.1093,8.1093,8.1093,8.1093,8.1093,8.1093,8.1093,8.1093,8.1093,8.1093,8.1093,8.1093,8.1093,8.0722,8.0389,8.0389,7.9831,7.9492,7.9754,7.9738,7.9703,7.9703,7.993,8.019,8.0375,8.0629,8.0891,8.1083,8.1093,8.1093,8.1093,8.1093,8.1093,8.1093,8.1093,8.1093,8.1093,8.1093,8.1093,8.1093,8.1093,8.1093,5.8973,5.8612,5.822,5.9173,5.8914,5.8429,5.8516,5.8619,5.869,5.869,5.869,5.869,5.869,5.9356,6.0173,6.107,6.3145,6.4965,6.5971,6.8196,7.0013,7.079,7.1762,7.2616,7.3319,7.3451,7.3809,7.4474,7.3995,7.3945,7.4539,7.4532,7.4713,7.5209,7.6195,7.7057,7.7739,7.7613,7.7613,7.7739,7.7739,7.7724,7.7721,7.7721,7.7714,7.7714,0.0,0.0,7.7954,7.7975,7.8078,7.8259,7.8283,7.8287,7.8287,7.8287,7.8338,7.8512,7.932,7.9651,7.9852,8.0788,8.1093,8.1093,8.1093,8.1093,8.1093,8.1093,8.1093,8.1093,8.1093,8.1093,8.1093,8.1093,8.1093,8.1093,8.1093,8.1093,8.1093,8.1093,8.1093,8.1079,8.1033,8.0609,8.029,8.0234,7.9478,7.8907,7.8929,7.9247,7.9515,7.9515,7.9574,7.9799,8.0273,8.0359,8.0596,8.1071,8.1093,8.1093,8.1093,8.1093,8.1093,8.1093,8.1093,8.1093,8.1093,8.1093,8.1093,8.1093,8.1093,8.1093,5.8973,5.8612,5.8238,5.9312,5.8973,5.845,5.8614,5.8677,5.869,5.869,5.869,5.869,5.869,5.9356,6.0173,6.107,6.2665,6.4333,6.5899,6.8196,7.0013,7.079,7.2148,7.3087,7.3239,7.375,7.4119,7.4267,7.4747,7.5166,7.5377,7.511,7.5264,7.5911,7.6899,7.7427,7.7403,7.7362,7.7362,7.7403,7.7403,7.7385,7.7387,7.7402,7.7406,7.7406,7.7406,0.0,7.7669,7.7802,7.7914,7.8067,7.8238,7.8287,7.8287,7.8287,7.8555,7.8907,7.9049,7.9378,7.9852,8.0788,8.1093,8.1093,8.1093,8.1093,8.1093,8.1093,8.1093,8.1093,8.1093,8.1093,8.1093,8.1093,8.1093,8.1093,8.1093,8.1093,8.1093,8.1093,8.1093,8.0965,8.0585,8.0115,7.9692,7.9285,7.878,7.84,7.8438,7.8485,7.8548,7.8548,7.8885,7.9314,7.9783,8.0193,8.0596,8.1071,8.1093,8.1093,8.1093,8.1093,8.1093,8.1093,8.1093,8.1093,8.1093,8.1093,8.1093,8.1093,8.1093,8.1093,5.9493,5.8995,5.8431,5.9859,5.9318,5.8489,5.8654,5.8396,5.8098,5.8098,5.7727,5.7578,5.7984,5.8393,5.9062,6.0324,6.1885,6.3556,6.5188,6.7528,6.953,7.0753,7.1859,7.271,7.3158,7.3868,7.4462,7.4785,7.5557,7.6036,7.611,7.6305,7.6556,7.6858,7.7245,7.7447,7.7447,7.7362,7.7285,7.7285,7.7285,7.7285,7.7285,7.7285,7.7285,7.7285,7.7285,0.0,7.7706,7.7787,7.7925,7.8186,7.8259,7.8287,7.8287,7.8287,7.8431,7.8669,7.891,7.9134,7.9458,8.0166,8.0544,8.078,8.1039,8.1093,8.1093,8.1093,8.1093,8.1093,8.1093,8.1093,8.1093,8.1093,8.1093,8.1093,8.1093,8.1093,8.1093,8.1093,8.091,8.0646,8.0424,7.9807,7.9244,7.9031,7.8612,7.8287,7.8287,7.8287,7.8287,7.8287,7.8731,7.9184,7.9665,8.0113,8.0596,8.1071,8.1093,8.1093,8.1093,8.1093,8.1093,8.1093,8.1093,8.1093,8.1093,8.1093,8.1093,8.1093,8.1093,8.1093,5.9753,5.9168,5.8544,6.0155,5.9486,5.8484,5.8436,5.795,5.7467,5.7281,5.6724,5.6503,5.7132,5.7393,5.7984,5.9393,6.103,6.2776,6.4553,6.6785,6.8902,7.0679,7.1463,7.2257,7.3296,7.4121,7.4851,7.5508,7.6341,7.6788,7.6751,7.73,7.758,7.7544,7.7419,7.7407,7.7532,7.7366,7.7285,7.7285,7.7285,7.7285,7.7285,7.7285,7.7285,7.7285,7.7285,0.0,0.0,7.7817,7.8005,7.8287,7.8287,7.8287,7.8287,7.8287,7.8287,7.8352,7.8715,7.8835,7.8932,7.9401,7.9933,8.0487,8.0822,8.1035,8.1093,8.1093,8.1093,8.1093,8.1093,8.1093,8.1093,8.1093,8.1093,8.1093,8.1093,8.1093,8.1071,8.0959,8.0638,8.0333,8.0118,7.9489,7.8957,7.8878,7.8535,7.8287,7.8287,7.8287,7.8287,7.8287,7.8731,7.9184,7.9665,8.0113,8.0596,8.1071,8.1093,8.1093,8.1093,8.1093,8.1093,8.1093,8.1093,8.1093,8.1093,8.1093,8.1093,8.1093,8.1093,8.1093,5.9086,5.8697,5.8294,5.9414,5.9069,5.8282,5.7715,5.7541,5.7281,5.6578,5.6355,5.6318,5.6392,5.7021,5.7799,5.8653,6.0213,6.2147,6.4482,6.6305,6.8271,7.0604,7.1381,7.2368,7.3949,7.4723,7.5393,7.5999,7.6968,7.7421,7.7265,7.7482,7.7518,7.7327,7.7503,7.7488,7.7322,7.7322,7.7285,7.7285,7.7285,7.7285,7.7285,7.7285,7.7285,7.7285,7.7285,0.0,0.0,7.7817,7.8005,7.8287,7.8287,7.8287,7.8287,7.8287,7.8287,7.8294,7.8349,7.8366,7.8431,7.8913,7.9684,8.0396,8.0433,8.0763,8.1093,8.1093,8.1093,8.1093,8.1093,8.1093,8.1093,8.1093,8.1093,8.1093,8.1093,8.1093,8.0963,8.0551,8.0415,8.0113,7.9296,7.9068,7.8847,7.8444,7.8325,7.8287,7.8287,7.8287,7.8287,7.8287,7.8731,7.9184,7.9665,8.0113,8.0596,8.1071,8.1093,8.1093,8.1093,8.1093,8.1093,8.1093,8.1093,8.1093,8.1093,8.1093,8.1093,8.1093,8.1093,8.1093,5.8973,5.8667,5.8374,5.9354,5.8667,5.7683,5.7545,5.635,5.5161,5.4867,5.4015,5.3643,5.4606,5.5458,5.6424,5.7761,5.9773,6.1702,6.3148,6.5188,6.7413,6.9902,7.0665,7.1867,7.4097,7.4858,7.5687,7.6901,7.7264,7.7395,7.7285,7.7502,7.751,7.7326,7.7366,7.7366,7.7285,7.7285,7.7285,7.7285,7.7285,7.7285,7.7285,7.7285,7.7285,7.7285,7.7285,0.0,0.0,7.7817,7.8005,7.8287,7.8287,7.8287,7.8287,7.8287,7.8287,7.8287,7.8287,7.8287,7.8383,7.8866,7.9444,8.0023,8.0316,8.0735,8.1093,8.1093,8.1093,8.1093,8.1093,8.1093,8.1093,8.1093,8.1093,8.1093,8.1093,8.0889,8.0613,8.0421,7.9946,7.9447,7.9043,7.878,7.8518,7.8325,7.8287,7.8287,7.8287,7.8287,7.8287,7.8287,7.8976,7.9504,7.9686,8.038,8.0908,8.1083,8.1093,8.1093,8.1093,8.1093,8.1093,8.1093,8.1093,8.1093,8.1093,8.1093,8.1093,8.1093,8.1093,8.1093,5.8704,5.8549,5.832,5.8735,5.8068,5.7142,5.6548,5.505,5.3678,5.3195,5.2197,5.1748,5.2863,5.3935,5.5124,5.6536,5.8841,6.0922,6.2219,6.4259,6.6633,6.9382,7.0184,7.1632,7.4481,7.5444,7.6372,7.7503,7.7421,7.7285,7.7285,7.7433,7.7448,7.7285,7.7285,7.7285,7.7285,7.7285,7.7285,7.7285,7.7285,7.7285,7.7285,7.7285,7.7285,7.7285,7.7375,0.0,0.0,7.7831,7.8048,7.8287,7.8287,7.8287,7.8287,7.8287,7.8287,7.8287,7.8287,7.8287,7.8383,7.8863,7.9311,7.9789,8.0266,8.0735,8.1093,8.1093,8.1093,8.1093,8.1093,8.1093,8.1093,8.1093,8.1093,8.1065,8.0924,8.062,8.0321,8.0035,7.9464,7.8966,7.8809,7.8525,7.8287,7.8287,7.8287,7.8287,7.8287,7.8287,7.8287,7.8287,7.9019,7.9548,7.9689,8.0562,8.1093,8.1093,8.1093,8.1093,8.1093,8.1093,8.1093,8.1093,8.1093,8.1093,8.1093,8.1093,8.1093,8.1093,8.1093,8.1093,5.7992,5.8215,5.8022,5.7321,5.7215,5.6698,5.4357,5.3824,5.3343,5.1748,5.1419,5.1419,5.1416,5.2714,5.4086,5.4901,5.7093,5.9582,6.2033,6.3779,6.6039,6.9308,7.0184,7.1854,7.5259,7.6802,7.758,7.7613,7.7421,0.0,7.7285,7.7285,7.7285,7.7285,7.7285,7.7285,7.7285,7.7285,7.7285,7.7285,7.7285,7.7285,7.7285,7.7285,7.7285,0.0,0.0,0.0,0.0,7.7946,7.8106,7.8287,7.8287,7.8287,7.8287,7.8287,7.8287,7.8287,7.8287,7.8287,7.8386,7.8844,7.9317,7.9789,8.0266,8.0735,8.1093,8.1093,8.1093,8.1093,8.1093,8.1093,8.1093,8.1093,8.1093,8.0961,8.0519,8.0391,8.0113,7.9193,7.9025,7.8847,7.84,7.829,7.8287,7.8287,7.8287,7.8287,7.8287,7.8287,7.8287,7.8287,7.8718,7.921,7.9662,8.0562,8.1093,8.1093,8.1093,8.1093,8.1093,8.1093,8.1093,8.1093,8.1093,8.1093,8.1093,8.1093,8.1093,8.1093,8.1093,8.1093,5.6553,5.663,5.6583,5.6438,5.6048,5.5327,5.4097,5.2935,5.1862,5.0743,5.0077,5.004,5.1193,5.2269,5.3606,5.5572,5.7467,5.9359,6.1293,6.3442,6.5816,6.8565,7.1992,7.4404,7.5057,7.6715,7.7647,7.7421,7.7349,7.7285,7.7285,7.7285,7.7285,7.7285,7.7285,7.7285,7.7285,7.7285,7.7285,7.7285,7.7285,7.7285,7.7285,7.7285,7.7285,0.0,0.0,0.0,0.0,7.795,7.811,7.8287,7.8287,7.8287,7.8287,7.8287,7.8287,7.8287,7.8287,7.8287,7.8411,7.9211,7.9582,7.9847,8.0627,8.0969,8.1093,8.1093,8.1093,8.1093,8.1093,8.0879,8.0715,8.1037,8.0834,8.0578,8.0417,8.0166,7.9746,7.9112,7.8754,7.8471,7.8321,7.8287,7.8287,7.8287,7.8287,7.8287,7.8287,7.8287,7.8287,7.8287,7.901,7.9537,7.9689,8.0273,8.0758,8.1079,8.1093,8.1093,8.1093,8.1093,8.1093,8.1093,8.1093,8.1093,8.1093,8.1093,8.1093,8.1093,8.1093,8.1093,5.5276,5.5746,5.591,5.5686,5.507,5.4227,5.3144,5.186,5.0671,4.9814,4.9257,4.9297,5.0671,5.1823,5.3309,5.5463,5.743,5.9396,6.1367,6.3479,6.5947,6.898,7.3154,7.5583,7.5018,7.6674,7.7644,7.7345,7.7285,7.7285,7.7285,7.7285,7.7285,7.7285,7.7285,7.7285,7.7285,7.7285,7.7285,7.7285,7.7285,7.7285,7.7285,7.7285,7.7285,0.0,0.0,0.0,0.0,7.8018,7.82,7.8287,7.8287,7.8287,7.8287,7.8287,7.8287,7.8287,7.8287,7.8287,7.8441,7.9392,7.9821,8.006,8.0642,8.0953,8.1065,8.0895,8.0858,8.0788,8.0609,8.0349,8.0222,8.0515,8.0344,8.0073,7.9907,7.9643,7.9288,7.8816,7.8502,7.8287,7.8287,7.8287,7.8287,7.8287,7.8287,7.8287,7.8287,7.8287,7.8287,7.8287,7.8982,7.9506,7.9686,8.0297,8.0784,8.1081,8.1093,8.1093,8.1093,8.1093,8.1093,8.1093,8.1093,8.1093,8.1093,8.1093,8.1093,8.1093,8.1093,8.1093,0.0,5.5158,5.5682,5.4976,5.4311,5.3381,5.1788,5.078,0.0,4.9148,4.8997,4.9257,5.0184,5.1637,5.3232,5.4901,5.7167,5.9582,6.2033,6.3999,6.658,7.0407,7.3763,7.5617,7.5219,7.6762,7.7644,7.7345,7.7285,7.7285,7.7285,7.7285,7.7285,7.7285,7.7285,7.7285,7.7285,7.7285,7.7285,7.7285,7.7285,7.7285,7.7285,7.7285,7.7285,0.0,0.0,0.0,0.0,7.8161,7.8287,7.8287,7.8287,7.8287,7.8287,7.8287,7.8287,7.8287,7.8287,7.8287,7.8438,7.9352,7.9961,8.0347,8.0347,8.064,8.0914,8.049,8.0347,8.0258,7.9813,7.9675,7.9659,7.9695,7.9675,7.9532,7.9099,7.8991,7.8875,7.84,7.8287,7.8287,7.8287,7.8287,7.8287,7.8287,7.8287,7.8287,7.8287,7.8287,7.8304,7.8345,7.8773,7.9258,7.9711,8.0553,8.1067,8.1091,8.1093,8.1093,8.1093,8.1093,8.1093,8.1093,8.1093,8.1093,8.1093,8.1093,8.1093,8.1093,8.1093,8.1093,5.0157,0.0,5.3531,5.3934,5.3921,5.3381,0.0,5.1231,5.0859,5.0044,4.9852,5.0446,5.2563,5.3232,5.4272,5.6538,5.7913,5.9582,6.2033,6.5968,6.9511,7.2072,7.4404,7.5836,7.5875,7.7032,7.7644,7.7345,7.7285,7.7285,7.7285,7.7285,7.7285,7.7285,7.7285,7.7285,7.7285,7.7285,7.7285,7.7285,7.7285,7.7285,7.7285,7.7285,7.7285,0.0,0.0,0.0,7.7842,7.8161,7.8287,7.8287,7.8287,7.8287,7.8287,7.8287,7.8287,7.8287,7.8287,7.8287,7.8407,7.8969,7.9478,7.9863,7.9863,7.9938,7.9997,7.9892,7.9863,7.9839,7.973,7.9427,7.9276,7.9615,7.943,7.9122,7.9022,7.9,7.8854,7.84,7.8287,7.8287,7.8287,7.8287,7.8287,7.8287,7.8287,7.8287,7.8287,7.8287,7.8424,7.8784,7.9247,7.9727,8.021,8.0421,8.0728,8.1077,8.1093,8.1093,8.1093,8.1093,8.1093,8.1093,8.1093,8.1093,8.1093,8.1093,8.1093,8.1093,8.1093,8.1093,4.8812,5.0448,5.2231,5.3046,5.2974,5.2612,5.2278,5.177,5.1322,5.1018,5.1096,5.1783,5.349,5.4421,5.5647,5.7727,5.9359,6.1513,6.4745,6.8462,7.142,7.2966,7.5065,7.6396,7.6321,7.7238,7.7644,7.7345,7.7285,7.7285,7.7285,7.7285,7.7285,7.7285,7.7285,7.7285,7.7285,7.7285,7.7285,7.7285,7.7285,7.7285,7.7285,7.7285,7.7285,0.0,0.0,0.0,7.7842,7.8161,7.8287,7.8287,7.8287,7.8287,7.8287,7.8287,7.8287,7.8287,7.8287,7.8458,7.8647,7.8938,7.9183,7.9372,7.9372,7.9214,7.9082,7.9317,7.9381,7.9329,7.9094,7.8854,7.8744,7.9,7.8854,7.8679,7.8669,7.8673,7.8587,7.8352,7.8287,7.8287,7.8287,7.8287,7.8266,7.8193,7.8145,7.8145,7.8145,7.8119,7.8218,7.8633,7.92,7.9713,8.004,8.049,8.0815,8.1081,8.1093,8.1093,8.1093,8.1093,8.1093,8.1093,8.1093,8.1093,8.1093,8.1093,8.1093,8.1093,8.1093,8.1093,4.8368,4.9854,5.1416,5.238,5.2083,5.1839,5.2799,5.2362,5.1844,5.2059,5.2574,5.3232,5.4195,5.5647,5.7135,5.8653,6.1182,6.4299,6.8122,7.0812,7.2713,7.3616,7.5693,7.6983,7.6775,7.7374,7.7655,7.7308,7.7285,7.7285,7.7285,7.7285,7.7285,7.7285,7.7285,7.7285,7.7285,7.7285,7.7285,7.7285,7.7285,7.7285,7.7285,7.7285,7.7285,0.0,0.0,0.0,7.7842,7.8161,7.8287,7.8287,7.8287,7.8287,7.8287,7.8287,7.8287,7.8287,7.8287,7.8562,7.8872,7.8872,7.8872,7.8872,7.8872,7.8631,7.8393,7.8765,7.8895,7.879,7.8417,7.8287,7.8287,7.8287,7.8287,7.8287,7.8287,7.8287,7.8287,7.8287,7.8287,7.8287,7.8287,7.8269,7.8207,7.8036,7.7993,7.7979,7.7979,7.7863,7.7958,7.8281,7.8928,7.9413,7.9721,8.0533,8.1037,8.1089,8.1093,8.1093,8.1093,8.1093,8.1093,8.1093,8.1093,8.1093,8.1093,8.1093,8.1093,8.1093,8.1093,8.1093,4.6812,4.8554,5.0669,5.2192,5.2529,5.2471,5.2644,5.3056,5.3434,5.3495,5.4092,5.5087,5.665,5.7687,5.8653,5.9579,6.3002,6.6451,6.9125,7.1667,7.3708,7.5102,7.6197,7.7003,7.7422,7.7577,7.7531,7.7337,7.7285,7.7285,7.7285,7.7285,7.7285,7.7285,7.7285,7.7285,7.7285,7.7285,7.7285,7.7285,7.7285,7.7285,7.7285,7.7285,7.7285,0.0,0.0,7.7817,7.7842,7.8161,7.8287,7.8287,7.8287,7.8287,7.8287,7.8287,7.8287,7.8287,7.8287,7.8345,7.8417,7.8417,7.8417,7.8417,7.8417,7.8359,7.8307,7.84,7.8424,7.84,7.8311,7.8287,7.8287,7.8287,7.8287,7.8287,7.8287,7.8287,7.8287,7.8287,7.8287,7.8287,7.8287,7.8179,7.8043,7.8018,7.79,7.7816,7.7816,7.7794,7.7963,7.8403,7.8662,7.9143,7.9982,8.032,8.0696,8.1075,8.1093,8.1093,8.1093,8.1093,8.1093,8.1093,8.1093,8.1093,8.1093,8.1093,8.1093,8.1093,8.1093,8.1093,4.7084,4.8589,5.0518,5.2192,5.2935,5.3402,5.4022,5.4687,5.5187,5.5324,5.5905,5.6724,5.7913,5.8799,6.0213,6.2813,6.5562,6.824,7.0698,7.2788,7.4441,7.5475,7.6681,7.7486,7.7606,7.7613,7.7508,7.7337,7.7285,7.7285,7.7285,7.7285,7.7285,7.7285,7.7285,7.7285,7.7285,7.7285,7.7285,7.7285,7.7285,7.7285,7.7285,7.7285,7.7285,7.73,0.0,7.7817,7.7842,7.8161,7.8287,7.8287,7.8287,7.8287,7.8287,7.8287,7.8287,7.8287,7.8287,7.8287,7.8287,7.8287,7.8287,7.8287,7.8287,7.8287,7.8287,7.8287,7.8287,7.8287,7.8287,7.8287,7.8287,7.8287,7.8287,7.8287,7.8287,7.8287,7.8287,7.8287,7.8287,7.8287,7.8287,7.812,7.7986,7.79,7.7791,7.7688,7.7688,7.761,7.7695,7.8078,7.8396,7.889,7.9675,8.0129,8.0596,8.1071,8.1093,8.1093,8.1093,8.1093,8.1093,8.1093,8.1093,8.1093,8.1093,8.1093,8.1093,8.1093,8.1093,8.1093,4.7894,4.9435,5.1131,5.2517,5.3343,5.413,5.5392,5.6163,5.6702,5.7108,5.764,5.8356,5.9396,6.0547,6.2513,6.6082,6.8011,6.9874,7.2159,7.3868,7.5146,7.5809,7.7093,7.7849,7.7606,7.7579,7.7463,7.7293,7.7285,7.7285,7.7285,7.7285,7.7285,7.7285,7.7285,7.7285,7.7285,7.7285,7.7285,7.7285,7.7285,7.7285,7.7285,7.7285,7.7285,7.73,7.7636,7.7817,7.7842,7.8161,7.8287,7.8287,7.8287,7.8287,7.8287,7.8287,7.8287,7.8287,7.8287,7.8287,7.8287,7.8287,7.8287,7.8287,7.8287,7.8287,7.8287,7.8287,7.8287,7.8287,7.8287,7.8287,7.8287,7.8287,7.8287,7.8287,7.8287,7.8287,7.8287,7.8287,7.8259,7.8235,7.8235,7.8036,7.7863,7.778,7.7625,7.752,7.752,7.7402,7.7384,7.7677,7.8018,7.8565,7.9399,8.0124,8.0728,8.1077,8.1093,8.1093,8.1093,8.1093,8.1093,8.1093,8.1093,8.1093,8.1093,8.1093,8.1093,8.1093,8.1093,8.1093,4.8851,5.1053,5.3021,5.3558,5.375,5.4242,5.5869,5.6858,5.7623,5.8394,5.9191,6.021,6.1847,6.4076,6.6231,6.8048,6.9679,7.132,7.3088,7.4686,7.5963,7.6624,7.7367,7.7765,7.7595,7.7433,7.7337,7.7285,7.7285,7.7285,7.7285,7.7285,7.7285,7.7285,7.7285,7.7285,7.7285,7.7285,7.7285,7.7285,7.7285,7.7285,7.7285,7.7285,7.7285,7.73,7.7636,7.7817,7.7842,7.8161,7.8287,7.8287,7.8287,7.8287,7.8287,7.8287,7.8287,7.8287,7.8287,7.8287,7.8287,7.8287,7.8287,7.8287,7.8287,7.8287,7.8287,7.8287,7.8287,7.8287,7.8287,7.8287,7.8287,7.8287,7.8287,7.8287,7.8287,7.8287,7.8287,7.8287,7.8134,7.8032,7.8032,7.7817,7.7647,7.7635,7.7448,7.73,7.73,7.7329,7.7293,7.7316,7.7362,7.8013,7.9536,8.0533,8.1067,8.1091,8.1093,8.1093,8.1093,8.1093,8.1093,8.1093,8.1093,8.1093,8.1093,8.1093,8.1093,8.1093,8.1093,8.1093,5.0588,5.2324,5.3875,5.5315,5.6437,5.7309,5.7721,5.8396,5.9359,6.0733,6.1253,6.2107,6.4299,6.6305,6.8134,6.9728,7.1385,7.2849,7.3984,7.5561,7.6637,7.6679,7.7336,7.7714,7.7444,7.7356,7.7285,7.7285,7.7285,7.7285,7.7285,7.7285,7.7285,7.7285,7.7285,7.7285,7.7285,7.7285,7.7285,7.7285,7.7285,7.7285,7.7285,7.7285,7.7285,7.7297,7.7569,7.7725,7.7835,7.8018,7.82,7.8287,7.8287,7.8287,7.8287,7.8287,7.8287,7.8287,7.8287,7.8287,7.8287,7.8287,7.8287,7.8287,7.8287,7.8287,7.8287,7.8287,7.8287,7.8287,7.8287,7.8287,7.8287,7.8287,7.8287,7.8287,7.8287,7.8287,7.8259,7.8124,7.8138,7.8136,7.7903,7.7806,7.7695,7.7628,7.7433,7.7285,7.7285,7.7285,7.7285,7.7285,7.7508,7.7927,7.8742,8.0201,8.1093,8.1093,8.1093,8.1093,8.1093,8.1093,8.1093,8.1093,8.1093,8.1093,8.1093,8.1093,8.1093,8.1093,8.1093,8.1093,5.1802,5.3443,5.4851,5.6902,5.8545,5.9771,6.017,6.0553,6.1286,6.2844,6.3779,6.4936,6.6895,6.8558,7.0013,7.1141,7.2693,7.4064,7.4886,7.6186,7.7069,7.7003,7.7444,7.7651,7.7316,7.7285,7.7285,7.7285,7.7285,7.7285,7.7285,7.7285,7.7285,7.7285,7.7285,7.7285,7.7285,7.7285,7.7285,7.7285,7.7285,7.7285,7.7285,7.7285,7.7285,7.7293,7.7557,7.7714,7.7835,7.8007,7.8193,7.8287,7.8287,7.8287,7.8287,7.8287,7.8287,7.8287,7.8287,7.8287,7.8287,7.8287,7.8287,7.8287,7.8287,7.8287,7.8287,7.8287,7.8287,7.8287,7.8287,7.8287,7.8287,7.8287,7.8287,7.8287,7.8287,7.8287,7.8259,7.811,7.8138,7.8143,7.7915,7.7817,7.771,7.7524,7.7398,7.7285,7.7285,7.7285,7.7285,7.7285,7.7677,7.8055,7.8273,8.002,8.1093,8.1093,8.1093,8.1093,8.1093,8.1093,8.1093,8.1093,8.1093,8.1093,8.1093,8.1093,8.1093,8.1093,8.1093,8.1093,5.2211,5.4263,5.6105,5.8211,5.9617,6.1079,6.3136,6.3251,6.3258,6.4581,6.6782,6.8775,6.9594,7.1067,7.2207,7.2208,7.3566,7.49,7.5689,7.6557,7.7268,7.7746,7.7817,7.7651,7.7316,7.7285,7.7285,7.7285,7.7285,7.7285,7.7285,7.7285,7.7285,7.7285,7.7285,7.7285,7.7285,7.7285,7.7285,7.7285,7.7285,7.7285,7.7285,7.7285,7.7285,7.73,7.7636,7.7817,7.7842,7.8161,7.8287,7.8287,7.8287,7.8287,7.8287,7.8287,7.8287,7.8287,7.8287,7.8287,7.8287,7.8287,7.8287,7.8287,7.8287,7.8287,7.8287,7.8287,7.8287,7.8287,7.8287,7.8287,7.8287,7.8287,7.8287,7.8287,7.8287,7.8287,7.8287,7.8287,7.8124,7.8,7.7998,7.782,7.7602,7.7356,7.7285,7.7285,7.7285,7.7285,7.7285,7.7285,7.7908,7.828,7.828,8.0002,8.1079,8.1093,8.1093,8.1093,8.1093,8.1093,8.1093,8.1093,8.1093,8.1093,8.1093,8.1093,8.1093,8.1093,8.1093,8.1093,5.3375,5.5155,5.6704,5.9324,6.1076,6.2591,6.4106,6.3888,6.4173,6.6852,6.8895,7.045,7.1315,7.1851,7.2576,7.3712,7.4771,7.5756,7.66,7.7297,7.7755,7.7802,7.7718,7.7565,7.7304,7.7285,7.7285,7.7285,7.7285,7.7285,7.7285,7.7285,7.7285,7.7285,7.7285,7.7285,7.7285,7.7285,7.7285,7.7285,7.7285,7.7285,7.7285,7.7285,7.7285,7.7293,7.7554,7.771,7.7842,7.8161,7.8287,7.8287,7.8287,7.8287,7.8287,7.8287,7.8287,7.8287,7.8287,7.8287,7.8287,7.8287,7.8287,7.8287,7.8287,7.8287,7.8287,7.8287,7.8287,7.8287,7.8287,7.8287,7.8287,7.8287,7.8287,7.8287,7.8287,7.8287,7.8287,7.8287,7.8252,7.8147,7.7911,7.7817,7.7673,7.7368,7.7285,7.7285,7.7285,7.7285,7.7285,7.7285,7.7464,7.7617,7.7617,7.8523,7.9708,8.1033,8.1093,8.1093,8.1093,8.1093,8.1093,8.1093,8.1093,8.1093,8.1093,8.1093,8.1093,8.1093,8.1093,8.1093,5.3547,5.5563,5.7498,6.0503,6.2219,6.3731,6.5795,6.6148,6.6754,6.9403,7.0735,7.1764,7.2929,7.3138,7.3571,7.4862,7.578,7.6506,7.7032,7.7605,7.7939,7.7835,7.7677,7.7512,7.73,7.7285,7.7285,7.7285,7.7285,7.7285,7.7285,7.7285,7.7285,7.7285,7.7285,7.7285,7.7285,7.7285,7.7285,7.7285,7.7285,7.7285,7.7285,7.7285,7.7285,7.7297,7.7572,7.7762,7.7896,7.8186,7.8287,7.8287,7.8287,7.8287,7.8287,7.8287,7.8287,7.8287,7.8287,7.8287,7.8287,7.8287,7.8287,7.8287,7.8287,7.8287,7.8287,7.8287,7.8287,7.8287,7.8287,7.8287,7.8287,7.8287,7.8287,7.8287,7.8287,7.8287,7.8287,7.8287,7.8287,7.8231,7.8037,7.8008,7.7853,7.7354,7.7285,7.7285,7.7285,7.7285,7.7285,7.7285,7.7285,7.7285,7.7285,7.7926,7.9088,8.0969,8.1093,8.1093,8.1093,8.1093,8.1093,8.1093,8.1093,8.1093,8.1093,8.1093,8.1093,8.1093,8.1093,8.1093,5.3079,5.5637,5.8284,6.159,6.3219,6.4882,6.7996,6.935,7.0366,7.1894,7.2309,7.2883,7.4325,7.4663,7.4963,7.5789,7.6562,7.7136,7.7217,7.7654,7.7937,7.7794,7.7662,7.7493,7.7337,7.7285,7.7285,7.7285,7.7285,7.7285,7.7285,7.7285,7.7285,7.7285,7.7285,7.7285,7.7285,7.7285,7.7285,7.7285,7.7285,7.7285,7.7285,7.7285,7.7329,7.7323,7.7644,7.7871,7.8028,7.8224,7.8287,7.8287,7.8287,7.8287,7.8287,7.8287,7.8287,7.8287,7.8287,7.8287,7.8287,7.8287,7.8287,7.8287,7.8287,7.8287,7.8287,7.8287,7.8287,7.8287,7.8287,7.8287,7.8287,7.8287,7.8287,7.8287,7.8287,7.8287,7.8287,7.8287,7.8287,7.8273,7.8214,7.8203,7.8012,7.7377,7.7285,7.7285,7.7285,7.7285,7.7285,7.7285,7.7285,7.7285,7.7285,7.7926,7.9044,8.0745,8.1025,8.1093,8.1093,8.1093,8.1093,8.1093,8.1093,8.1093,8.1093,8.1093,8.1093,8.1093,8.1093,8.1093,5.3382,5.5797,5.8284,6.159,6.4931,6.7942,6.9933,7.106,7.1745,7.2117,7.3212,7.4194,7.4525,7.5123,7.5827,7.6697,7.6974,7.7302,7.7958,7.7919,7.7846,7.7783,7.7557,7.736,7.7285,7.7285,7.7285,7.7285,7.7285,7.7285,7.7285,7.7285,7.7285,7.7285,7.7285,7.7285,7.7285,7.7285,7.7285,0.0,7.7285,7.7285,7.7285,7.7285,7.7395,7.7535,7.7732,7.7871,7.8028,7.8224,7.8287,7.8287,7.8287,7.8287,7.8287,7.8287,7.8287,7.8287,7.8287,7.8287,7.8287,7.8287,7.8287,7.8287,7.8287,7.8287,7.8287,7.8287,7.8287,7.8287,7.8287,7.8287,7.8287,7.8287,7.8287,7.8287,7.8287,7.8287,7.8287,7.8287,7.8287,7.8133,7.7592,7.7539,7.7453,7.7304,7.7285,7.7285,7.7285,7.7285,7.7285,7.7285,7.7285,7.7285,7.7285,7.7926,7.8465,7.8872,8.0297,8.1093,8.1093,8.1093,8.1093,8.1093,8.1093,8.1093,8.1093,8.1093,8.1093,8.1093,8.1093,8.1093,5.3474,5.5858,5.847,6.2553,6.6339,6.9382,7.0604,7.1856,7.2893,7.3284,7.4039,7.4848,7.5662,7.613,7.6687,7.7545,7.7671,7.7809,7.8108,7.7932,7.7791,7.771,7.7478,7.7285,7.7285,7.7285,7.7285,7.7285,7.7285,7.7285,7.7285,7.7285,7.7285,7.7285,7.7285,7.7285,7.7285,7.7285,7.7285,7.7285,7.7285,7.7285,7.7285,7.7285,7.7368,7.7467,7.7714,7.7827,7.7921,7.8193,7.8287,7.8287,7.8287,7.8287,7.8287,7.8287,7.8287,7.8287,7.8287,7.8287,7.8287,7.8287,7.8287,7.8287,7.8287,7.8287,7.8287,7.8287,7.8287,7.8287,7.8287,7.8287,7.8287,7.8287,7.8287,7.8287,7.8287,7.8287,7.8287,7.8287,7.8287,7.809,7.7436,7.7285,7.7285,7.7285,7.7285,7.7285,7.7285,7.7285,7.7285,7.7285,7.7285,7.7285,7.7285,7.7926,7.8287,7.8287,8.0058,8.1093,8.1093,8.1093,8.1093,8.1093,8.1093,8.1093,8.1093,8.1093,8.1093,8.1093,8.1093,8.1093,5.3214,5.6069,5.9262,6.3719,6.7265,6.9902,7.0716,7.2184,7.3664,7.4616,7.4808,7.5294,7.6832,7.7217,7.7545,7.8202,7.8266,7.82,7.8032,7.7856,7.7729,7.7595,7.7425,7.7285,7.7285,7.7285,7.7285,7.7285,7.7285,7.7285,7.7285,7.7285,7.7285,7.7285,7.7285,7.7285,7.7285,7.7285,7.7285,7.7285,7.7285,7.7285,7.7285,7.7285,7.7285,7.73,7.7636,7.7817,7.7842,7.8161,7.8287,7.8287,7.8287,7.8287,7.8287,7.8287,7.8287,7.8287,7.8287,7.8287,7.8287,7.8287,7.8287,7.8287,7.8287,7.8287,7.8287,7.8287,7.8287,7.8287,7.8287,7.8287,7.8287,7.8287,7.8287,7.8287,7.8287,7.8287,7.8287,7.8287,7.8203,7.7962,7.7381,7.7285,7.7285,7.7285,7.7285,7.7285,7.7285,7.7285,7.7285,7.7285,7.7285,7.7285,7.7285,7.7926,7.8287,7.8287,8.0058,8.1093,8.1093,8.1093,8.1093,8.1093,8.1093,8.1093,8.1093,8.1093,8.1093,8.1093,8.1093,8.1093,5.2188,5.6881,6.1676,6.4158,6.7265,6.9902,7.0716,7.2184,7.3825,7.5348,7.5655,7.593,7.6933,7.7671,7.8165,7.8287,7.8138,7.8039,7.8018,7.7762,7.7602,7.7617,7.7425,7.7285,7.7285,7.7285,7.7285,7.7285,7.7285,7.7285,7.7285,7.7285,7.7285,7.7285,7.7285,7.7285,7.7285,7.7285,7.7285,7.7285,7.7285,7.7285,7.7285,7.7285,7.7285,7.73,7.7636,7.7817,7.7842,7.8161,7.8287,7.8287,7.8287,7.8287,7.8287,7.8287,7.8287,7.8287,7.8287,7.8287,7.8287,7.8287,7.8287,7.8287,7.8287,7.8287,7.8287,7.8287,7.8287,7.8287,7.8287,7.8287,7.8287,7.8287,7.8287,7.8287,7.8287,7.8287,7.8287,7.8287,7.785,7.7425,7.7337,7.7285,7.7285,7.7285,7.7285,7.7285,7.7285,7.7285,7.7285,7.7285,7.7285,7.7285,7.7285,7.7926,7.8287,7.8287,8.0058,8.1093,8.1093,8.1093,8.1093,8.1093,8.1093,8.1093,8.1093,8.1093,8.1093,8.1093,8.1093,8.1093,5.3292,5.7199,6.0775,6.2913,6.5596,6.8141,6.9855,7.1504,7.3305,7.5386,7.5791,7.6189,7.7526,7.8043,7.8287,7.8287,7.812,7.7982,7.7896,7.7725,7.7579,7.7448,7.7368,7.7285,7.7285,7.7285,7.7285,7.7285,7.7285,7.7285,7.7285,7.7285,7.7285,7.7285,7.7285,7.7285,7.7285,7.7285,7.7285,7.7285,7.7285,7.7285,7.7285,7.7285,7.7285,7.7297,7.758,7.7736,7.7835,7.8028,7.8207,7.8287,7.8287,7.8287,7.8287,7.8287,7.8287,7.8287,7.8287,7.8287,7.8287,7.8287,7.8287,7.8287,7.8287,7.8287,7.8287,7.8287,7.8287,7.8287,7.8287,7.8287,7.8287,7.8287,7.8287,7.8287,7.8287,7.8287,7.8186,7.7794,7.7487,7.7285,7.7285,7.7285,7.7285,7.7285,7.7285,7.7285,7.7285,7.7285,7.7285,7.7285,7.7285,7.7285,7.7285,7.7926,7.876,7.9815,8.0633,8.1093,8.1093,8.1093,8.1093,8.1093,8.1093,8.1093,8.1093,8.1093,8.1093,8.1093,8.1093,8.1093,5.3741,5.6691,5.9201,6.1354,6.3858,6.6356,6.8566,7.052,7.2515,7.4738,7.5355,7.602,7.7696,7.8179,7.8276,7.8235,7.806,7.79,7.778,7.7617,7.7463,7.7337,7.7285,7.7285,7.7285,7.7285,7.7285,7.7285,7.7285,7.7285,7.7285,7.7285,7.7285,7.7285,7.7285,7.7285,7.7285,7.7285,7.7285,7.7285,7.7285,7.7285,7.7285,7.7285,7.7285,7.7293,7.7505,7.7647,7.7773,7.7936,7.8085,7.8231,7.8273,7.8287,7.8287,7.8287,7.8262,7.8228,7.8228,7.8203,7.8168,7.8168,7.8168,7.8168,7.8168,7.8189,7.8224,7.8276,7.8287,7.8287,7.8287,7.8287,7.8287,7.8287,7.8287,7.8287,7.8287,7.8287,7.8105,7.7415,7.7285,7.7285,7.7285,7.7285,7.7285,7.7285,7.7285,7.7285,7.7285,7.7285,7.7285,7.7285,7.7285,7.7285,7.7285,7.7926,7.9088,8.0969,8.1093,8.1093,8.1093,8.1093,8.1093,8.1093,8.1093,8.1093,8.1093,8.1093,8.1093,8.1093,8.1093,8.1093,5.221,5.5038,5.7834,5.9954,6.2681,6.5333,6.7039,6.9267,7.1465,7.3156,7.4125,7.5169,7.6841,7.7807,7.8238,7.8053,7.7896,7.7773,7.7614,7.744,7.7293,7.7285,7.7285,7.7285,7.7285,7.7285,7.7285,7.7285,7.7285,7.7285,7.7285,7.7285,7.7285,7.7285,7.7285,7.7285,7.7285,7.7285,7.7285,7.7285,7.7285,7.7285,7.7285,7.7285,7.7285,7.7293,7.7505,7.7617,7.7614,7.7889,7.8018,7.8039,7.8231,7.8287,7.8287,7.8287,7.8193,7.8028,7.8028,7.7932,7.7842,7.7842,7.7842,7.7842,7.7842,7.7919,7.8048,7.8238,7.8287,7.8287,7.8287,7.8287,7.8287,7.8287,7.8287,7.8287,7.8287,7.8287,7.8105,7.7415,7.7285,7.7285,7.7285,7.7285,7.7285,7.7285,7.7285,7.7285,7.7285,7.7285,7.7285,7.7285,7.7285,7.7285,7.7285,7.7926,7.9088,8.0969,8.1093,8.1093,8.1093,8.1093,8.1093,8.1093,8.1093,8.1093,8.1093,8.1093,8.1093,8.1093,8.1093,8.1093,5.1256,5.3433,5.5665,5.8158,6.0419,6.2641,6.5137,6.7193,6.9354,7.2082,7.3274,7.45,7.6692,7.7324,7.7644,7.7965,7.7885,7.7762,7.7602,7.7433,7.7285,7.7285,7.7285,7.7285,7.7285,7.7285,7.7285,7.7285,7.7285,7.7285,7.7285,7.7285,7.7285,7.7285,7.7285,7.7285,7.7285,7.7285,7.7285,7.7285,7.7285,7.7285,7.7285,7.7285,7.7285,7.7285,7.7387,7.7474,7.7624,7.7699,7.7773,7.7871,7.7965,7.7987,7.7987,7.7987,7.7918,7.7863,7.7863,7.7827,7.7817,7.7817,7.7817,7.7817,7.7817,7.7846,7.7893,7.7969,7.7805,7.7677,7.7677,7.7677,7.7787,7.8193,7.8287,7.8287,7.8287,7.7973,7.7606,7.7368,7.7285,7.7285,7.7285,7.7285,7.7285,7.7285,7.7285,7.7285,7.7285,7.7285,7.7285,7.7285,7.7285,7.7285,7.7285,7.7506,7.8518,8.058,8.0971,8.1093,8.1093,8.1093,8.1093,8.1093,8.1093,8.1093,8.1093,8.1093,8.1093,8.1093,8.1093,8.1093,5.0183,5.199,5.3955,5.6583,5.8543,6.0498,6.3023,6.5079,6.7237,6.9998,7.141,7.2933,7.5392,7.5875,7.6327,7.7709,7.7805,7.7681,7.7516,7.7395,7.7285,7.7285,7.7285,7.7285,7.7285,7.7285,7.7285,7.7285,0.0,0.0,7.7285,7.7285,7.7285,7.7285,7.7285,7.7285,7.7285,7.7285,7.7285,7.7285,7.7285,7.7285,7.7285,7.7285,7.7285,7.7285,7.7285,7.7387,7.7497,7.7554,7.764,7.7743,7.7795,7.7817,7.7817,7.7817,7.7784,7.774,7.774,7.7699,7.7618,7.7618,7.7618,7.7618,7.7618,7.7618,7.7618,7.7618,7.7457,7.7285,7.7285,7.7285,7.7396,7.7871,7.8136,7.8287,7.8287,7.7754,7.7285,7.7285,7.7285,7.7285,7.7285,7.7285,7.7285,7.7285,7.7285,7.7285,7.7285,7.7285,7.7285,7.7285,7.7285,7.7285,7.7285,7.7285,7.8207,8.0366,8.0862,8.1093,8.1093,8.1093,8.1093,8.1093,8.1093,8.1093,8.1093,8.1093,8.1093,8.1093,8.1093,8.1093,0.0,0.0,0.0,5.5276,5.7288,5.904,6.0741,6.2962,6.5188,6.6862,6.8493,7.0354,7.2862,7.3308,7.4283,7.724,7.7611,7.7487,7.7308,7.7285,7.7285,7.7285,7.7285,7.7285,7.7285,7.7285,7.7285,7.7285,7.7285,7.7285,7.7285,7.7285,7.7285,7.7285,7.7285,7.7285,7.7285,7.7285,7.7285,7.7285,7.7285,7.7285,7.7285,7.7285,7.7285,7.7285,7.7285,7.7285,7.7337,7.7501,7.7605,7.7584,7.774,7.7802,7.7802,7.7802,7.7703,7.7605,7.7605,7.7459,7.7285,7.7285,7.7285,7.7285,7.7285,7.7285,7.7285,7.7285,7.7285,7.7285,7.7285,7.7285,7.7285,7.7285,7.7813,7.8266,7.8287,7.7754,7.7329,7.7345,7.7297,7.7285,7.7285,7.7285,7.7285,7.7285,7.7285,7.7285,7.7285,7.7285,7.7285,7.7285,7.7285,7.7285,7.7285,7.7285,7.8173,8.026,8.0839,8.1093,8.1093,8.1093,8.1093,8.1093,8.1093,8.1093,8.1093,8.1093,8.1093,8.1093,8.1093,8.1093,4.8008,0.0,0.0,0.0,0.0,0.0,5.8943,6.0847,6.2813,6.5039,6.6342,6.8014,7.1022,7.1503,7.2263,7.4772,7.6149,7.6766,7.6457,7.6922,7.7285,7.7285,7.7285,7.7285,7.7285,7.7285,7.7285,0.0,7.7285,7.7285,7.7285,7.7285,7.7285,7.7285,7.7285,7.7285,7.7285,7.7285,7.7285,7.7285,7.7285,7.7285,7.7285,7.7285,7.7285,7.7285,7.7285,7.7285,7.7285,7.7372,7.7391,7.7398,7.7407,7.7422,7.7422,7.7422,7.7396,7.7391,7.7391,7.736,7.7285,7.7285,7.7285,7.7285,7.7285,7.7285,7.7285,7.7285,7.7285,7.7285,7.7285,7.7285,7.7285,7.7285,7.7426,7.7692,7.8193,7.7754,7.7426,7.794,7.7618,7.7285,7.7285,7.7285,7.7285,7.7285,7.7285,7.7285,7.7285,7.7285,7.7285,7.7285,7.7285,7.7285,7.7285,7.7285,7.7555,7.8166,8.0037,8.1093,8.1093,8.1093,8.1093,8.1093,8.1093,8.1093,8.1093,8.1093,8.1093,8.1093,8.1093,8.1093,4.8279,4.8961,4.9933,5.2334,0.0,0.0,5.6774,5.8727,6.0659,6.2402,6.3665,6.5395,6.8336,6.8723,6.9281,7.133,7.2964,7.4349,7.5462,7.6008,7.6404,7.6775,7.6816,7.6922,7.7281,7.7285,7.7285,7.7285,7.7285,7.7285,7.7285,7.7285,7.7285,7.7285,7.7285,7.7285,7.7285,7.7285,7.7285,7.7285,7.7285,7.7285,7.7285,7.7285,7.7285,7.7285,7.7285,7.7285,7.7285,7.7285,7.7285,7.7285,7.7285,7.7285,7.7285,7.7285,7.7285,7.7285,7.7285,7.7285,7.7285,7.7285,7.7285,7.7285,7.7285,7.7285,7.7285,7.7285,7.7285,7.7285,7.7285,7.7285,7.7285,7.7285,7.7285,7.7392,7.7817,7.7599,7.7436,7.7824,7.7554,7.7285,7.7285,7.7285,7.7285,7.7285,7.7285,7.7285,7.7285,7.7285,7.7285,7.7285,7.7285,7.7285,7.7285,7.7285,7.7285,7.7285,7.8961,8.0292,8.1069,8.1093,8.1093,8.1093,8.1093,8.1093,8.1093,8.1093,8.1093,8.1093,8.1093,8.1093,4.9242,4.9559,5.0028,5.1656,5.2828,0.0,5.4676,5.6647,5.8541,5.9467,6.0803,6.2584,6.5102,6.5437,6.5838,6.7424,6.8778,7.0764,7.3905,7.4503,7.4948,7.5726,7.5836,7.6163,7.6955,7.7028,7.7065,7.7175,7.7248,7.7285,7.7285,7.7285,7.7285,7.7285,7.7285,7.7285,7.7285,7.7285,7.7285,7.7285,7.7285,7.7285,7.7285,7.7285,7.7285,7.7285,7.7285,7.7285,7.7285,7.7285,7.7285,7.7285,7.7285,7.7285,7.7285,7.7285,7.7285,7.7285,7.7285,7.7285,7.7285,7.7285,7.7285,7.7285,7.7285,7.7285,7.7285,7.7285,7.7285,7.7285,7.7285,7.7285,7.7285,7.7285,7.7285,7.7285,7.7285,7.7285,7.7285,7.7285,7.7285,7.7285,7.7285,7.7285,7.7285,7.7285,7.7285,7.7285,7.7285,7.7285,7.7285,7.7285,7.7285,7.7285,7.7285,7.7285,7.7285,7.7285,7.8092,7.9305,8.1041,8.1093,8.1093,8.1093,8.1093,8.1093,8.1093,8.1093,8.1093,8.1093,8.1093,8.1093,4.9795,4.9425,4.9132,5.0801,5.1566,0.0,5.3713,5.4901,5.6164,5.765,5.8712,5.9966,6.1808,6.2628,6.3499,6.4887,6.5343,6.6822,7.0512,7.2162,7.3263,7.4081,7.4151,7.4478,7.5274,7.538,7.5641,7.6273,7.6922,7.7285,7.7285,7.7285,7.7285,7.7285,7.7285,7.7285,7.7285,7.7285,7.7285,7.7285,7.7285,7.7285,7.7285,7.7285,7.7285,7.7285,7.7285,7.7285,7.7285,7.7285,7.7285,7.7285,7.7285,7.7285,7.7285,7.7285,7.7285,7.7285,7.7285,7.7285,7.7285,7.7285,7.7285,7.7285,7.7285,7.7285,7.7285,7.7285,7.7285,7.7285,7.7285,7.7285,7.7285,7.7285,7.7285,7.7285,7.7285,7.7285,7.7285,7.7285,7.7285,7.7285,7.7285,7.7285,7.7285,7.7285,7.7285,7.7285,7.7285,7.7285,7.7285,7.7285,7.7285,7.7285,7.7285,7.7285,7.7285,7.7285,7.9039,8.0366,8.1071,8.1093,8.1093,8.1093,8.1093,8.1093,8.1093,8.1093,8.1093,8.1093,8.1093,8.1093,5.1749,5.072,4.9738,5.0574,5.0769,0.0,0.0,5.2898,5.4158,5.5387,5.627,5.744,5.9574,6.0155,6.0813,6.2432,6.2871,6.3717,6.5665,6.8021,7.011,7.1695,7.1915,7.2386,7.359,7.37,7.4034,7.4849,7.5645,7.6114,7.6114,7.6481,7.6705,7.6705,7.7105,7.7285,7.7285,7.7285,7.7285,7.7285,7.7285,7.7285,7.7285,7.7285,7.7285,7.7285,7.7285,7.7285,7.7285,7.7285,7.7285,7.7285,7.7285,7.7285,7.7285,7.7285,7.7285,7.7285,7.7285,7.7285,7.7285,7.7285,7.7285,7.7285,7.7285,7.7285,7.7285,7.7285,7.7285,7.7285,7.7285,7.7285,7.7285,7.7285,7.7285,7.7285,7.7285,7.7285,7.7285,7.7285,7.7285,7.7285,7.7285,7.7285,7.7285,7.7285,7.7285,7.7285,7.7285,7.7285,7.7285,7.7285,7.7285,7.7285,7.7285,7.7285,7.7757,7.8813,8.0088,8.0875,8.1085,8.1093,8.1093,8.1093,8.1093,8.1093,8.1093,8.1093,8.1093,8.1093,8.1093,8.1093,5.3894,5.2514,5.1043,5.1043,5.0712,5.0332,0.0,0.0,0.0,5.3195,5.4054,5.532,5.7375,5.7788,5.8128,5.915,5.9978,6.0414,6.0194,6.287,6.5928,6.8825,6.9049,6.9639,7.1394,7.1872,7.2426,7.338,7.4217,7.4727,7.4903,7.5649,7.6093,7.6093,7.6885,7.7285,7.7285,7.7285,7.7285,7.7285,7.7285,7.7285,7.7285,7.7285,7.7285,7.7285,7.7285,7.7285,7.7285,7.7285,7.7285,7.7285,7.7285,7.7285,7.7285,7.7285,7.7285,7.7285,7.7285,7.7285,7.7285,7.7285,7.7285,7.7285,7.7285,7.7285,7.7285,7.7285,7.7285,7.7285,7.7285,7.7285,7.7285,7.7285,7.7285,7.7285,7.7285,7.7285,7.7285,7.7285,7.7285,7.7285,7.7285,7.7285,7.7285,7.7285,7.7285,7.7285,7.7285,7.7285,7.7285,7.7285,7.7285,7.7285,7.7285,7.7666,7.8674,8.0388,8.0862,8.1093,8.1093,8.1093,8.1093,8.1093,8.1093,8.1093,8.1093,8.1093,8.1093,8.1093,8.1093,8.1093,5.5279,5.4027,5.273,5.273,5.1986,5.1268,5.1268,0.0,5.1565,5.1639,0.0,5.3995,5.4307,0.0,0.0,5.3617,5.5067,5.5929,5.4389,5.694,6.0679,6.5295,6.5231,6.5678,0.0,6.9529,7.0991,7.2532,7.338,7.4147,7.487,7.5649,7.6093,7.6093,7.6885,7.7285,7.7285,7.7285,7.7285,7.7285,7.7285,7.7285,7.7285,7.7285,7.7285,7.7285,7.7285,7.7285,7.7285,7.7285,7.7285,7.7285,7.7285,7.7285,7.7285,7.7285,7.7285,7.7285,7.7285,7.7285,7.7285,7.7285,7.7285,7.7285,7.7285,7.7285,7.7285,7.7285,7.7285,7.7285,7.7285,7.7285,7.7285,7.7285,7.7285,7.7285,7.7285,7.7285,7.7285,7.7285,7.7285,7.7285,7.7285,7.7285,7.7285,7.7285,7.7285,7.7285,7.7285,7.7285,7.7285,7.7285,7.7285,7.7285,7.7285,7.9025,8.0233,8.0497,8.0862,8.1093,8.1093,8.1093,8.1093,8.1093,8.1093,8.1093,8.1093,8.1093,8.1093,8.1093,8.1093,8.1093,5.7478,5.6142,5.4692,5.3727,5.2755,5.1971,5.1528,5.1047,5.0824,5.1305,0.0,0.0,0.0,0.0,0.0,0.0,5.3795,5.4044,5.3406,5.4408,5.7036,6.1881,6.2585,0.0,0.0,0.0,0.0,0.0,7.1321,7.2448,7.2775,7.4467,7.5388,7.5388,7.6628,7.7285,7.7285,7.7285,7.7285,7.7285,7.7285,7.7285,7.7285,7.7285,7.7285,7.7285,7.7285,7.7285,7.7285,7.7285,7.7285,7.7285,7.7285,7.7285,7.7285,7.7285,7.7285,7.7285,7.7285,7.7285,7.7285,7.7285,7.7285,7.7285,7.7285,7.7285,7.7285,7.7285,7.7285,7.7285,7.7285,7.7285,7.7285,7.7285,7.7285,7.7285,7.7285,7.7285,7.7285,7.7285,7.7285,7.7285,7.7285,7.7285,7.7285,7.7285,7.7285,7.7285,7.7285,7.7285,7.7285,7.7285,7.7285,7.7285,7.7285,7.9277,8.0508,8.0508,8.0862,8.1093,8.1093,8.1093,8.1093,8.1093,8.1093,8.1093,8.1093,8.1093,8.1093,8.1093,8.1093,8.1093,5.9879,5.8358,5.6687,5.5458,5.4384,5.3383,5.2566,5.1751,5.1307,5.1639,5.104,0.0,0.0,0.0,5.1959,5.1974,0.0,5.2008,5.1413,5.2036,5.4171,5.8544,6.0196,0.0,0.0,0.0,0.0,0.0,0.0,7.0613,7.1267,7.3366,7.4687,7.4903,7.6478,7.7285,7.7285,7.7285,7.7285,7.7285,7.7285,7.7285,7.7285,7.7285,7.7285,7.7285,7.7285,7.7285,7.7285,7.7285,7.7285,7.7285,7.7285,7.7285,7.7285,7.7285,7.7285,7.7285,7.7285,7.7285,7.7285,7.7285,7.7285,7.7285,7.7285,7.7285,7.7285,7.7285,7.7285,7.7285,7.7285,7.7285,7.7285,7.7285,7.7285,7.7285,7.7285,7.7285,7.7285,7.7285,7.7285,7.7285,7.7285,7.7285,7.7285,7.7285,7.7285,7.7285,7.7285,7.7285,7.7285,7.7285,7.7285,7.7285,7.7285,7.8747,7.991,8.0634,8.0957,8.1093,8.1093,8.1093,8.1093,8.1093,8.1093,8.1093,8.1093,8.1093,8.1093,8.1093,8.1093,8.1093,6.2296,6.0473,5.8616,5.8541,5.7355,5.5946,5.5087,5.4272,5.3455,5.2714,5.1936,5.1379,5.1416,5.1252,5.0341,4.7989,4.8782,0.0,0.0,4.8859,5.2087,5.5365,5.7844,5.9303,0.0,6.1505,0.0,0.0,6.733,0.0,7.1197,7.2863,7.4114,7.487,7.6478,7.7285,7.7285,7.7285,7.7285,7.7285,7.7285,7.7285,7.7285,7.7285,7.7285,7.7285,7.7285,7.7285,7.7285,7.7285,7.7285,7.7285,7.7285,7.7285,7.7285,7.7285,7.7285,7.7285,7.7285,7.7285,7.7285,7.7285,7.7285,7.7285,7.7285,7.7285,7.7285,7.7285,7.7285,7.7285,7.7285,7.7285,7.7285,7.7285,7.7285,7.7285,7.7285,7.7285,7.7285,7.7285,7.7285,7.7285,7.7285,7.7285,7.7285,7.7285,7.7285,7.7285,7.7285,7.7285,7.7285,7.7285,7.7285,7.7285,7.7285,7.7362,7.8447,8.0932,8.1087,8.1093,8.1093,8.1093,8.1093,8.1093,8.1093,8.1093,8.1093,8.1093,8.1093,8.1093,8.1093,8.1093,0.0,0.0,6.155,5.9913,5.869,5.7541,5.6167,5.5198,5.453,5.4233,5.3123,5.2173,5.2061,5.1104,5.0,4.9073,4.8357,4.7636,0.0,4.7633,4.8773,4.984,5.355,5.6446,5.7508,5.9303,0.0,6.3863,6.5815,0.0,0.0,7.1435,7.3043,7.3296,7.5388,7.6526,7.6526,7.7032,7.7285,7.7285,7.7285,7.7285,7.7285,7.7285,7.7285,7.7285,7.7285,7.7285,7.7285,7.7285,7.7285,7.7285,7.7285,7.7285,7.7285,7.7285,7.7285,7.7285,7.7285,7.7285,7.7285,7.7285,7.7285,7.7285,7.7285,7.7285,7.7285,7.7285,7.7285,7.7285,7.7285,7.7285,7.7285,7.7285,7.7285,7.7285,7.7285,7.7285,7.7285,7.7285,7.7285,7.7285,7.7285,7.7285,7.7285,7.7285,7.7285,7.7285,7.7285,7.7285,7.7285,7.7285,7.7285,7.7285,7.7285,7.8616,7.9887,8.1041,8.1093,8.1093,8.1093,8.1093,8.1093,8.1093,8.1093,8.1093,8.1093,8.1093,8.1093,8.1093,8.1093,8.1093,6.7159,6.5748,0.0,6.177,6.0619,0.0,5.8321,5.7132,5.63,5.626,5.4734,5.3367,5.325,5.1831,5.0565,5.0193,4.8657,4.7337,0.0,4.642,4.6344,4.6643,5.0503,5.3626,5.4947,5.707,5.923,6.1358,6.3787,6.5815,0.0,0.0,7.1905,7.2492,7.4841,7.6093,7.6093,7.6889,7.7285,7.7285,7.7285,7.7285,7.7285,7.7285,7.7285,7.7285,7.7285,7.7285,7.7285,7.7285,7.7285,7.7285,7.7285,7.7285,7.7285,7.7285,7.7285,7.7285,7.7285,7.7285,7.7285,7.7285,7.7285,7.7285,7.7285,7.7285,7.7285,7.7285,7.7285,7.7285,7.7285,7.7285,7.7285,7.7285,7.7285,7.7285,7.7285,7.7285,7.7285,7.7285,7.7285,7.7285,7.7285,7.7285,7.7285,7.7285,7.7285,7.7285,7.7285,7.7285,7.7285,7.7285,7.7285,7.7622,7.8376,7.9711,8.0675,8.1071,8.1093,8.1093,8.1093,8.1093,8.1093,8.1093,8.1093,8.1093,8.1093,8.1093,8.1093,8.1093,8.1093,8.1093]},{"header":{"parameterUnit":"m.s-1","parameterCategory":1,"la1":30.6,"la2":29.2853,"lo1":-89.7004,"lo2":-87.6739,"dx":0.0162,"dy":0.0183,"nx":112,"ny":82,"refTime":"2022-12-21T06:00:00:Z","depth":0,"parameterNumber":3,"parameterNumberName":"V-component_of_WINDS"},"data":[0.0,0.0,0.0,0.0,0.0,0.0,0.0,0.0,0.0,0.0,0.0,0.0,0.0,0.0,0.0,0.0,0.0,0.0,0.0,0.0,0.0,0.0,0.0,0.0,0.0,0.0,0.0,0.0,0.0,0.0,0.0,0.0,0.0,0.0,0.0,0.0,0.0,0.0,0.0,0.0,0.0,0.0,0.0,0.0,0.0,0.0,0.0,0.0,0.0,0.0,0.0,0.0,0.0,0.0,0.0,0.0,0.0,0.0,0.0,0.0,0.0,0.0,0.0,0.0,0.0,0.0,0.0,0.0,0.0,0.0,0.0,0.0,0.0,0.0,0.0,0.0,0.0,0.0,0.0,0.0,0.0,0.0,0.0,0.0,0.0,0.0,0.0,0.0,0.0,0.0,0.6148,0.6322,0.6496,0.6592,0.6573,0.6302,0.6212,0.639,0.0,0.0,0.0,0.0,0.0,0.0,0.0,0.0,0.0,0.0,0.0,0.0,0.0,0.0,0.0,0.0,0.0,0.0,0.0,0.0,0.0,0.0,0.0,0.0,0.0,0.0,0.0,0.0,0.0,0.0,0.0,0.0,0.0,0.0,0.0,0.0,0.0,0.0,0.0,0.0,0.0,0.0,0.0,0.0,0.0,0.0,0.0,0.0,0.0,0.0,0.0,0.0,0.0,0.0,0.0,0.0,0.0,0.0,0.0,0.0,0.0,0.0,0.0,0.0,0.0,0.0,0.0,0.0,0.0,0.0,0.0,0.0,0.0,0.0,0.0,0.0,0.0,0.0,0.0,0.0,0.0,0.0,0.0,0.0,0.0,0.0,0.0,0.0,0.0,0.0,0.0,0.0,0.0,0.0,0.0,0.0,0.0,0.0,0.0,0.0,0.0,0.0,0.0,0.0,0.6259,0.6896,0.7286,0.7456,0.7347,0.7236,0.6954,0.6431,0.0,0.0,0.0,0.0,0.0,0.0,0.0,0.0,0.0,0.0,0.0,0.0,0.0,0.0,0.0,0.0,0.0,0.0,0.0,0.0,0.0,0.0,0.0,0.0,0.0,0.0,0.0,0.0,0.0,0.0,0.0,0.0,0.0,0.0,0.0,0.0,0.0,0.0,0.0,0.0,0.0,0.0,0.0,0.0,0.0,0.0,0.0,0.0,0.0,0.0,0.0,0.0,0.0,0.0,0.0,0.0,0.0,0.0,0.0,0.0,0.0,0.0,0.0,0.0,0.0,0.0,0.0,0.0,0.0,0.0,0.0,0.0,0.0,0.0,0.0,0.0,0.0,0.0,0.0,0.0,0.0,0.0,0.0,0.0,0.0,0.0,0.0,0.0,0.0,0.0,0.0,0.0,0.0,0.0,0.0,0.0,0.0,0.0,0.0,0.0,0.0,0.0,0.0,0.6461,0.6753,0.7457,0.7637,0.7703,0.7716,0.749,0.7127,0.6599,0.5829,0.0,0.0,0.0,0.0,0.0,0.0,0.0,0.0,0.0,0.0,0.0,0.0,0.0,0.0,0.0,0.0,0.0,0.0,0.0,0.0,0.0,0.0,0.0,0.0,0.0,0.0,0.0,0.0,0.0,0.0,0.0,0.0,0.0,0.0,0.0,0.0,0.0,0.0,0.0,0.0,0.0,0.0,0.0,0.0,0.0,0.0,0.0,0.0,0.0,0.0,0.0,0.0,0.0,0.0,0.0,0.0,0.0,0.0,0.0,0.0,0.0,0.0,0.0,0.0,0.0,0.0,0.0,0.0,0.0,0.0,0.0,0.0,0.0,0.0,0.0,0.0,0.0,0.0,0.0,0.0,0.0,0.0,0.0,0.0,0.0,0.0,0.0,0.0,0.0,0.0,0.0,0.0,0.0,0.0,0.0,0.0,0.0,0.0,0.0,0.0,0.0,0.0,0.7131,0.7426,0.7937,0.8025,0.8059,0.809,0.7749,0.7343,0.6896,0.6346,0.0,0.0,0.0,0.0,0.0,0.0,0.0,0.0,0.0,0.0,0.0,0.0,0.0,0.0,0.0,0.0,0.0,0.0,0.0,0.0,0.0,0.0,0.0,0.0,0.0,0.0,0.0,0.0,0.0,0.0,0.0,0.0,0.0,0.0,0.0,0.0,0.0,0.0,0.0,0.0,0.0,0.0,0.0,0.0,0.0,0.0,0.0,0.0,0.0,0.0,0.0,0.0,0.0,0.0,0.0,0.0,0.0,0.0,0.0,0.0,0.0,0.0,0.0,0.0,0.0,0.0,0.0,0.0,0.0,0.0,0.0,0.0,0.0,0.0,0.0,0.0,0.0,0.0,0.0,0.0,0.0,0.0,0.0,0.0,0.0,0.0,0.0,0.0,0.0,0.0,0.0,0.0,0.0,0.0,0.0,0.0,0.0,0.0,0.0,0.0,0.0,0.0,0.744,0.8219,0.8265,0.876,0.8973,0.8669,0.8392,0.7979,0.7388,0.6786,0.0,0.0,0.0,0.0,0.0,0.0,0.0,0.0,0.0,0.0,0.0,0.0,0.0,0.0,0.0,0.0,0.0,0.0,0.0,0.0,0.0,0.0,0.0,0.0,0.0,0.0,0.0,0.0,0.0,0.0,0.0,0.0,0.0,0.0,0.0,0.0,0.0,0.0,0.0,0.0,0.0,0.0,0.0,0.0,0.0,0.0,0.0,0.0,0.0,0.0,0.0,0.0,0.0,0.0,0.0,0.0,0.0,0.0,0.0,0.0,0.0,0.0,0.0,0.0,0.0,0.0,0.0,0.0,0.0,0.0,0.0,0.0,0.0,0.0,0.0,0.0,0.0,0.0,0.0,0.0,0.0,0.0,0.0,0.0,0.0,0.0,0.0,0.0,0.0,0.0,0.0,0.0,0.0,0.0,0.0,0.0,0.0,0.0,0.0,0.0,0.0,0.0,0.7782,0.8477,0.0,0.9189,0.9274,0.9144,0.8777,0.8255,0.7568,0.0,0.0,0.0,0.0,0.0,0.0,0.0,0.0,0.0,0.0,0.0,0.0,0.0,0.0,0.0,0.0,0.0,0.0,0.0,0.0,0.0,0.0,0.0,0.0,0.0,0.0,0.0,0.0,0.0,0.0,0.0,0.0,0.0,0.0,0.0,0.0,0.0,0.0,0.0,0.0,0.0,0.0,0.0,0.0,0.0,0.0,0.0,0.0,0.0,0.0,0.0,0.0,0.0,0.0,0.0,0.0,0.0,0.0,0.0,0.0,0.0,0.0,0.0,0.0,0.0,0.0,0.0,0.0,0.0,0.0,0.0,0.0,0.0,0.0,0.0,0.0,0.0,0.0,0.0,0.0,0.0,0.0,0.0,0.0,0.0,0.0,0.0,0.0,0.0,0.0,0.0,0.0,0.0,0.0,0.0,0.0,0.0,0.0,0.0,0.0,0.0,0.0,0.7458,0.8105,0.8726,0.0,0.9436,0.945,0.941,0.8967,0.8425,0.7768,0.0,0.0,0.0,0.0,0.0,0.0,0.0,0.0,0.0,0.0,0.0,0.0,0.0,0.0,0.0,0.0,0.0,0.0,0.0,0.0,0.0,0.0,0.0,0.0,0.0,0.0,0.0,0.0,0.0,0.0,0.0,0.0,0.0,0.0,0.0,0.0,0.0,0.0,0.0,0.0,0.0,0.0,0.0,0.0,0.0,0.0,0.0,0.0,0.0,0.0,0.0,0.0,0.0,0.0,0.0,0.0,0.0,0.0,0.0,0.0,0.0,0.0,0.0,0.0,0.0,0.0,0.0,0.0,0.0,0.0,0.0,0.0,0.0,0.0,0.0,0.0,0.0,0.0,0.0,0.0,0.0,0.0,0.0,0.0,0.0,0.0,0.0,0.0,0.0,0.0,0.0,0.0,0.0,0.0,0.0,0.0,0.0,0.0,0.0,0.0,0.0,0.0,0.7631,0.8408,0.9034,0.9368,0.9523,0.9557,0.9416,0.8974,0.8507,0.0,0.0,0.0,0.0,0.0,0.0,0.0,0.0,0.0,0.0,0.0,0.0,0.0,0.0,0.0,0.0,0.0,0.0,0.0,0.0,0.0,0.0,0.0,0.0,0.0,0.0,0.0,0.0,0.0,0.0,0.0,0.0,0.0,0.0,0.0,0.0,0.0,0.0,0.0,0.0,0.0,0.0,0.0,0.0,0.0,0.0,0.0,0.0,0.0,0.0,0.0,0.0,0.0,0.0,0.0,0.0,0.0,0.0,0.0,0.0,0.0,0.0,0.0,0.0,0.0,0.0,0.0,0.0,0.0,0.0,0.0,0.0,0.0,0.0,0.0,0.0,0.0,0.0,0.0,0.0,0.0,0.0,0.0,0.0,0.0,0.0,0.0,0.0,0.0,0.0,0.0,0.0,0.0,0.0,0.0,0.0,0.0,0.0,0.0,0.0,0.0,0.0,0.0,0.7904,0.8641,0.9293,0.9772,0.9984,1.0034,0.9908,0.9464,0.8954,0.8384,0.0,0.0,0.0,0.0,0.0,0.0,0.0,0.0,0.0,0.0,0.0,0.0,0.0,0.0,0.0,0.0,0.0,0.0,0.0,0.0,0.0,0.0,0.0,0.0,0.0,0.0,0.0,0.0,0.0,0.0,0.0,0.0,0.0,0.0,0.0,0.0,0.0,0.0,0.0,0.0,0.0,0.0,0.0,0.0,0.0,0.0,0.0,0.0,0.0,0.0,0.0,0.0,0.0,0.0,0.0,0.0,0.0,0.0,0.0,0.0,0.0,0.0,0.0,0.0,0.0,0.0,0.0,0.0,0.0,0.0,0.0,0.0,0.0,0.0,0.0,0.0,0.0,0.0,0.0,0.0,0.0,0.0,0.0,0.0,0.0,0.0,0.0,0.0,0.0,0.0,0.0,0.0,0.0,0.0,0.0,0.0,0.0,0.0,0.0,0.0,0.0,0.0,0.8256,0.8891,0.9463,0.9945,1.018,1.0266,1.0187,0.975,0.928,0.8805,0.0,0.0,0.0,0.0,0.0,0.0,0.0,0.0,0.0,0.0,0.0,0.0,0.0,0.0,0.0,0.0,0.0,0.0,0.0,0.0,0.0,0.0,0.0,0.0,0.0,0.0,0.0,0.0,0.0,0.0,0.0,0.0,0.0,0.0,0.0,0.0,0.0,0.0,0.0,0.0,0.0,0.0,0.0,0.0,0.0,0.0,0.0,0.0,0.0,0.0,0.0,0.0,0.0,0.0,0.0,0.0,0.0,0.0,0.0,0.0,0.0,0.0,0.0,0.0,0.0,0.0,0.0,0.0,0.0,0.0,0.0,0.0,0.0,0.0,0.0,0.0,0.0,0.0,0.0,0.0,0.0,0.0,0.0,0.0,0.0,0.0,0.0,0.0,0.0,0.0,0.0,0.0,0.0,0.0,0.0,0.0,0.0,0.0,0.0,0.0,0.0,0.0,0.8689,0.9157,0.9591,1.0,1.0221,1.0333,1.0319,0.991,0.9544,0.9254,0.0,0.0,0.0,0.0,0.0,0.0,0.0,0.0,0.0,0.0,0.0,0.0,0.0,0.0,0.0,0.0,0.0,0.0,0.0,0.0,0.0,0.0,0.0,0.0,0.0,0.0,0.0,0.0,0.0,0.0,0.0,0.0,0.0,0.0,0.0,0.0,0.0,0.0,0.0,0.0,0.0,0.0,0.0,0.0,0.0,0.0,0.0,0.0,0.0,0.0,0.0,0.0,0.0,0.0,0.0,0.0,0.0,0.0,0.0,0.0,0.6221,0.0,0.0,0.0,0.0,0.0,0.0,0.0,0.0,0.0,0.0,0.0,0.0,0.0,0.0,0.0,0.0,0.0,0.0,0.0,0.0,0.0,0.0,0.0,0.0,0.0,0.0,0.0,0.0,0.0,0.0,0.0,0.0,0.0,0.0,0.0,0.0,0.0,0.0,0.0,0.0,0.0,0.9158,0.9523,0.9889,1.0343,1.0526,1.0567,1.0476,1.0272,0.9965,0.9537,0.9007,0.0,0.0,0.0,0.0,0.0,0.0,0.0,0.0,0.0,0.0,0.0,0.0,0.0,0.0,0.0,0.0,0.0,0.0,0.0,0.0,0.0,0.0,0.0,0.0,0.0,0.0,0.0,0.0,0.0,0.0,0.0,0.0,0.0,0.0,0.0,0.0,0.0,0.0,0.0,0.0,0.0,0.0,0.0,0.0,0.0,0.0,0.0,0.0,0.0,0.0,0.0,0.0,0.0,0.0,0.0,0.0,0.0,0.0,0.0,0.0,0.6392,0.0,0.0,0.0,0.0,0.0,0.0,0.0,0.0,0.0,0.0,0.0,0.0,0.0,0.0,0.0,0.0,0.0,0.0,0.0,0.0,0.0,0.0,0.0,0.0,0.0,0.0,0.0,0.0,0.0,0.0,0.0,0.0,0.0,0.0,0.0,0.0,0.0,0.0,0.0,0.0,0.9422,0.9755,1.0115,1.0555,1.0721,1.0774,1.0701,1.0567,1.0331,0.9965,0.9495,0.0,0.0,0.0,0.0,0.0,0.0,0.0,0.0,0.0,0.0,0.0,0.0,0.0,0.0,0.0,0.0,0.0,0.0,0.0,0.0,0.0,0.0,0.0,0.0,0.0,0.0,0.0,0.0,0.0,0.0,0.0,0.0,0.0,0.0,0.0,0.0,0.0,0.0,0.0,0.0,0.0,0.0,0.0,0.0,0.0,0.0,0.0,0.0,0.0,0.0,0.0,0.0,0.0,0.7725,0.7862,0.7992,0.8108,0.8156,0.8122,0.7508,0.7176,0.7046,0.0,0.0,0.0,0.0,0.0,0.0,0.0,0.0,0.0,0.0,0.0,0.0,0.0,0.0,0.0,0.0,0.0,0.0,0.0,0.0,0.0,0.0,0.0,0.0,0.0,0.8156,0.7803,0.0,0.0,0.0,0.0,0.0,0.0,0.0,0.0,0.0,0.0,0.0,0.0,0.9658,1.0,1.034,1.0701,1.0868,1.0955,1.0955,1.0821,1.0626,1.0387,0.9958,0.9509,0.0,0.0,0.0,0.0,0.0,0.0,0.0,0.0,0.0,0.0,0.0,0.0,0.0,0.0,0.0,0.0,0.0,0.0,0.0,0.0,0.0,0.0,0.0,0.0,0.0,0.0,0.0,0.0,0.0,0.0,0.0,0.0,0.516,0.5471,0.0,0.0,0.0,0.0,0.0,0.0,0.0,0.0,0.0,0.0,0.0,0.0,0.0,0.744,0.746,0.79,0.8193,0.8356,0.8492,0.8622,0.8757,0.877,0.8777,0.8777,0.8676,0.0,0.7673,0.7543,0.0,0.0,0.0,0.0,0.0,0.0,0.0,0.0,0.0,0.0,0.0,0.0,0.0,0.0,0.0,0.0,0.0,0.0,0.0,0.0,0.0,0.0,0.8136,0.8656,0.8777,0.8723,0.0,0.8161,0.8041,0.8561,0.0,0.0,0.0,0.0,0.0,0.0,0.0,0.0,1.015,1.0446,1.0687,1.0867,1.105,1.1157,1.1157,1.0977,1.0813,1.0653,1.0365,0.9999,0.9522,0.9021,0.0,0.0,0.0,0.0,0.0,0.0,0.0,0.0,0.0,0.0,0.0,0.0,0.0,0.0,0.0,0.0,0.0,0.0,0.0,0.0,0.0,0.0,0.0,0.0,0.0,0.0,0.0,0.0,0.0,0.5375,0.5646,0.6056,0.6103,0.6189,0.0,0.0,0.0,0.0,0.0,0.0,0.0,0.0,0.0,0.7812,0.8619,0.8824,0.8337,0.8648,0.8832,0.89,0.9911,1.0422,1.0477,1.0554,1.102,1.1722,1.0926,1.0806,1.1017,0.9038,0.8093,0.7877,0.0,0.0,0.0,0.0,0.0,0.7605,0.7603,0.7603,0.0,0.0,0.0,0.0,0.0,0.0,0.0,0.0,0.0,0.0,0.0,0.0,0.0,0.9345,0.9406,0.9501,0.9839,0.9704,0.9494,0.0,0.9223,0.9081,0.9102,0.0,0.0,0.0,0.0,0.9995,1.0465,1.0634,1.0814,1.1156,1.1262,1.1311,1.1311,1.1233,1.108,1.0826,1.0626,1.0373,1.0006,0.9543,0.9048,0.0,0.0,0.0,0.0,0.0,0.0,0.0,0.0,0.0,0.0,0.0,0.0,0.0,0.0,0.0,0.0,0.0,0.0,0.0,0.0,0.0,0.0,0.0,0.0,0.0,0.0,0.0,0.0,0.5947,0.6205,0.6673,0.6733,0.684,0.0,0.0,0.0,0.0,0.0,0.0,0.782,0.8705,0.9196,0.9195,0.9714,0.9875,0.9616,0.9445,0.955,0.9961,1.1211,1.2018,1.2419,1.2521,1.3143,1.4073,1.3021,1.3098,1.3745,1.071,0.9352,0.9099,0.8401,0.7804,0.7347,0.7502,0.7845,0.823,0.823,0.823,0.823,0.823,0.0,0.823,0.823,0.0,0.0,0.0,0.0,0.8568,0.9014,0.0,1.0029,1.0029,1.0029,1.0151,1.0598,1.077,1.0648,0.0,0.9657,0.946,0.9562,0.0,0.0,0.0,0.0,1.0339,1.077,1.0892,1.106,1.1416,1.1527,1.1583,1.1583,1.1499,1.1337,1.1088,1.0924,1.0704,1.0413,1.0024,0.959,0.9095,0.0,0.0,0.0,0.0,0.0,0.0,0.0,0.0,0.0,0.0,0.0,0.0,0.0,0.0,0.0,0.0,0.0,0.0,0.0,0.0,0.0,0.0,0.0,0.0,0.0,0.0,0.0,0.0,0.0,0.73,0.7354,0.0,0.0,0.0,0.0,0.7947,0.8249,0.8438,0.8458,0.875,0.9582,1.1017,1.001,1.012,1.1552,1.0374,1.0503,1.1963,1.2041,1.288,1.4364,1.4374,1.4405,1.4467,1.4397,1.4413,1.4316,1.2361,1.1545,1.1334,0.9275,0.8262,0.8028,0.8595,0.8824,0.8858,0.8858,0.8858,0.8858,0.8858,0.8858,0.8858,0.8858,0.8858,0.0,0.0,0.9271,0.9718,0.9745,1.0198,1.0652,1.0652,1.0652,1.0659,1.0686,1.095,1.1002,0.0,1.0161,0.9995,0.9813,0.0,1.0075,1.0412,1.058,1.079,1.113,1.1404,1.1568,1.1588,1.1866,1.2054,1.2054,1.1769,1.1581,1.1568,1.1325,1.1035,1.0694,1.0526,1.0175,0.9577,0.9095,0.0,0.0,0.0,0.0,0.0,0.0,0.0,0.0,0.0,0.0,0.0,0.0,0.0,0.0,0.0,0.0,0.0,0.0,0.0,0.0,0.0,0.0,0.0,0.0,0.0,0.0,0.0,0.0,0.8691,0.8394,0.0,0.8364,0.8459,0.8864,0.9743,1.0065,1.0257,1.0305,1.2108,1.2726,1.1808,1.2995,1.3596,1.3504,1.314,1.3232,1.3791,1.4774,1.5637,1.6369,1.6369,1.6411,1.6495,1.6587,1.657,1.6367,1.4803,1.2815,1.0883,1.1712,1.0859,0.9183,0.9399,0.9724,1.0063,1.0063,1.0063,1.0063,1.0063,1.0063,1.0063,1.0063,1.0063,1.0063,1.0063,1.0212,1.0382,1.0382,1.0545,1.0701,1.0701,1.0701,1.0809,1.1195,1.1373,1.1459,1.1456,1.0928,1.0489,1.0508,1.0554,1.0689,1.1023,1.1118,1.126,1.1543,1.1669,1.1778,1.1909,1.2027,1.2098,1.2098,1.1993,1.1873,1.1744,1.1556,1.1371,1.1158,1.0811,1.0493,1.0189,0.9719,0.9245,0.0,0.0,0.0,0.0,0.0,0.0,0.0,0.0,0.0,0.0,0.0,0.0,0.0,0.0,0.0,0.0,0.0,0.0,0.0,0.0,0.0,0.0,0.0,0.0,0.0,0.8856,0.8992,1.0383,0.9792,0.9543,1.0218,0.9983,1.0362,1.1769,1.2096,1.2225,1.2275,1.4114,1.4716,1.3725,1.4998,1.563,1.5475,1.5187,1.5277,1.5767,1.6774,1.761,1.8241,1.8241,1.8286,1.8382,1.8477,1.8468,1.8298,1.737,1.5257,1.2621,1.2875,1.1807,1.0104,1.0104,1.0362,1.0701,1.0701,1.0701,1.0701,1.0701,1.0701,1.0701,1.0701,1.0701,1.0701,1.0701,1.0701,1.0701,1.0701,1.0848,1.0997,1.0997,1.0997,1.1105,1.1505,1.1602,1.1699,1.2034,1.1466,1.0978,1.111,1.1137,1.1234,1.1495,1.1529,1.1617,1.1868,1.1933,1.2017,1.2147,1.2211,1.2228,1.2228,1.2197,1.2113,1.1983,1.1841,1.1701,1.1536,1.1188,1.0919,1.0741,1.0159,0.9692,0.9335,0.0,0.0,0.0,0.0,0.0,0.0,0.0,0.0,0.0,0.0,0.0,0.0,0.0,0.0,0.0,0.0,0.0,0.0,0.0,0.0,0.0,0.0,0.0,1.0988,1.0623,1.0814,1.2305,1.154,1.1558,1.3267,1.2312,1.2283,1.3944,1.4199,1.4279,1.4279,1.452,1.5322,1.6767,1.5804,1.5967,1.7456,1.6374,1.6518,1.7869,1.7869,1.8589,1.9913,1.9913,1.9909,1.9871,1.9933,1.9924,1.9871,1.9854,1.8814,1.6796,1.2699,1.0948,1.0735,1.0735,1.0735,1.0735,1.0735,1.0735,1.0735,1.0735,1.0735,1.0735,1.0735,1.0735,1.0735,1.0735,1.0735,1.0735,1.0735,1.1153,1.1602,1.1602,1.1606,1.1629,1.1629,1.1629,1.1735,1.2061,1.1746,1.147,1.1588,1.1622,1.1669,1.1802,1.1829,0.0,1.2095,1.2242,1.2321,1.2321,1.2443,1.2515,1.2515,1.2402,1.2321,1.2314,1.219,1.2015,1.1823,1.1674,1.1484,1.1206,1.043,0.9892,0.9631,0.0,0.0,0.0,0.0,0.0,0.0,0.0,0.0,0.0,0.0,0.0,0.0,0.0,0.0,0.0,0.0,0.0,0.0,0.0,0.0,0.0,1.1299,1.1438,1.1516,1.1764,1.2518,1.4099,1.3513,1.3243,1.391,1.3801,1.4254,1.5644,1.5944,1.6042,1.5946,1.7332,1.785,1.725,1.8107,1.8785,1.9204,1.8906,1.8941,1.9318,1.9318,1.9728,2.0474,2.0474,2.0081,1.9444,2.0568,2.0435,1.9346,1.8869,1.908,1.928,1.4935,1.2473,1.1349,1.1349,1.1349,1.1349,1.1349,1.1349,1.1349,1.1349,1.1349,1.1349,1.1349,1.1349,1.1349,1.1349,1.1349,1.1349,1.1349,1.148,1.1602,1.1602,1.1927,1.2248,1.2248,1.2248,1.2352,1.2696,1.2453,1.2151,1.1991,1.2043,1.2155,1.2288,1.2394,0.0,1.2737,1.2782,1.2809,1.2809,1.2843,1.2854,1.2854,1.2829,1.2752,1.2597,1.2467,1.2328,1.2169,1.1893,1.1624,1.1352,1.0789,1.0415,0.0,0.0,0.0,0.0,0.0,0.0,0.0,0.0,0.0,0.0,0.0,0.0,0.0,0.0,0.0,0.0,0.0,0.0,0.0,0.0,0.0,0.0,1.3004,1.3337,1.3307,1.3597,1.4407,1.6017,1.5433,1.5194,1.6012,1.5706,1.6082,1.7591,1.7837,1.795,1.7979,1.9053,1.9293,1.8462,1.9504,2.0115,2.0224,2.0353,2.0462,2.0574,2.0574,2.0731,2.103,2.103,2.0716,0.0,2.1111,2.0984,2.0129,1.9641,2.0027,0.0,0.0,0.0,0.0,0.0,1.1595,1.16,1.1597,1.1602,1.1602,1.1602,1.1602,1.1602,1.1602,1.1602,1.1602,1.1602,1.1778,1.1976,1.1976,1.1976,1.1976,1.1976,1.2241,1.2501,1.2501,1.2698,1.2905,1.2979,0.0,0.0,1.2496,1.2544,1.2616,1.2704,1.2782,1.2871,1.2979,1.3003,1.3003,1.3003,1.3003,1.3003,1.3003,1.3003,0.0,0.0,0.0,1.2606,1.2386,1.2139,0.0,0.0,0.0,0.0,0.0,0.0,0.0,0.0,0.9585,0.9374,0.0,0.0,0.0,0.0,0.0,0.0,0.0,0.0,0.0,0.0,0.0,0.0,0.0,0.0,0.0,0.0,1.4311,1.5511,1.5776,1.5839,1.6385,1.7811,1.72,1.7226,1.8652,1.7772,1.7782,1.9413,1.9551,1.9652,1.9885,0.0,0.0,0.0,0.0,2.0546,2.0797,2.1027,2.126,2.1492,2.1492,2.1525,2.155,2.155,2.1553,2.1598,2.1598,2.1598,2.1589,2.1402,2.132,2.1015,1.7843,1.4559,1.1612,1.1678,1.1703,0.0,0.0,0.0,0.0,1.1703,1.1703,1.1703,1.1703,1.1703,1.1703,1.1703,1.2085,1.2501,1.2501,1.2556,1.2603,1.2603,1.2576,1.2562,1.2587,1.3024,1.3332,1.3095,1.305,1.305,1.305,1.303,1.3006,1.3023,1.3043,0.0,1.305,1.305,1.305,1.305,0.0,0.0,1.305,1.305,1.3043,1.3013,1.3009,1.287,1.2562,1.2413,1.221,1.1911,1.1744,1.1613,1.1499,1.1339,1.1281,1.1281,1.0392,0.9983,0.0,0.0,0.0,0.0,0.0,0.0,0.0,0.0,0.0,0.0,0.0,0.0,0.0,0.0,0.0,1.5818,1.6707,1.7449,1.7715,1.794,1.8199,1.8509,1.837,1.8538,1.9265,1.9127,1.9209,1.9784,1.9825,1.9858,1.9898,2.0317,2.0555,2.0555,2.1018,2.1287,2.1335,2.1405,2.1453,2.1492,0.0,0.0,2.1828,2.1828,2.1936,2.2151,2.2151,2.2151,2.2142,2.2093,2.2088,2.1937,2.0411,1.6452,1.1655,1.2147,1.2333,1.2328,1.2336,1.2332,1.2332,1.2332,1.2332,1.2332,1.2332,1.2332,0.0,1.2332,1.2413,1.2501,1.2501,1.2861,1.3227,1.3227,1.3054,1.2955,1.3173,1.3315,1.3383,1.3329,1.3315,1.3315,1.3315,1.319,1.3095,1.3146,1.3244,1.3315,1.3315,1.3315,1.3315,1.3315,1.3315,1.3315,1.3315,1.3315,1.3282,1.3169,1.3064,1.2975,1.2914,1.2715,1.2587,1.2526,1.2185,1.2038,1.2133,1.1827,1.1769,1.1914,1.135,1.109,0.0,0.0,0.0,0.0,0.0,0.0,0.0,0.0,0.0,0.0,0.0,1.4238,1.4385,0.0,1.6829,1.724,1.7856,1.8347,1.8476,1.8854,1.9096,1.9096,1.9096,1.9253,1.9664,1.97,1.9801,2.0079,2.0224,2.0365,2.0486,2.0885,2.1102,2.1102,2.1368,2.1565,2.1707,2.1707,2.1828,2.2103,2.2103,2.2236,2.2499,2.2499,2.2562,2.2705,2.2705,2.2636,2.2538,2.2374,2.2293,2.2241,2.1712,1.9633,1.6587,1.3594,1.2502,1.2506,1.2496,1.2695,1.2935,1.2797,1.264,1.2501,1.2501,1.2501,1.2501,1.2501,1.2718,1.2949,1.2949,1.3173,1.3403,1.3403,1.3298,1.3241,1.337,1.3403,1.3431,1.3532,1.3553,1.3556,1.3593,1.3569,1.3536,1.3461,1.3539,1.3599,1.3599,1.3599,1.3599,1.3599,1.3599,1.3599,1.3599,1.3599,1.3566,1.3502,1.3312,1.32,1.32,1.2963,1.2847,1.2847,1.2549,1.2433,1.2498,1.2258,1.22,1.2296,1.2128,1.1979,0.0,0.0,0.0,0.0,0.0,0.0,0.0,1.4198,1.3991,1.4365,1.5175,1.5781,1.5658,1.6567,1.7493,1.7972,1.8504,1.8866,1.8866,1.9277,1.96,1.9648,1.9612,1.9676,1.9958,2.0018,2.0172,2.0438,2.0704,2.0954,2.1172,2.1429,2.1586,2.1586,2.1683,2.184,2.2045,2.2115,2.2345,2.2787,2.2787,2.2886,2.3101,2.3063,2.3031,2.3031,2.2973,2.2855,2.2698,2.2618,2.2589,2.2589,2.2584,2.2585,2.178,1.5129,1.2643,1.2598,1.2602,1.2917,1.3307,1.3136,1.2887,1.2668,1.2668,1.2668,1.2668,1.2668,1.303,1.3403,1.3403,1.3403,1.3403,1.3403,1.3424,1.3444,1.3444,1.3454,1.3532,1.3685,1.3743,1.3783,1.3826,1.3962,1.398,1.3752,1.3769,1.3795,1.3795,1.3795,1.3795,1.3795,1.3795,1.3795,1.3795,1.3795,1.3795,1.3795,1.3599,1.3474,1.3474,1.3271,1.3163,1.3163,1.2956,1.2854,1.2872,1.2709,1.2651,1.2678,1.2814,1.2702,1.4211,1.4318,1.4582,1.4826,1.5014,1.5201,0.0,1.5674,1.6038,1.6335,1.6677,1.7059,1.7502,1.7894,1.8259,1.8557,1.906,1.9406,1.9406,1.9664,1.9946,2.0175,1.9994,1.9958,2.0224,2.0474,2.0716,2.099,2.126,2.142,2.1444,2.1707,2.1852,2.1852,2.233,2.2584,2.2608,2.2847,2.3005,2.3053,2.3053,2.3077,2.3092,2.2925,2.2836,2.2826,2.252,2.2373,2.2423,2.3278,2.3624,2.3627,2.3624,2.3634,2.2789,1.5849,1.3154,1.2942,1.2941,1.2997,1.3079,1.3292,1.3329,1.3302,1.3302,1.3302,1.3302,1.3302,1.3349,1.3403,1.3403,1.3403,1.3403,1.3403,1.3495,1.3579,1.3579,1.367,1.3754,1.3781,1.3877,1.3973,1.398,1.4143,1.4152,1.3839,1.3799,1.3795,1.3795,1.3795,1.3795,1.3795,1.3795,1.3795,1.3795,1.3795,1.3795,1.3795,1.3768,1.3758,1.3758,1.3731,1.3711,1.3711,1.3444,1.3386,1.3494,1.3251,1.3176,1.3302,1.3437,1.3207,1.5276,1.5524,1.5847,1.5812,1.5996,1.6235,1.6399,1.6732,1.7071,1.7336,1.7489,1.773,1.8274,1.8581,1.8846,1.912,1.9475,1.9728,1.9728,1.9958,2.0224,2.0498,2.0571,2.0643,2.0752,2.1006,2.1211,2.132,2.1586,2.1731,2.1731,2.2139,2.2378,2.2378,2.2729,2.2922,2.2922,2.3031,2.3167,2.3275,2.3275,2.3357,2.3492,2.3423,2.3372,2.3362,2.3222,2.3357,2.3702,2.4432,2.4551,2.4269,2.4269,2.4334,2.4029,2.0685,1.681,1.3407,1.4662,1.4283,1.3239,1.3271,1.3343,1.3403,1.3403,1.3403,1.3403,1.3403,1.3403,1.3431,1.3535,1.3553,1.3542,1.3613,1.3681,1.3717,1.3717,1.3754,1.3833,1.3949,1.4025,1.4079,1.4156,1.4245,1.4247,1.4107,1.4087,1.4087,1.4087,1.4087,1.4087,1.4087,1.4087,1.4087,1.4087,1.4087,1.4087,1.4087,1.4027,1.3962,1.3962,1.3853,1.3795,1.3795,1.369,1.3657,1.3717,1.3606,1.3583,1.3623,1.369,1.3582,1.6437,1.6711,1.7033,1.6908,1.6956,1.7088,1.7276,1.7597,1.7887,1.8081,1.8178,1.8371,1.8842,1.9084,1.9298,1.9576,1.9833,2.0043,2.0103,2.0353,2.0619,2.0885,2.116,2.1317,2.1317,2.1498,2.161,2.161,2.1933,2.2127,2.2127,2.256,2.2801,2.2801,2.3048,2.3172,2.3172,2.3254,2.3369,2.3513,2.3585,2.3718,2.3909,2.3828,2.3791,2.3791,2.3791,2.4198,2.4856,2.524,2.5112,2.4678,2.4678,2.474,2.469,2.3654,1.9755,1.5079,1.5646,1.4811,1.3497,1.3397,1.3431,1.3508,1.3508,1.3508,1.3508,1.3508,1.3508,1.3542,1.3691,1.3694,1.3684,1.3785,1.3839,1.3884,1.3884,1.3907,1.3979,1.4127,1.4158,1.4192,1.4278,1.4299,1.4299,1.4299,1.4299,1.4299,1.4299,1.4299,1.4299,1.4299,1.4299,1.4299,1.4299,1.4299,1.4299,1.4299,1.4208,1.4158,1.4158,1.4017,1.3934,1.3934,1.3904,1.3884,1.3884,1.3833,1.3795,1.3802,1.3864,1.3884,1.7571,1.7745,1.8022,1.8268,1.8106,1.7871,1.7875,1.8279,1.8673,1.8677,1.8871,1.9152,1.9418,1.9479,1.9576,1.9841,2.0115,2.0377,2.064,2.0914,2.1172,2.1444,2.1707,2.1885,2.1885,2.1876,2.1897,2.1897,2.2378,2.2681,2.2681,2.2944,2.3089,2.3089,2.3277,2.3393,2.3393,2.3655,2.3788,2.38,2.4053,2.4174,2.4176,2.3918,2.3796,2.3796,2.3796,2.4403,2.5378,2.5388,2.519,2.4887,2.4887,2.4783,2.4397,2.2619,2.0711,1.853,1.5083,1.3839,1.3785,1.3774,1.3781,1.3792,1.3792,1.3792,1.3792,1.3792,1.3792,1.3788,1.3805,1.3805,1.3795,1.3795,1.3942,1.4083,1.4083,1.4194,1.4285,1.4292,1.4292,1.4292,1.4299,1.4299,1.4299,1.4299,1.4299,1.4299,1.4299,1.4299,1.4299,1.4299,1.4299,1.4299,1.4299,1.4299,1.4299,1.4299,1.4299,1.4292,1.4292,1.4292,1.4274,1.4274,1.4165,1.4083,1.4083,1.3901,1.3795,1.3802,1.3994,1.4083,1.8537,1.8665,1.887,1.8922,1.8686,1.848,1.8657,1.883,1.8975,1.8975,1.9036,1.9181,1.9455,1.9648,1.9849,2.0115,2.0534,2.0857,2.0954,2.1196,2.1465,2.1731,2.1852,2.2042,2.2402,2.2429,2.2429,2.2429,2.2765,2.2968,2.2968,2.3174,2.3289,2.3289,2.3832,2.4127,2.4127,2.4709,2.479,2.44,2.4582,2.4593,2.4463,2.4368,2.4509,2.4856,2.4856,2.5071,2.539,2.539,2.5331,2.5233,2.5233,2.5189,2.4902,2.3098,2.1264,1.9264,1.6537,1.481,1.3795,1.3795,1.3795,1.3795,1.3795,1.3795,1.3795,1.3795,1.3795,1.3833,1.3956,1.4004,1.4021,1.4112,1.4183,1.4235,1.4235,1.4276,1.4299,1.4299,1.4299,1.4299,1.4299,1.4299,1.4299,1.4299,1.4299,1.4299,1.4299,1.4299,1.4299,1.4299,1.4299,1.4299,1.4299,1.4299,1.4299,1.4299,1.4299,1.4299,1.4299,1.4299,1.4299,1.4299,1.4262,1.4235,1.4235,1.4159,1.4132,1.4132,1.4197,1.4235,1.9464,1.9558,1.9745,1.9705,1.9363,1.9073,1.9243,1.9184,1.9096,1.9096,1.9096,1.9181,1.9455,1.9725,1.9994,2.0256,2.0749,2.1135,2.1232,2.1477,2.1779,2.213,2.2187,2.2357,2.2801,2.2915,2.2918,2.285,2.3072,2.3208,2.3208,2.3412,2.3628,2.3797,2.4352,2.4721,2.4892,2.5289,2.5363,2.5089,2.4963,2.4899,2.4894,2.4894,2.5075,2.5402,2.5402,2.5406,2.5407,2.5407,2.5407,2.5401,2.5401,2.5401,2.5177,2.3375,2.191,2.0475,1.7682,1.5517,1.3985,1.3985,1.3985,1.3985,1.3985,1.3985,1.3985,1.3985,1.3985,1.4006,1.414,1.4171,1.4188,1.4278,1.4299,1.4299,1.4299,1.4299,1.4299,1.4299,1.4299,1.4299,1.4299,1.4299,1.4299,1.4299,1.4866,1.5065,1.4387,1.4299,1.4299,1.4299,1.4299,1.4299,1.4299,1.4299,1.4299,1.4299,1.4299,1.4299,1.4299,1.4299,1.4299,1.4299,1.4299,1.4299,1.4299,1.4299,1.4299,1.4299,1.4299,1.4299,2.0322,2.0422,2.0594,2.0583,2.0078,1.9595,1.9584,1.9328,1.9096,1.9096,1.9096,1.9181,1.9455,1.9725,1.9994,2.0256,2.0752,2.1208,2.1456,2.1755,2.2127,2.2644,2.2717,2.2826,2.3092,2.3287,2.3326,2.3152,2.3311,2.3429,2.3429,2.3677,2.4052,2.4517,2.4815,2.5175,2.5625,2.544,2.5556,2.5923,2.5294,2.5171,2.5487,2.5455,2.5455,2.5455,2.5476,2.5487,2.5487,2.5444,2.5433,2.5423,2.5401,2.5401,2.5188,2.3472,2.2686,2.1964,1.8458,1.6009,1.4431,1.4332,1.4299,1.4299,1.4299,1.4299,1.4299,1.4299,1.4299,1.4299,1.4299,1.4299,1.4299,1.4299,1.4299,1.4299,1.4299,1.4299,1.4299,1.4299,1.4299,1.4299,1.4299,1.4376,1.4443,1.4443,1.6042,1.6569,1.4679,1.4531,1.4597,1.4597,1.4498,1.4443,1.4443,1.4354,1.4299,1.4299,1.4299,1.4299,1.4299,1.4299,1.4299,1.4299,1.4299,1.4299,1.4299,1.4299,1.4299,1.4299,1.4299,1.4299,2.0833,2.074,2.0531,2.0289,1.9911,1.9536,1.928,1.916,1.9096,1.9096,1.9096,1.9181,1.9455,1.9725,1.9994,2.0256,2.0921,2.142,2.1492,2.2069,2.2547,2.2681,2.2884,2.3085,2.3301,2.3378,2.3453,2.3615,2.3668,2.3704,2.3704,2.4096,2.4468,2.4789,2.5488,2.5897,2.5977,2.6064,2.6614,2.7575,2.6724,2.6463,2.6726,2.6271,2.6078,2.61,2.6554,2.6736,2.6694,2.6148,2.5922,2.589,2.554,2.5401,2.5337,2.4877,2.2955,2.0449,1.9515,1.7964,1.6152,1.4745,1.4299,1.4299,1.4299,1.4299,1.4299,1.4299,1.4299,1.4299,1.4299,1.4299,1.4299,1.4299,1.4299,1.4299,1.4299,1.4299,1.4299,1.4299,1.4299,1.4299,1.4299,1.5455,1.6393,1.6393,1.7985,1.8512,1.6635,1.7613,1.8468,1.8468,1.7219,1.6393,1.6393,1.5098,1.4299,1.4299,1.4299,1.4299,1.4299,1.4299,1.4299,1.4299,1.4299,1.4299,1.4299,1.4299,1.4299,1.4299,1.4299,1.4299,2.1245,2.1067,2.0776,2.0556,2.0155,1.9727,1.94,1.9208,1.9096,1.9096,1.9096,1.9152,1.9298,1.9543,1.9801,2.0079,2.08,2.1377,2.148,2.2199,2.2741,2.2862,2.3085,2.3323,2.3549,2.3573,2.3692,2.3957,2.3872,2.3941,2.4271,2.4525,2.4971,2.5633,2.6149,2.6615,2.7028,2.7122,2.7528,2.8196,2.7664,2.733,2.7184,2.673,2.6514,2.6535,0.0,2.6904,2.6692,2.6263,2.5986,2.5763,2.5498,2.5401,2.5401,2.5401,2.4084,2.2072,2.046,1.921,1.7887,1.5186,1.4299,1.4299,1.4299,1.4299,1.4299,1.4299,1.4299,1.4299,1.4299,1.4299,1.4299,1.4299,1.4299,1.4299,1.4299,1.4299,1.4299,1.4299,1.4299,1.4299,1.4299,1.5862,1.7099,1.7099,1.9373,2.072,1.9689,1.9754,1.9895,1.9895,1.8959,1.8007,1.7164,1.613,1.5186,1.4354,1.4299,1.4299,1.4299,1.4299,1.4299,1.4299,1.4299,1.4299,1.4299,1.4299,1.4299,1.4299,1.4299,1.4299,2.151,2.136,2.1065,2.0954,2.0511,2.0003,1.9623,1.9312,1.9096,1.9096,1.9096,1.9096,1.9096,1.9322,1.9588,1.9861,2.0555,2.1148,2.1465,2.2199,2.2801,2.3065,2.336,2.3638,2.3878,2.3977,2.4138,2.4367,2.4199,2.435,2.4918,2.5062,2.5623,2.6691,2.683,2.7323,2.8199,2.8201,2.8201,2.8199,2.8199,2.7894,2.732,2.7082,2.6984,2.6984,0.0,0.0,2.6284,2.622,2.5912,2.5487,2.5412,2.5401,2.5401,2.5401,2.5241,2.4566,2.137,2.0102,1.9286,1.5521,1.4299,1.4299,1.4299,1.4299,1.4299,1.4299,1.4299,1.4299,1.4299,1.4299,1.4299,1.4299,1.4299,1.4299,1.4299,1.4299,1.4299,1.4299,1.4299,1.4376,1.463,1.6228,1.7559,1.781,2.0774,2.2988,2.3052,2.164,2.0633,2.0633,2.0406,1.9504,1.7635,1.7241,1.6294,1.442,1.4299,1.4299,1.4299,1.4299,1.4299,1.4299,1.4299,1.4299,1.4299,1.4299,1.4299,1.4299,1.4299,1.4299,2.151,2.136,2.1017,2.0676,2.0342,1.9939,1.9328,1.9136,1.9096,1.9096,1.9096,1.9096,1.9096,1.9322,1.9588,1.9861,2.0389,2.0942,2.1432,2.2199,2.2801,2.3065,2.3813,2.4333,2.4372,2.4934,2.5307,2.5357,2.5521,2.5504,2.5244,2.5908,2.6652,2.7395,2.7764,2.8026,2.8208,2.8205,2.8205,2.8208,2.8208,2.8142,2.8023,2.7981,2.797,2.797,2.797,0.0,2.723,2.6849,2.6401,2.5944,2.5551,2.5401,2.5401,2.5401,2.4427,2.2988,2.2352,2.1153,1.9286,1.5521,1.4299,1.4299,1.4299,1.4299,1.4299,1.4299,1.4299,1.4299,1.4299,1.4299,1.4299,1.4299,1.4299,1.4299,1.4299,1.4299,1.4299,1.4299,1.4299,1.4789,1.6349,1.8163,1.9939,2.1499,2.3558,2.4919,2.4931,2.4652,2.4449,2.4449,2.3063,2.1391,1.9569,1.7996,1.6294,1.442,1.4299,1.4299,1.4299,1.4299,1.4299,1.4299,1.4299,1.4299,1.4299,1.4299,1.4299,1.4299,1.4299,1.4299,2.1681,2.1336,2.0826,2.0767,2.0298,1.9703,1.9208,1.8991,1.8895,1.8895,1.8774,1.8726,1.8866,1.8999,1.9217,1.9628,2.0136,2.0679,2.122,2.1982,2.2644,2.3053,2.3815,2.4351,2.4489,2.4951,2.539,2.5773,2.6051,2.61,2.5882,2.6635,2.7098,2.7182,2.7841,2.82,2.82,2.8205,2.8189,2.8189,2.8189,2.8189,2.8189,2.8189,2.8189,2.8189,2.8189,0.0,2.7124,2.6891,2.6369,2.5711,2.5487,2.5401,2.5401,2.5401,2.4823,2.3923,2.2977,2.205,2.085,1.8117,1.6547,1.5565,1.4597,1.4299,1.4299,1.4299,1.4299,1.4299,1.4299,1.4299,1.4299,1.4299,1.4299,1.4299,1.4299,1.4299,1.4299,1.4299,1.5087,1.6042,1.6934,1.9471,2.1651,2.2557,2.4245,2.5401,2.5401,2.5401,2.5401,2.5401,2.3719,2.1867,2.0047,1.8174,1.6294,1.442,1.4299,1.4299,1.4299,1.4299,1.4299,1.4299,1.4299,1.4299,1.4299,1.4299,1.4299,1.4299,1.4299,1.4299,2.1767,2.1316,2.074,2.0869,2.0292,1.9595,1.9119,1.8846,1.8689,1.8629,1.8448,1.8368,1.8581,1.8665,1.8866,1.9334,1.9858,2.0426,2.1023,2.174,2.2429,2.3029,2.377,2.4352,2.4691,2.5059,2.5579,2.6311,2.6531,2.6675,2.6779,2.7338,2.7484,2.7115,2.782,2.8198,2.8195,2.8195,2.8189,2.8189,2.8189,2.8189,2.8189,2.8189,2.8189,2.8189,2.8189,0.0,0.0,2.6806,2.6254,2.5401,2.5401,2.5401,2.5401,2.5401,2.5401,2.5199,2.3772,2.3235,2.2902,2.1067,1.8948,1.6822,1.5344,1.4619,1.4299,1.4299,1.4299,1.4299,1.4299,1.4299,1.4299,1.4299,1.4299,1.4299,1.4299,1.4299,1.442,1.4822,1.6086,1.7362,1.8152,2.0731,2.2815,2.3225,2.4492,2.5401,2.5401,2.5401,2.5401,2.5401,2.3719,2.1867,2.0047,1.8174,1.6294,1.442,1.4299,1.4299,1.4299,1.4299,1.4299,1.4299,1.4299,1.4299,1.4299,1.4299,1.4299,1.4299,1.4299,1.4299,2.1542,2.1355,2.0975,2.0621,2.0303,1.9828,1.8936,1.8714,1.8629,1.8392,1.8319,1.8307,1.8331,1.8544,1.8806,1.9084,1.9592,2.0212,2.099,2.1574,2.2224,2.3005,2.4014,2.4874,2.544,2.6071,2.6756,2.7497,2.7457,2.7583,2.8015,2.8105,2.8119,2.8073,2.8161,2.8203,2.8203,2.8203,2.8189,2.8189,2.8189,2.8189,2.8189,2.8189,2.8189,2.8189,2.8189,0.0,0.0,2.6806,2.6254,2.5401,2.5401,2.5401,2.5401,2.5401,2.5401,2.538,2.5209,2.5156,2.4823,2.2966,1.9971,1.7066,1.689,1.5653,1.4299,1.4299,1.4299,1.4299,1.4299,1.4299,1.4299,1.4299,1.4299,1.4299,1.4299,1.4299,1.48,1.6514,1.6978,1.8174,2.1607,2.2428,2.3192,2.491,2.5284,2.5401,2.5401,2.5401,2.5401,2.5401,2.3719,2.1867,2.0047,1.8174,1.6294,1.442,1.4299,1.4299,1.4299,1.4299,1.4299,1.4299,1.4299,1.4299,1.4299,1.4299,1.4299,1.4299,1.4299,1.4299,2.151,2.1208,2.0752,2.0555,2.0031,1.9405,1.8828,1.8335,1.7948,1.7844,1.7559,1.7438,1.7759,1.8045,1.8359,1.8794,1.943,2.0067,2.0546,2.122,2.1955,2.2765,2.3816,2.4647,2.513,2.6039,2.686,2.7527,2.7788,2.8002,2.8189,2.7934,2.7912,2.8192,2.8195,2.8195,2.8189,2.8189,2.8189,2.8189,2.8189,2.8189,2.8189,2.8189,2.8189,2.8189,2.8189,0.0,0.0,2.6806,2.6254,2.5401,2.5401,2.5401,2.5401,2.5401,2.5401,2.5401,2.5401,2.5401,2.5102,2.3268,2.0904,1.8567,1.7438,1.5796,1.4299,1.4299,1.4299,1.4299,1.4299,1.4299,1.4299,1.4299,1.4299,1.4299,1.4299,1.5197,1.6206,1.6945,1.8894,2.0893,2.2374,2.3558,2.4545,2.5284,2.5401,2.5401,2.5401,2.5401,2.5401,2.5401,2.2751,2.0677,1.996,1.7143,1.5098,1.4354,1.4299,1.4299,1.4299,1.4299,1.4299,1.4299,1.4299,1.4299,1.4299,1.4299,1.4299,1.4299,1.4299,1.4299,2.1221,2.0958,2.0554,2.0314,1.9729,1.905,1.8484,1.7912,1.7457,1.73,1.696,1.6822,1.7184,1.7549,1.7936,1.8395,1.9136,1.9813,2.0244,2.0918,2.1701,2.2596,2.3653,2.449,2.4966,2.6139,2.7033,2.7469,2.7928,2.8189,2.8189,2.7897,2.7854,2.8189,2.8189,2.8189,2.8189,2.8189,2.8189,2.8189,2.8189,2.8189,2.8189,2.8189,2.8189,2.8189,2.8055,0.0,0.0,2.6645,2.6126,2.5401,2.5401,2.5401,2.5401,2.5401,2.5401,2.5401,2.5401,2.5401,2.5102,2.3278,2.1402,1.9547,1.7668,1.5796,1.4299,1.4299,1.4299,1.4299,1.4299,1.4299,1.4299,1.4299,1.4299,1.4454,1.501,1.6174,1.7416,1.8512,2.0828,2.2783,2.3321,2.4524,2.5401,2.5401,2.5401,2.5401,2.5401,2.5401,2.5401,2.5401,2.26,2.0503,1.995,1.6459,1.4299,1.4299,1.4299,1.4299,1.4299,1.4299,1.4299,1.4299,1.4299,1.4299,1.4299,1.4299,1.4299,1.4299,1.4299,1.4299,2.0545,2.0615,2.0458,1.986,1.9448,1.8902,1.7768,1.7513,1.7348,1.6822,1.6699,1.6699,1.6706,1.7136,1.759,1.7863,1.8576,1.9386,2.0184,2.0752,2.1507,2.2572,2.3653,2.4566,2.5227,2.6633,2.7484,2.7508,2.7928,0.0,2.8189,2.8189,2.8189,2.8189,2.8189,2.8189,2.8189,2.8189,2.8189,2.8189,2.8189,2.8189,2.8189,2.8189,2.8189,0.0,0.0,0.0,0.0,2.6305,2.5826,2.5401,2.5401,2.5401,2.5401,2.5401,2.5401,2.5401,2.5401,2.5401,2.5092,2.3203,2.1381,1.9547,1.7668,1.5796,1.4299,1.4299,1.4299,1.4299,1.4299,1.4299,1.4299,1.4299,1.4299,1.4811,1.6668,1.7088,1.8174,2.1834,2.2578,2.3192,2.5049,2.5391,2.5401,2.5401,2.5401,2.5401,2.5401,2.5401,2.5401,2.5401,2.3762,2.192,2.0058,1.6459,1.4299,1.4299,1.4299,1.4299,1.4299,1.4299,1.4299,1.4299,1.4299,1.4299,1.4299,1.4299,1.4299,1.4299,1.4299,1.4299,1.9689,1.9707,1.9604,1.9184,1.8873,1.8445,1.7683,1.7216,1.6851,1.6503,1.6278,1.6266,1.6634,1.6991,1.7426,1.8073,1.8689,1.9314,1.9934,2.0652,2.1435,2.233,2.3663,2.5076,2.6533,2.6884,2.7294,2.7928,2.8129,2.8189,2.8189,2.8189,2.8189,2.8189,2.8189,2.8189,2.8189,2.8189,2.8189,2.8189,2.8189,2.8189,2.8189,2.8189,2.8189,0.0,0.0,0.0,0.0,2.6295,2.5816,2.5401,2.5401,2.5401,2.5401,2.5401,2.5401,2.5401,2.5401,2.5401,2.4887,2.177,2.0373,1.9308,1.6141,1.4767,1.4299,1.4299,1.4299,1.4299,1.4299,1.5253,1.5895,1.4608,1.5278,1.6382,1.6967,1.8117,1.9721,2.2126,2.3644,2.4695,2.5295,2.5401,2.5401,2.5401,2.5401,2.5401,2.5401,2.5401,2.5401,2.5401,2.2632,2.0547,1.995,1.7635,1.5675,1.4376,1.4299,1.4299,1.4299,1.4299,1.4299,1.4299,1.4299,1.4299,1.4299,1.4299,1.4299,1.4299,1.4299,1.4299,1.8839,1.9034,1.9038,1.8725,1.8351,1.7914,1.7332,1.6858,1.6472,1.6201,1.602,1.6025,1.6472,1.6846,1.7329,1.8029,1.8677,1.9326,1.9958,2.0664,2.1537,2.2694,2.388,2.5244,2.6877,2.6881,2.7186,2.8139,2.8189,2.8189,2.8189,2.8189,2.8189,2.8189,2.8189,2.8189,2.8189,2.8189,2.8189,2.8189,2.8189,2.8189,2.8189,2.8189,2.8189,0.0,0.0,0.0,0.0,2.6093,2.5668,2.5401,2.5401,2.5401,2.5401,2.5401,2.5401,2.5401,2.5401,2.5401,2.4791,2.1099,1.9417,1.8403,1.6064,1.4855,1.4454,1.5164,1.5363,1.5521,1.6228,1.7285,1.7865,1.669,1.7307,1.8348,1.9057,2.0134,2.1489,2.3299,2.4599,2.5401,2.5401,2.5401,2.5401,2.5401,2.5401,2.5401,2.5401,2.5401,2.5401,2.5401,2.2729,2.0666,1.996,1.7526,1.5543,1.4365,1.4299,1.4299,1.4299,1.4299,1.4299,1.4299,1.4299,1.4299,1.4299,1.4299,1.4299,1.4299,1.4299,1.4299,0.0,1.8456,1.8614,1.8386,1.7909,1.7361,1.6827,1.6515,0.0,1.5977,1.5935,1.602,1.6328,1.6786,1.7312,1.7863,1.8601,1.9386,2.0184,2.0833,2.1864,2.3601,2.4279,2.5141,2.6544,2.6748,2.7186,2.8139,2.8189,2.8189,2.8189,2.8189,2.8189,2.8189,2.8189,2.8189,2.8189,2.8189,2.8189,2.8189,2.8189,2.8189,2.8189,2.8189,2.8189,0.0,0.0,0.0,0.0,2.5785,2.5401,2.5401,2.5401,2.5401,2.5401,2.5401,2.5401,2.5401,2.5401,2.5401,2.4802,2.1251,1.8828,1.7296,1.7296,1.6075,1.5065,1.6811,1.7296,1.7701,1.9449,2.0004,2.0069,1.9928,2.0004,2.0568,2.232,2.2697,2.3235,2.5049,2.5401,2.5401,2.5401,2.5401,2.5401,2.5401,2.5401,2.5401,2.5401,2.5401,2.5348,2.522,2.3579,2.1748,1.9863,1.6503,1.4443,1.431,1.4299,1.4299,1.4299,1.4299,1.4299,1.4299,1.4299,1.4299,1.4299,1.4299,1.4299,1.4299,1.4299,1.4299,1.641,0.0,1.753,1.7679,1.7593,1.7361,0.0,1.6646,1.6525,1.6253,1.6213,1.6406,1.7095,1.7312,1.765,1.8387,1.8834,1.9386,2.0184,2.1474,2.2953,2.4652,2.4704,2.5351,2.7265,2.7042,2.7186,2.8139,2.8189,2.8189,2.8189,2.8189,2.8189,2.8189,2.8189,2.8189,2.8189,2.8189,2.8189,2.8189,2.8189,2.8189,2.8189,2.8189,2.8189,0.0,0.0,0.0,2.6732,2.5785,2.5401,2.5401,2.5401,2.5401,2.5401,2.5401,2.5401,2.5401,2.5401,2.5401,2.5028,2.2772,2.0774,1.9242,1.9242,1.8927,1.8676,1.9123,1.9242,1.934,1.9786,2.0969,2.1683,2.0243,2.0958,2.2093,2.2589,2.2665,2.317,2.5049,2.5401,2.5401,2.5401,2.5401,2.5401,2.5401,2.5401,2.5401,2.5401,2.5401,2.4845,2.3407,2.164,1.9797,1.792,1.6945,1.5829,1.4387,1.4299,1.4299,1.4299,1.4299,1.4299,1.4299,1.4299,1.4299,1.4299,1.4299,1.4299,1.4299,1.4299,1.4299,1.5875,1.6399,1.6979,1.7252,1.722,1.6944,1.6186,1.637,1.649,1.5765,1.6172,1.6841,1.7404,1.7699,1.8097,1.8774,1.9314,2.0015,2.1066,2.2265,2.34,2.4447,2.4696,2.54,2.6945,2.6925,2.7186,2.8139,2.8189,2.8189,2.8189,2.8189,2.8189,2.8189,2.8189,2.8189,2.8189,2.8189,2.8189,2.8189,2.8189,2.8189,2.8189,2.8189,2.8189,0.0,0.0,0.0,2.6732,2.5785,2.5401,2.5401,2.5401,2.5401,2.5401,2.5401,2.5401,2.5401,2.5401,2.4867,2.3998,2.302,2.2018,2.1175,2.1175,2.1759,2.2234,2.1381,2.1142,2.1337,2.2191,2.317,2.3676,2.2665,2.317,2.3891,2.3923,2.3912,2.4191,2.5199,2.5401,2.5401,2.5401,2.5401,2.5466,2.569,2.5709,2.5709,2.5709,2.5913,2.5485,2.4041,2.1662,1.969,1.849,1.6811,1.5378,1.4365,1.4299,1.4299,1.4299,1.4299,1.4299,1.4299,1.4299,1.4299,1.4299,1.4299,1.4299,1.4299,1.4299,1.4299,1.5723,1.6206,1.6706,1.7027,1.6931,1.6539,1.5679,1.618,1.6525,1.5428,1.6285,1.7312,1.7634,1.8097,1.8573,1.9084,1.9898,2.0921,2.2175,2.2998,2.3593,2.3975,2.4663,2.549,2.6471,2.6772,2.7273,2.8126,2.8189,2.8189,2.8189,2.8189,2.8189,2.8189,2.8189,2.8189,2.8189,2.8189,2.8189,2.8189,2.8189,2.8189,2.8189,2.8189,2.8189,0.0,0.0,0.0,2.6732,2.5785,2.5401,2.5401,2.5401,2.5401,2.5401,2.5401,2.5401,2.5401,2.5401,2.4406,2.3106,2.3106,2.3106,2.3106,2.3106,2.4181,2.507,2.3471,2.3031,2.3385,2.4995,2.5401,2.5401,2.5401,2.5401,2.5401,2.5401,2.5401,2.5401,2.5401,2.5401,2.5401,2.5401,2.5455,2.5647,2.6039,2.6167,2.621,2.621,2.655,2.6392,2.5293,2.2632,2.0561,1.9658,1.6602,1.4608,1.4321,1.4299,1.4299,1.4299,1.4299,1.4299,1.4299,1.4299,1.4299,1.4299,1.4299,1.4299,1.4299,1.4299,1.4299,1.5203,1.5783,1.6479,1.6974,1.7075,1.7001,1.6844,1.7095,1.7322,1.7132,1.7445,1.7924,1.8424,1.877,1.9084,1.9394,2.049,2.1631,2.2502,2.3275,2.4071,2.4958,2.538,2.6045,2.7227,2.7376,2.7622,2.816,2.8189,2.8189,2.8189,2.8189,2.8189,2.8189,2.8189,2.8189,2.8189,2.8189,2.8189,2.8189,2.8189,2.8189,2.8189,2.8189,2.8189,0.0,0.0,2.6806,2.6732,2.5785,2.5401,2.5401,2.5401,2.5401,2.5401,2.5401,2.5401,2.5401,2.5401,2.522,2.4995,2.4995,2.4995,2.4995,2.4995,2.5177,2.5337,2.5049,2.4974,2.5049,2.5327,2.5401,2.5401,2.5401,2.5401,2.5401,2.5401,2.5401,2.5401,2.5401,2.5401,2.5401,2.5401,2.5732,2.6018,2.6093,2.6443,2.6688,2.6688,2.6751,2.6133,2.4392,2.3406,2.1577,1.8396,1.7233,1.5994,1.4398,1.4299,1.4299,1.4299,1.4299,1.4299,1.4299,1.4299,1.4299,1.4299,1.4299,1.4299,1.4299,1.4299,1.4299,1.5121,1.5802,1.6437,1.6974,1.7216,1.7166,1.6629,1.7251,1.774,1.7046,1.7677,1.8448,1.8834,1.914,1.9592,2.0438,2.1332,2.2193,2.2971,2.3617,2.4344,2.5197,2.5657,2.6326,2.741,2.7508,2.7685,2.816,2.8189,2.8189,2.8189,2.8189,2.8189,2.8189,2.8189,2.8189,2.8189,2.8189,2.8189,2.8189,2.8189,2.8189,2.8189,2.8189,2.8189,2.8147,0.0,2.6806,2.6732,2.5785,2.5401,2.5401,2.5401,2.5401,2.5401,2.5401,2.5401,2.5401,2.5401,2.5401,2.5401,2.5401,2.5401,2.5401,2.5401,2.5401,2.5401,2.5401,2.5401,2.5401,2.5401,2.5401,2.5401,2.5401,2.5401,2.5401,2.5401,2.5401,2.5401,2.5401,2.5401,2.5401,2.5401,2.5784,2.6188,2.6443,2.6881,2.7177,2.7177,2.74,2.7037,2.5664,2.4413,2.2482,1.9519,1.7925,1.6294,1.442,1.4299,1.4299,1.4299,1.4299,1.4299,1.4299,1.4299,1.4299,1.4299,1.4299,1.4299,1.4299,1.4299,1.4299,1.4893,1.5594,1.619,1.6985,1.7348,1.7327,1.6688,1.7506,1.8133,1.7222,1.8018,1.8987,1.9326,1.97,2.035,2.1501,2.2139,2.2725,2.3402,2.3957,2.4575,2.5308,2.59,2.6592,2.741,2.7603,2.7812,2.8168,2.8189,2.8189,2.8189,2.8189,2.8189,2.8189,2.8189,2.8189,2.8189,2.8189,2.8189,2.8189,2.8189,2.8189,2.8189,2.8189,2.8189,2.8147,2.7207,2.6806,2.6732,2.5785,2.5401,2.5401,2.5401,2.5401,2.5401,2.5401,2.5401,2.5401,2.5401,2.5401,2.5401,2.5401,2.5401,2.5401,2.5401,2.5401,2.5401,2.5401,2.5401,2.5401,2.5401,2.5401,2.5401,2.5401,2.5401,2.5401,2.5401,2.5401,2.5401,2.5401,2.5487,2.5562,2.5562,2.6039,2.655,2.6912,2.7357,2.7654,2.7654,2.7981,2.7915,2.7209,2.5844,2.3727,2.0615,1.7947,1.5829,1.4387,1.4299,1.4299,1.4299,1.4299,1.4299,1.4299,1.4299,1.4299,1.4299,1.4299,1.4299,1.4299,1.4299,1.4299,1.4152,1.4692,1.5478,1.7064,1.7489,1.7616,1.8044,1.8414,1.8714,1.8868,1.9197,1.96,2.0123,2.0849,2.155,2.2151,2.2693,2.3205,2.3704,2.4222,2.4842,2.558,2.631,2.6955,2.7442,2.7897,2.816,2.8189,2.8189,2.8189,2.8189,2.8189,2.8189,2.8189,2.8189,2.8189,2.8189,2.8189,2.8189,2.8189,2.8189,2.8189,2.8189,2.8189,2.8189,2.8147,2.7207,2.6806,2.6732,2.5785,2.5401,2.5401,2.5401,2.5401,2.5401,2.5401,2.5401,2.5401,2.5401,2.5401,2.5401,2.5401,2.5401,2.5401,2.5401,2.5401,2.5401,2.5401,2.5401,2.5401,2.5401,2.5401,2.5401,2.5401,2.5401,2.5401,2.5401,2.5401,2.5401,2.5401,2.5741,2.605,2.605,2.6806,2.7413,2.7445,2.7854,2.8147,2.8147,2.8181,2.8168,2.8105,2.7978,2.5736,2.0396,1.6602,1.4443,1.431,1.4299,1.4299,1.4299,1.4299,1.4299,1.4299,1.4299,1.4299,1.4299,1.4299,1.4299,1.4299,1.4299,1.4299,1.3289,1.4934,1.6576,1.6673,1.6877,1.7367,1.8537,1.8991,1.9314,1.9761,1.993,2.0208,2.0921,2.1574,2.2138,2.2541,2.313,2.3681,2.4106,2.4563,2.5167,2.6029,2.6523,2.7103,2.7865,2.8108,2.8189,2.8189,2.8189,2.8189,2.8189,2.8189,2.8189,2.8189,2.8189,2.8189,2.8189,2.8189,2.8189,2.8189,2.8189,2.8189,2.8189,2.8189,2.8189,2.8158,2.7516,2.7071,2.6753,2.6093,2.5668,2.5401,2.5401,2.5401,2.5401,2.5401,2.5401,2.5401,2.5401,2.5401,2.5401,2.5401,2.5401,2.5401,2.5401,2.5401,2.5401,2.5401,2.5401,2.5401,2.5401,2.5401,2.5401,2.5401,2.5401,2.5401,2.5401,2.5401,2.5487,2.5773,2.5731,2.586,2.6433,2.6838,2.7156,2.7466,2.7897,2.8189,2.8189,2.8189,2.8189,2.8189,2.7685,2.624,2.3547,1.778,1.4299,1.4299,1.4299,1.4299,1.4299,1.4299,1.4299,1.4299,1.4299,1.4299,1.4299,1.4299,1.4299,1.4299,1.4299,1.4299,1.3435,1.5285,1.6991,1.7092,1.7047,1.7448,1.9215,1.9301,1.9314,2.0343,2.0752,2.1109,2.1655,2.2224,2.2675,2.2869,2.3401,2.3987,2.449,2.4789,2.5355,2.6409,2.669,2.7165,2.8105,2.8189,2.8189,2.8189,2.8189,2.8189,2.8189,2.8189,2.8189,2.8189,2.8189,2.8189,2.8189,2.8189,2.8189,2.8189,2.8189,2.8189,2.8189,2.8189,2.8189,2.8168,2.7548,2.7103,2.6753,2.6124,2.569,2.5401,2.5401,2.5401,2.5401,2.5401,2.5401,2.5401,2.5401,2.5401,2.5401,2.5401,2.5401,2.5401,2.5401,2.5401,2.5401,2.5401,2.5401,2.5401,2.5401,2.5401,2.5401,2.5401,2.5401,2.5401,2.5401,2.5401,2.5487,2.5816,2.5731,2.5839,2.652,2.6806,2.7114,2.7643,2.7992,2.8189,2.8189,2.8189,2.8189,2.8189,2.709,2.6105,2.5444,1.8578,1.4299,1.4299,1.4299,1.4299,1.4299,1.4299,1.4299,1.4299,1.4299,1.4299,1.4299,1.4299,1.4299,1.4299,1.4299,1.4299,1.4763,1.5544,1.6345,1.8546,1.8236,1.7984,2.0201,1.9309,1.8606,2.0682,2.1749,2.2315,2.2319,2.2845,2.3255,2.3125,2.3493,2.4066,2.4799,2.491,2.5374,2.6652,2.6806,2.7165,2.8105,2.8189,2.8189,2.8189,2.8189,2.8189,2.8189,2.8189,2.8189,2.8189,2.8189,2.8189,2.8189,2.8189,2.8189,2.8189,2.8189,2.8189,2.8189,2.8189,2.8189,2.8147,2.7207,2.6806,2.6732,2.5785,2.5401,2.5401,2.5401,2.5401,2.5401,2.5401,2.5401,2.5401,2.5401,2.5401,2.5401,2.5401,2.5401,2.5401,2.5401,2.5401,2.5401,2.5401,2.5401,2.5401,2.5401,2.5401,2.5401,2.5401,2.5401,2.5401,2.5401,2.5401,2.5401,2.5401,2.5773,2.6146,2.6275,2.6796,2.7421,2.8108,2.8189,2.8189,2.8189,2.8189,2.8189,2.8189,2.6541,2.5423,2.5423,1.8654,1.4376,1.4299,1.4299,1.4299,1.4299,1.4299,1.4299,1.4299,1.4299,1.4299,1.4299,1.4299,1.4299,1.4299,1.4299,1.4299,1.3905,1.5832,1.7607,1.7855,1.7856,1.8382,2.0501,2.0412,2.0291,2.1661,2.2323,2.2721,2.2967,2.3086,2.3254,2.3551,2.3957,2.4466,2.5155,2.5536,2.6016,2.673,2.7093,2.7527,2.8136,2.8189,2.8189,2.8189,2.8189,2.8189,2.8189,2.8189,2.8189,2.8189,2.8189,2.8189,2.8189,2.8189,2.8189,2.8189,2.8189,2.8189,2.8189,2.8189,2.8189,2.8168,2.7558,2.7114,2.6732,2.5785,2.5401,2.5401,2.5401,2.5401,2.5401,2.5401,2.5401,2.5401,2.5401,2.5401,2.5401,2.5401,2.5401,2.5401,2.5401,2.5401,2.5401,2.5401,2.5401,2.5401,2.5401,2.5401,2.5401,2.5401,2.5401,2.5401,2.5401,2.5401,2.5401,2.5401,2.5508,2.5828,2.653,2.6806,2.722,2.8076,2.8189,2.8189,2.8189,2.8189,2.8189,2.8189,2.7693,2.7379,2.7379,2.4136,1.9873,1.463,1.4299,1.4299,1.4299,1.4299,1.4299,1.4299,1.4299,1.4299,1.4299,1.4299,1.4299,1.4299,1.4299,1.4299,1.4771,1.6797,1.8466,1.8543,1.8809,1.9475,2.0992,2.1423,2.171,2.253,2.2855,2.3101,2.3433,2.3423,2.3606,2.4313,2.4645,2.4939,2.5343,2.5849,2.6326,2.6753,2.7209,2.7675,2.8147,2.8189,2.8189,2.8189,2.8189,2.8189,2.8189,2.8189,2.8189,2.8189,2.8189,2.8189,2.8189,2.8189,2.8189,2.8189,2.8189,2.8189,2.8189,2.8189,2.8189,2.8158,2.7506,2.6965,2.6454,2.5711,2.5401,2.5401,2.5401,2.5401,2.5401,2.5401,2.5401,2.5401,2.5401,2.5401,2.5401,2.5401,2.5401,2.5401,2.5401,2.5401,2.5401,2.5401,2.5401,2.5401,2.5401,2.5401,2.5401,2.5401,2.5401,2.5401,2.5401,2.5401,2.5401,2.5401,2.5401,2.5572,2.6158,2.6243,2.67,2.7999,2.8189,2.8189,2.8189,2.8189,2.8189,2.8189,2.8189,2.8189,2.8189,2.6488,2.2212,1.4767,1.4299,1.4299,1.4299,1.4299,1.4299,1.4299,1.4299,1.4299,1.4299,1.4299,1.4299,1.4299,1.4299,1.4299,1.6505,1.8002,1.8955,2.003,2.0579,2.1023,2.1674,2.2314,2.2853,2.3208,2.332,2.345,2.3814,2.3911,2.4255,2.5244,2.5397,2.5401,2.5404,2.5947,2.6456,2.6751,2.7252,2.7728,2.816,2.8189,2.8189,2.8189,2.8189,2.8189,2.8189,2.8189,2.8189,2.8189,2.8189,2.8189,2.8189,2.8189,2.8189,2.8189,2.8189,2.8189,2.8189,2.8189,2.8181,2.8084,2.7186,2.6528,2.6061,2.5594,2.5401,2.5401,2.5401,2.5401,2.5401,2.5401,2.5401,2.5401,2.5401,2.5401,2.5401,2.5401,2.5401,2.5401,2.5401,2.5401,2.5401,2.5401,2.5401,2.5401,2.5401,2.5401,2.5401,2.5401,2.5401,2.5401,2.5401,2.5401,2.5401,2.5401,2.5401,2.5444,2.5626,2.5658,2.6233,2.7936,2.8189,2.8189,2.8189,2.8189,2.8189,2.8189,2.8189,2.8189,2.8189,2.6488,2.2514,1.5741,1.4675,1.4299,1.4299,1.4299,1.4299,1.4299,1.4299,1.4299,1.4299,1.4299,1.4299,1.4299,1.4299,1.4299,1.5496,1.7367,1.8955,2.003,2.1127,2.2096,2.267,2.2992,2.316,2.315,2.3446,2.3839,2.4338,2.4772,2.513,2.536,2.5394,2.5397,2.5401,2.6142,2.6721,2.6783,2.7548,2.8097,2.8189,2.8189,2.8189,2.8189,2.8189,2.8189,2.8189,2.8189,2.8189,2.8189,2.8189,2.8189,2.8189,2.8189,2.8189,0.0,2.8189,2.8189,2.8189,2.8189,2.8002,2.7611,2.705,2.6528,2.6061,2.5594,2.5401,2.5401,2.5401,2.5401,2.5401,2.5401,2.5401,2.5401,2.5401,2.5401,2.5401,2.5401,2.5401,2.5401,2.5401,2.5401,2.5401,2.5401,2.5401,2.5401,2.5401,2.5401,2.5401,2.5401,2.5401,2.5401,2.5401,2.5401,2.5401,2.5401,2.5401,2.5871,2.7334,2.7601,2.7725,2.8136,2.8189,2.8189,2.8189,2.8189,2.8189,2.8189,2.8189,2.8189,2.8189,2.6488,2.4716,2.3106,1.7526,1.4299,1.4299,1.4299,1.4299,1.4299,1.4299,1.4299,1.4299,1.4299,1.4299,1.4299,1.4299,1.4299,1.5176,1.7169,1.9016,2.0353,2.1595,2.2596,2.3005,2.3326,2.3673,2.411,2.4191,2.4354,2.4881,2.5208,2.5392,2.5407,2.5401,2.5481,2.5697,2.6348,2.6881,2.7114,2.777,2.8189,2.8189,2.8189,2.8189,2.8189,2.8189,2.8189,2.8189,2.8189,2.8189,2.8189,2.8189,2.8189,2.8189,2.8189,2.8189,2.8189,2.8189,2.8189,2.8189,2.8189,2.8076,2.7802,2.7103,2.6656,2.638,2.569,2.5401,2.5401,2.5401,2.5401,2.5401,2.5401,2.5401,2.5401,2.5401,2.5401,2.5401,2.5401,2.5401,2.5401,2.5401,2.5401,2.5401,2.5401,2.5401,2.5401,2.5401,2.5401,2.5401,2.5401,2.5401,2.5401,2.5401,2.5401,2.5401,2.5401,2.5401,2.5999,2.7886,2.8189,2.8189,2.8189,2.8189,2.8189,2.8189,2.8189,2.8189,2.8189,2.8189,2.8189,2.8189,2.6488,2.5401,2.5401,1.8414,1.4299,1.4299,1.4299,1.4299,1.4299,1.4299,1.4299,1.4299,1.4299,1.4299,1.4299,1.4299,1.4299,1.4508,1.6742,1.8979,2.0684,2.1906,2.2765,2.3041,2.3454,2.4079,2.5057,2.4974,2.4874,2.5324,2.5404,2.5407,2.5409,2.5466,2.5668,2.605,2.6571,2.7061,2.7442,2.7918,2.8189,2.8189,2.8189,2.8189,2.8189,2.8189,2.8189,2.8189,2.8189,2.8189,2.8189,2.8189,2.8189,2.8189,2.8189,2.8189,2.8189,2.8189,2.8189,2.8189,2.8189,2.8189,2.8147,2.7207,2.6806,2.6732,2.5785,2.5401,2.5401,2.5401,2.5401,2.5401,2.5401,2.5401,2.5401,2.5401,2.5401,2.5401,2.5401,2.5401,2.5401,2.5401,2.5401,2.5401,2.5401,2.5401,2.5401,2.5401,2.5401,2.5401,2.5401,2.5401,2.5401,2.5401,2.5401,2.5401,2.5401,2.5658,2.6382,2.7926,2.8189,2.8189,2.8189,2.8189,2.8189,2.8189,2.8189,2.8189,2.8189,2.8189,2.8189,2.8189,2.6488,2.5401,2.5401,1.8414,1.4299,1.4299,1.4299,1.4299,1.4299,1.4299,1.4299,1.4299,1.4299,1.4299,1.4299,1.4299,1.4299,1.1846,1.5009,1.8581,2.0595,2.1906,2.2765,2.3041,2.3454,2.3965,2.4584,2.5027,2.5314,2.5392,2.5401,2.5397,2.5401,2.5731,2.6029,2.6093,2.6847,2.7421,2.7497,2.7918,2.8189,2.8189,2.8189,2.8189,2.8189,2.8189,2.8189,2.8189,2.8189,2.8189,2.8189,2.8189,2.8189,2.8189,2.8189,2.8189,2.8189,2.8189,2.8189,2.8189,2.8189,2.8189,2.8147,2.7207,2.6806,2.6732,2.5785,2.5401,2.5401,2.5401,2.5401,2.5401,2.5401,2.5401,2.5401,2.5401,2.5401,2.5401,2.5401,2.5401,2.5401,2.5401,2.5401,2.5401,2.5401,2.5401,2.5401,2.5401,2.5401,2.5401,2.5401,2.5401,2.5401,2.5401,2.5401,2.5401,2.5401,2.6711,2.7918,2.816,2.8189,2.8189,2.8189,2.8189,2.8189,2.8189,2.8189,2.8189,2.8189,2.8189,2.8189,2.8189,2.6488,2.5401,2.5401,1.8414,1.4299,1.4299,1.4299,1.4299,1.4299,1.4299,1.4299,1.4299,1.4299,1.4299,1.4299,1.4299,1.4299,1.3442,1.5779,1.8048,2.0129,2.1353,2.2243,2.3035,2.3395,2.3796,2.4597,2.4866,2.5031,2.5342,2.5393,2.5401,2.5401,2.5784,2.6199,2.6454,2.7071,2.7603,2.7854,2.8076,2.8189,2.8189,2.8189,2.8189,2.8189,2.8189,2.8189,2.8189,2.8189,2.8189,2.8189,2.8189,2.8189,2.8189,2.8189,2.8189,2.8189,2.8189,2.8189,2.8189,2.8189,2.8189,2.8158,2.7484,2.704,2.6753,2.6061,2.5647,2.5401,2.5401,2.5401,2.5401,2.5401,2.5401,2.5401,2.5401,2.5401,2.5401,2.5401,2.5401,2.5401,2.5401,2.5401,2.5401,2.5401,2.5401,2.5401,2.5401,2.5401,2.5401,2.5401,2.5401,2.5401,2.5401,2.5401,2.5711,2.6751,2.763,2.8189,2.8189,2.8189,2.8189,2.8189,2.8189,2.8189,2.8189,2.8189,2.8189,2.8189,2.8189,2.8189,2.8189,2.6488,2.3622,1.9438,1.6108,1.4299,1.4299,1.4299,1.4299,1.4299,1.4299,1.4299,1.4299,1.4299,1.4299,1.4299,1.4299,1.4299,1.4047,1.5713,1.7028,1.9097,2.0508,2.167,2.2703,2.3137,2.3572,2.4442,2.4564,2.4666,2.5198,2.5355,2.5433,2.5562,2.5965,2.6443,2.6912,2.7379,2.7812,2.816,2.8189,2.8189,2.8189,2.8189,2.8189,2.8189,2.8189,2.8189,2.8189,2.8189,2.8189,2.8189,2.8189,2.8189,2.8189,2.8189,2.8189,2.8189,2.8189,2.8189,2.8189,2.8189,2.8189,2.8168,2.7696,2.7294,2.6934,2.6337,2.589,2.5572,2.5444,2.5401,2.5401,2.5401,2.5476,2.5583,2.5583,2.5658,2.5764,2.5764,2.5764,2.5764,2.5764,2.57,2.5594,2.5433,2.5401,2.5401,2.5401,2.5401,2.5401,2.5401,2.5401,2.5401,2.5401,2.5401,2.5956,2.7831,2.8189,2.8189,2.8189,2.8189,2.8189,2.8189,2.8189,2.8189,2.8189,2.8189,2.8189,2.8189,2.8189,2.8189,2.8189,2.6488,2.2212,1.4767,1.4299,1.4299,1.4299,1.4299,1.4299,1.4299,1.4299,1.4299,1.4299,1.4299,1.4299,1.4299,1.4299,1.4299,1.1202,1.3213,1.5226,1.7236,1.9435,2.1277,2.1843,2.2569,2.3263,2.3748,2.4051,2.4379,2.4921,2.5234,2.5551,2.5986,2.6454,2.6934,2.7389,2.7875,2.8168,2.8189,2.8189,2.8189,2.8189,2.8189,2.8189,2.8189,2.8189,2.8189,2.8189,2.8189,2.8189,2.8189,2.8189,2.8189,2.8189,2.8189,2.8189,2.8189,2.8189,2.8189,2.8189,2.8189,2.8189,2.8168,2.7696,2.7497,2.7389,2.6475,2.6093,2.6029,2.5572,2.5401,2.5401,2.5401,2.569,2.6061,2.6061,2.6348,2.6732,2.6732,2.6732,2.6732,2.6732,2.6509,2.6126,2.5551,2.5401,2.5401,2.5401,2.5401,2.5401,2.5401,2.5401,2.5401,2.5401,2.5401,2.5956,2.7831,2.8189,2.8189,2.8189,2.8189,2.8189,2.8189,2.8189,2.8189,2.8189,2.8189,2.8189,2.8189,2.8189,2.8189,2.8189,2.6488,2.2212,1.4767,1.4299,1.4299,1.4299,1.4299,1.4299,1.4299,1.4299,1.4299,1.4299,1.4299,1.4299,1.4299,1.4299,1.4299,1.0807,1.2006,1.3444,1.6411,1.8013,1.9301,2.0997,2.1873,2.2555,2.3388,2.3764,2.4162,2.4873,2.5077,2.5357,2.6004,2.6486,2.6965,2.7421,2.7897,2.8189,2.8189,2.8189,2.8189,2.8189,2.8189,2.8189,2.8189,2.8189,2.8189,2.8189,2.8189,2.8189,2.8189,2.8189,2.8189,2.8189,2.8189,2.8189,2.8189,2.8189,2.8189,2.8189,2.8189,2.8189,2.8189,2.8023,2.778,2.7476,2.7146,2.6815,2.6528,2.6371,2.6307,2.6307,2.6307,2.639,2.655,2.655,2.6656,2.6806,2.6806,2.6806,2.6806,2.6806,2.6721,2.6583,2.636,2.6719,2.7209,2.7209,2.7209,2.6891,2.569,2.5401,2.5401,2.5401,2.635,2.741,2.8076,2.8189,2.8189,2.8189,2.8189,2.8189,2.8189,2.8189,2.8189,2.8189,2.8189,2.8189,2.8189,2.8189,2.8189,2.8189,2.7577,2.4017,1.6566,1.4973,1.4299,1.4299,1.4299,1.4299,1.4299,1.4299,1.4299,1.4299,1.4299,1.4299,1.4299,1.4299,1.4299,1.001,1.1296,1.2868,1.5368,1.7055,1.8559,2.0297,2.1175,2.1867,2.2723,2.3181,2.3675,2.4451,2.4607,2.4984,2.6154,2.6719,2.7199,2.7664,2.8002,2.8189,2.8189,2.8189,2.8189,2.8189,2.8189,2.8189,2.8189,0.0,0.0,2.8189,2.8189,2.8189,2.8189,2.8189,2.8189,2.8189,2.8189,2.8189,2.8189,2.8189,2.8189,2.8189,2.8189,2.8189,2.8189,2.8189,2.8023,2.7717,2.7558,2.7315,2.7018,2.687,2.6806,2.6806,2.6806,2.6902,2.7029,2.7029,2.7146,2.726,2.726,2.726,2.726,2.726,2.726,2.726,2.726,2.7714,2.8189,2.8189,2.8189,2.7883,2.6647,2.586,2.5401,2.5401,2.6868,2.8189,2.8189,2.8189,2.8189,2.8189,2.8189,2.8189,2.8189,2.8189,2.8189,2.8189,2.8189,2.8189,2.8189,2.8189,2.8189,2.8189,2.8189,2.5011,1.7575,1.5341,1.4299,1.4299,1.4299,1.4299,1.4299,1.4299,1.4299,1.4299,1.4299,1.4299,1.4299,1.4299,1.4299,0.0,0.0,0.0,1.4038,1.6613,1.9157,1.9736,2.0486,2.122,2.1755,2.2296,2.2891,2.3641,2.3786,2.445,2.6443,2.7162,2.763,2.8126,2.8189,2.8189,2.8189,2.8189,2.8189,2.8189,2.8189,2.8189,2.8189,2.8189,2.8189,2.8189,2.8189,2.8189,2.8189,2.8189,2.8189,2.8189,2.8189,2.8189,2.8189,2.8189,2.8189,2.8189,2.8189,2.8189,2.8189,2.8189,2.8189,2.816,2.7706,2.7529,2.7474,2.7029,2.6849,2.6849,2.6849,2.7135,2.7529,2.7529,2.7823,2.8189,2.8189,2.8189,2.8189,2.8189,2.8189,2.8189,2.8189,2.8189,2.8189,2.8189,2.8189,2.8189,2.8189,2.6817,2.5466,2.5401,2.6868,2.8181,2.8139,2.8158,2.8189,2.8189,2.8189,2.8189,2.8189,2.8189,2.8189,2.8189,2.8189,2.8189,2.8189,2.8189,2.8189,2.8189,2.8189,2.5117,1.7874,1.5462,1.4299,1.4299,1.4299,1.4299,1.4299,1.4299,1.4299,1.4299,1.4299,1.4299,1.4299,1.4299,1.4299,0.8472,0.0,0.0,0.0,0.0,0.0,1.8948,1.9789,2.0438,2.1172,2.1586,2.213,2.3109,2.3524,2.4212,2.5689,2.6371,2.6973,2.7722,2.8045,2.8189,2.8189,2.8189,2.8189,2.8189,2.8189,2.8189,0.0,2.8189,2.8189,2.8189,2.8189,2.8189,2.8189,2.8189,2.8189,2.8189,2.8189,2.8189,2.8189,2.8189,2.8189,2.8189,2.8189,2.8189,2.8189,2.8189,2.8189,2.8189,2.8065,2.8013,2.7992,2.7852,2.7809,2.7809,2.7809,2.7883,2.8013,2.8013,2.8097,2.8189,2.8189,2.8189,2.8189,2.8189,2.8189,2.8189,2.8189,2.8189,2.8189,2.8189,2.8189,2.8189,2.8189,2.7799,2.7048,2.569,2.6868,2.7799,2.6445,2.726,2.8189,2.8189,2.8189,2.8189,2.8189,2.8189,2.8189,2.8189,2.8189,2.8189,2.8189,2.8189,2.8189,2.8189,2.8189,2.7321,2.5268,1.8329,1.4299,1.4299,1.4299,1.4299,1.4299,1.4299,1.4299,1.4299,1.4299,1.4299,1.4299,1.4299,1.4299,0.8513,0.9947,1.1715,1.3086,0.0,0.0,1.8293,1.9108,1.9737,2.0313,2.0849,2.1465,2.2276,2.2849,2.3518,2.4528,2.5302,2.6192,2.7373,2.77,2.7868,2.7991,2.7994,2.8045,2.82,2.8189,2.8189,2.8189,2.8189,2.8189,2.8189,2.8189,2.8189,2.8189,2.8189,2.8189,2.8189,2.8189,2.8189,2.8189,2.8189,2.8189,2.8189,2.8189,2.8189,2.8189,2.8189,2.8189,2.8189,2.8189,2.8189,2.8189,2.8189,2.8189,2.8189,2.8189,2.8189,2.8189,2.8189,2.8189,2.8189,2.8189,2.8189,2.8189,2.8189,2.8189,2.8189,2.8189,2.8189,2.8189,2.8189,2.8189,2.8189,2.8189,2.8189,2.7894,2.6806,2.7431,2.7886,2.6785,2.744,2.8189,2.8189,2.8189,2.8189,2.8189,2.8189,2.8189,2.8189,2.8189,2.8189,2.8189,2.8189,2.8189,2.8189,2.8189,2.8189,2.8189,2.2374,1.7548,1.4431,1.4299,1.4299,1.4299,1.4299,1.4299,1.4299,1.4299,1.4299,1.4299,1.4299,1.4299,0.8897,1.0711,1.2647,1.3059,1.5304,0.0,1.7798,1.8431,1.9048,1.9358,2.005,2.076,2.1231,2.1835,2.2479,2.3154,2.4018,2.52,2.6854,2.7152,2.7302,2.7562,2.7602,2.7733,2.8069,2.8095,2.8109,2.8149,2.8176,2.8189,2.8189,2.8189,2.8189,2.8189,2.8189,2.8189,2.8189,2.8189,2.8189,2.8189,2.8189,2.8189,2.8189,2.8189,2.8189,2.8189,2.8189,2.8189,2.8189,2.8189,2.8189,2.8189,2.8189,2.8189,2.8189,2.8189,2.8189,2.8189,2.8189,2.8189,2.8189,2.8189,2.8189,2.8189,2.8189,2.8189,2.8189,2.8189,2.8189,2.8189,2.8189,2.8189,2.8189,2.8189,2.8189,2.8189,2.8189,2.8189,2.8189,2.8189,2.8189,2.8189,2.8189,2.8189,2.8189,2.8189,2.8189,2.8189,2.8189,2.8189,2.8189,2.8189,2.8189,2.8189,2.8189,2.8189,2.8189,2.8189,2.5869,2.1424,1.4586,1.4299,1.4299,1.4299,1.4299,1.4299,1.4299,1.4299,1.4299,1.4299,1.4299,1.4299,1.035,1.1311,1.2364,1.2776,1.4885,0.0,1.7477,1.7863,1.8274,1.8758,1.9156,1.9593,2.012,2.05,2.1102,2.2243,2.2599,2.3458,2.5555,2.6276,2.6677,2.6941,2.6977,2.7108,2.7432,2.7483,2.7566,2.7773,2.8045,2.8189,2.8189,2.8189,2.8189,2.8189,2.8189,2.8189,2.8189,2.8189,2.8189,2.8189,2.8189,2.8189,2.8189,2.8189,2.8189,2.8189,2.8189,2.8189,2.8189,2.8189,2.8189,2.8189,2.8189,2.8189,2.8189,2.8189,2.8189,2.8189,2.8189,2.8189,2.8189,2.8189,2.8189,2.8189,2.8189,2.8189,2.8189,2.8189,2.8189,2.8189,2.8189,2.8189,2.8189,2.8189,2.8189,2.8189,2.8189,2.8189,2.8189,2.8189,2.8189,2.8189,2.8189,2.8189,2.8189,2.8189,2.8189,2.8189,2.8189,2.8189,2.8189,2.8189,2.8189,2.8189,2.8189,2.8189,2.8189,2.8189,2.2245,1.7392,1.442,1.4299,1.4299,1.4299,1.4299,1.4299,1.4299,1.4299,1.4299,1.4299,1.4299,1.4299,1.2185,1.2778,1.3444,1.3647,1.5106,0.0,0.0,1.7203,1.7622,1.8013,1.8453,1.8897,1.9411,2.0018,2.0634,2.1212,2.1859,2.2632,2.3566,2.4632,2.5518,2.6073,2.6153,2.6346,2.6807,2.6847,2.6957,2.7231,2.7556,2.775,2.775,2.7884,2.7954,2.7954,2.8112,2.8189,2.8189,2.8189,2.8189,2.8189,2.8189,2.8189,2.8189,2.8189,2.8189,2.8189,2.8189,2.8189,2.8189,2.8189,2.8189,2.8189,2.8189,2.8189,2.8189,2.8189,2.8189,2.8189,2.8189,2.8189,2.8189,2.8189,2.8189,2.8189,2.8189,2.8189,2.8189,2.8189,2.8189,2.8189,2.8189,2.8189,2.8189,2.8189,2.8189,2.8189,2.8189,2.8189,2.8189,2.8189,2.8189,2.8189,2.8189,2.8189,2.8189,2.8189,2.8189,2.8189,2.8189,2.8189,2.8189,2.8189,2.8189,2.8189,2.8189,2.8189,2.662,2.289,1.8283,1.5275,1.4343,1.4299,1.4299,1.4299,1.4299,1.4299,1.4299,1.4299,1.4299,1.4299,1.4299,1.4299,1.4079,1.4402,1.4727,1.4727,1.5565,1.6377,0.0,0.0,0.0,1.73,1.7816,1.8342,1.872,1.9581,2.0157,1.9944,2.1019,2.1775,2.1464,2.2679,2.3986,2.505,2.5121,2.5325,2.5985,2.6159,2.635,2.6697,2.7024,2.7222,2.7309,2.7546,2.7696,2.7696,2.8031,2.8189,2.8189,2.8189,2.8189,2.8189,2.8189,2.8189,2.8189,2.8189,2.8189,2.8189,2.8189,2.8189,2.8189,2.8189,2.8189,2.8189,2.8189,2.8189,2.8189,2.8189,2.8189,2.8189,2.8189,2.8189,2.8189,2.8189,2.8189,2.8189,2.8189,2.8189,2.8189,2.8189,2.8189,2.8189,2.8189,2.8189,2.8189,2.8189,2.8189,2.8189,2.8189,2.8189,2.8189,2.8189,2.8189,2.8189,2.8189,2.8189,2.8189,2.8189,2.8189,2.8189,2.8189,2.8189,2.8189,2.8189,2.8189,2.8189,2.8189,2.6885,2.3503,1.7477,1.5341,1.4299,1.4299,1.4299,1.4299,1.4299,1.4299,1.4299,1.4299,1.4299,1.4299,1.4299,1.4299,1.4299,1.5827,1.5516,1.5221,1.5221,1.594,1.6658,1.6658,0.0,1.6754,1.6779,0.0,1.7617,1.767,0.0,0.0,1.8258,1.9205,1.9934,1.9712,2.0698,2.2076,2.3785,2.3732,2.3874,0.0,2.5285,2.5838,2.64,2.6697,2.6987,2.7285,2.7546,2.7696,2.7696,2.8031,2.8189,2.8189,2.8189,2.8189,2.8189,2.8189,2.8189,2.8189,2.8189,2.8189,2.8189,2.8189,2.8189,2.8189,2.8189,2.8189,2.8189,2.8189,2.8189,2.8189,2.8189,2.8189,2.8189,2.8189,2.8189,2.8189,2.8189,2.8189,2.8189,2.8189,2.8189,2.8189,2.8189,2.8189,2.8189,2.8189,2.8189,2.8189,2.8189,2.8189,2.8189,2.8189,2.8189,2.8189,2.8189,2.8189,2.8189,2.8189,2.8189,2.8189,2.8189,2.8189,2.8189,2.8189,2.8189,2.8189,2.8189,2.8189,2.8189,2.8189,2.2148,1.7994,1.7156,1.5341,1.4299,1.4299,1.4299,1.4299,1.4299,1.4299,1.4299,1.4299,1.4299,1.4299,1.4299,1.4299,1.4299,1.7882,1.7441,1.6974,1.6658,1.6752,1.6894,1.6742,1.6579,1.6506,1.667,0.0,0.0,0.0,0.0,0.0,0.0,1.8819,1.9404,1.9101,1.966,2.0777,2.2542,2.2779,0.0,0.0,0.0,0.0,0.0,2.5959,2.6403,2.6533,2.7138,2.7462,2.7462,2.7938,2.8189,2.8189,2.8189,2.8189,2.8189,2.8189,2.8189,2.8189,2.8189,2.8189,2.8189,2.8189,2.8189,2.8189,2.8189,2.8189,2.8189,2.8189,2.8189,2.8189,2.8189,2.8189,2.8189,2.8189,2.8189,2.8189,2.8189,2.8189,2.8189,2.8189,2.8189,2.8189,2.8189,2.8189,2.8189,2.8189,2.8189,2.8189,2.8189,2.8189,2.8189,2.8189,2.8189,2.8189,2.8189,2.8189,2.8189,2.8189,2.8189,2.8189,2.8189,2.8189,2.8189,2.8189,2.8189,2.8189,2.8189,2.8189,2.8189,2.8189,2.1381,1.7101,1.7101,1.5341,1.4299,1.4299,1.4299,1.4299,1.4299,1.4299,1.4299,1.4299,1.4299,1.4299,1.4299,1.4299,1.4299,1.9483,1.8979,1.8436,1.8045,1.7687,1.7353,1.7088,1.6815,1.6663,1.6779,1.6599,0.0,0.0,0.0,1.7796,1.7508,0.0,1.8833,1.8293,1.8755,1.9742,2.1317,2.1919,0.0,0.0,0.0,0.0,0.0,0.0,2.5734,2.5994,2.6737,2.7218,2.7309,2.7895,2.8189,2.8189,2.8189,2.8189,2.8189,2.8189,2.8189,2.8189,2.8189,2.8189,2.8189,2.8189,2.8189,2.8189,2.8189,2.8189,2.8189,2.8189,2.8189,2.8189,2.8189,2.8189,2.8189,2.8189,2.8189,2.8189,2.8189,2.8189,2.8189,2.8189,2.8189,2.8189,2.8189,2.8189,2.8189,2.8189,2.8189,2.8189,2.8189,2.8189,2.8189,2.8189,2.8189,2.8189,2.8189,2.8189,2.8189,2.8189,2.8189,2.8189,2.8189,2.8189,2.8189,2.8189,2.8189,2.8189,2.8189,2.8189,2.8189,2.8189,2.3256,1.9046,1.6497,1.505,1.4299,1.4299,1.4299,1.4299,1.4299,1.4299,1.4299,1.4299,1.4299,1.4299,1.4299,1.4299,1.4299,2.026,1.9676,1.9072,1.9048,1.8653,1.8186,1.7924,1.765,1.7385,1.7136,1.6875,1.6694,1.6706,1.7203,1.7334,1.6487,1.7297,0.0,0.0,1.7776,1.8958,2.0117,2.1071,2.163,0.0,2.2434,0.0,0.0,2.4475,0.0,2.5957,2.652,2.6964,2.7285,2.7895,2.8189,2.8189,2.8189,2.8189,2.8189,2.8189,2.8189,2.8189,2.8189,2.8189,2.8189,2.8189,2.8189,2.8189,2.8189,2.8189,2.8189,2.8189,2.8189,2.8189,2.8189,2.8189,2.8189,2.8189,2.8189,2.8189,2.8189,2.8189,2.8189,2.8189,2.8189,2.8189,2.8189,2.8189,2.8189,2.8189,2.8189,2.8189,2.8189,2.8189,2.8189,2.8189,2.8189,2.8189,2.8189,2.8189,2.8189,2.8189,2.8189,2.8189,2.8189,2.8189,2.8189,2.8189,2.8189,2.8189,2.8189,2.8189,2.8189,2.8189,2.7978,2.3984,1.4966,1.4332,1.4299,1.4299,1.4299,1.4299,1.4299,1.4299,1.4299,1.4299,1.4299,1.4299,1.4299,1.4299,1.4299,0.0,0.0,2.0027,1.9503,1.9096,1.8714,1.8267,1.796,1.7742,1.7646,1.7269,1.7031,1.7246,1.7277,1.7247,1.7175,1.7325,1.7367,0.0,1.7374,1.7782,1.8163,1.9507,2.0571,2.0967,2.163,0.0,2.3264,2.3955,0.0,0.0,2.5989,2.6597,2.67,2.7462,2.7877,2.7877,2.8085,2.8189,2.8189,2.8189,2.8189,2.8189,2.8189,2.8189,2.8189,2.8189,2.8189,2.8189,2.8189,2.8189,2.8189,2.8189,2.8189,2.8189,2.8189,2.8189,2.8189,2.8189,2.8189,2.8189,2.8189,2.8189,2.8189,2.8189,2.8189,2.8189,2.8189,2.8189,2.8189,2.8189,2.8189,2.8189,2.8189,2.8189,2.8189,2.8189,2.8189,2.8189,2.8189,2.8189,2.8189,2.8189,2.8189,2.8189,2.8189,2.8189,2.8189,2.8189,2.8189,2.8189,2.8189,2.8189,2.8189,2.8189,2.3696,1.8972,1.4586,1.4299,1.4299,1.4299,1.4299,1.4299,1.4299,1.4299,1.4299,1.4299,1.4299,1.4299,1.4299,1.4299,1.4299,2.1852,2.1392,0.0,2.0108,1.9733,0.0,1.8967,1.8581,1.8361,1.8484,1.7999,1.7654,1.8003,1.7807,1.7643,1.7759,1.753,1.7273,0.0,1.6939,1.6918,1.7013,1.8397,1.9526,2.0008,2.0798,2.1604,2.238,2.3246,2.3955,0.0,0.0,2.6182,2.6396,2.7252,2.7696,2.7696,2.8021,2.8189,2.8189,2.8189,2.8189,2.8189,2.8189,2.8189,2.8189,2.8189,2.8189,2.8189,2.8189,2.8189,2.8189,2.8189,2.8189,2.8189,2.8189,2.8189,2.8189,2.8189,2.8189,2.8189,2.8189,2.8189,2.8189,2.8189,2.8189,2.8189,2.8189,2.8189,2.8189,2.8189,2.8189,2.8189,2.8189,2.8189,2.8189,2.8189,2.8189,2.8189,2.8189,2.8189,2.8189,2.8189,2.8189,2.8189,2.8189,2.8189,2.8189,2.8189,2.8189,2.8189,2.8189,2.8189,2.713,2.4477,1.9863,1.6299,1.442,1.4299,1.4299,1.4299,1.4299,1.4299,1.4299,1.4299,1.4299,1.4299,1.4299,1.4299,1.4299,1.4299,1.4299]}]]